     2              OBSERVATION DATA    GPS                 RINEX VERSION / TYPE
ASRINEXO V2.9.7 UX USGS/MENLO_PARK 19-APR-00 18:04          PGM / RUN BY / DATE
                                                            COMMENT
BIT 2 OF LLI (+4) FLAGS DATA COLLECTED UNDER "AS" CONDITION COMMENT
BIT 2 OF LLI (+4) FLAGS DATA COLLECTED UNDER "AS" CONDITION COMMENT
BIT 2 OF LLI (+4) FLAGS DATA COLLECTED UNDER "AS" CONDITION COMMENT
BIT 2 OF LLI (+4) FLAGS DATA COLLECTED UNDER "AS" CONDITION COMMENT
BIT 2 OF LLI (+4) FLAGS DATA COLLECTED UNDER "AS" CONDITION COMMENT
BIT 2 OF LLI (+4) FLAGS DATA COLLECTED UNDER "AS" CONDITION COMMENT
BIT 2 OF LLI (+4) FLAGS DATA COLLECTED UNDER "AS" CONDITION COMMENT
Original Marker Name: lgo7 LGO_70_1977                      COMMENT
Campaign Name: Cuyama So Ca Mon                             COMMENT
4-Character Station Name: LGO7                              COMMENT
6-Character Antenna Code: DMRCHT                            COMMENT
Vertical Measurement Point: BCR                             COMMENT
Vertical Offset to Rinex Ref. Point: 0.0348                 COMMENT
Radial Measurement Point: ECF                               COMMENT
Radial Offset to Rinex Ref. Point: 0.1897                   COMMENT
Antenna Height from Field Measurement: 1.3260 m             COMMENT
Additional Antenna Identification Info.:                    COMMENT
Turborogue and Ashtech Choke Ring                           COMMENT
Original XYZ: -2595768.0333 -4539878.9448 3642124.8570      COMMENT
New XYZ position is based on association with SCEC monument COMMENT
E1E9P8X1+0011. Position of that monument is believed to be  COMMENT
valid to within 1 m horizontally; vertical accuracy         COMMENT
should be no worse than 3-times this value.                 COMMENT
                                                            COMMENT
Revised Rinex header created by UCSD GPS archive for        COMMENT
GSAC on 08-Jul-2000 (2000:190) 01:48:20 GMT                 COMMENT
For assistance contact dagnew@ucsd.edu                      COMMENT
or anderson@python.ucsd.edu                                 COMMENT
                                                            COMMENT
LGO 1977 70                                                 MARKER NAME
JMS US GEOLOGICAL SURVEY                                    OBSERVER / AGENCY
04597 ASHTECH Z-XII3 CC00                                   REC # / TYPE / VERS
CR14330 DORNE-MARGOL. TYPE T                                ANT # / TYPE
 -2595719.6248 -4539654.5273  3642039.5864                  APPROX POSITION XYZ
        1.2776        0.0000        0.0000                  ANTENNA: DELTA H/E/N
     1     1     0                                          WAVELENGTH FACT L1/2
     5    C1    L1    L2    P1    P2                        # / TYPES OF OBSERV
    30                                                      INTERVAL
  2000     4    11    16    25    0.000000                  TIME OF FIRST OBS
  2000     4    11    23    58    0.000000                  TIME OF LAST OBS
                                                            END OF HEADER
 00  4 11 16 25  0.0000000  0  4 27 08 02 07
  23820776.992      488075.531 8    368482.13545  23820775.810    23820793.8354
  22951091.252      460291.690 8    345100.44946  22951090.191    22951103.6474
  21500603.901      144357.362 9    108523.13047  21500602.463    21500611.7774
  20563949.782      119000.615 9     88106.81148  20563948.325    20563956.6804
 00  4 11 16 25 30.0000000  0  4 27 08 02 07
  23759532.458      166232.229 8    117694.63345  23759530.999    23759549.2784
  22888398.200      130837.018 8     88382.22146  22888397.092    22888410.5994
  21422969.479     -263614.733 9   -209377.25747  21422968.038    21422977.3984
  20485136.838     -295164.551 9   -234619.33748  20485135.366    20485143.7204
 00  4 11 16 26  0.0000000  0  4 27 08 02 07
  23779977.026      273669.004 8    201411.07745  23779975.955    23779993.9734
  22907406.402      230725.063 8    166216.78646  22907405.253    22907418.8574
  21427019.510     -242331.587 9   -192793.03647  21427018.124    21427027.4754
  20488049.536     -279858.002 9   -222692.19848  20488048.119    20488056.5014
 00  4 11 16 26 30.0000000  0  4 27 08 02 07
  23800472.619      381373.962 8    285336.51545  23800471.596    23800489.6084
  22926478.712      330949.936 8    244313.79646  22926477.539    22926491.3104
  21431116.142     -220803.877 8   -176018.24847  21431114.768    21431124.1364
  20491052.898     -264074.905 9   -210393.71848  20491051.510    20491059.9334
 00  4 11 16 27  0.0000000  0  4 27 08 02 07
  23821023.651      489369.933 7    369488.78645  23821022.768    23821040.8594
  22945617.030      431521.855 8    322681.23046  22945615.880    22945629.8584
  21435266.600     -198992.940 8   -159022.76747  21435265.265    21435274.6834
  20494150.759     -247795.355 9   -197708.39648  20494149.426    20494157.8524
 00  4 11 16 27 30.0000000  0  4 27 08 02 07
  23841627.241      597641.676 7    453855.97445  23841626.405    23841644.5424
  22964819.230      532429.314 8    401310.11146  22964818.127    22964832.2544
  21439470.300     -176902.565 9   -141809.54347  21439468.975    21439478.4634
  20497342.075     -231025.108 9   -184640.71048  20497340.746    20497349.2214
 00  4 11 16 28  0.0000000  0  4 27 08 02 07
  23862281.489      706178.736 7    538429.88045  23862280.576    23862298.8844
  22984079.863      633643.471 8    480177.98246  22984078.812    22984093.0074
  21443723.538     -154551.872 8   -124393.47347  21443722.230    21443731.7154
  20500624.624     -213775.419 9   -171199.43048  20500623.304    20500631.8084
 00  4 11 16 28 30.0000000  0  4 27 08 02 07
  23882970.540      814898.214 8    623145.90945  23882969.523    23882987.8354
  23003377.505      735051.797 8    559197.15546  23003376.483    23003390.6794
  21448006.836     -132043.405 9   -106854.46347  21448005.515    21448014.9924
  20503978.612     -196150.324 9   -157465.62248  20503977.312    20503985.8314
 00  4 11 16 29  0.0000000  0  4 27 08 02 07
  23903676.641      923707.132 8    707931.62745  23903675.609    23903693.9154
  23022691.919      836548.463 8    638285.16146  23022690.892    23022705.0824
  21452297.488     -109496.125 9    -89285.21247  21452296.214    21452305.6904
  20507380.770     -178271.809 9   -143534.34548  20507379.507    20507388.0594
 00  4 11 16 29 30.0000000  0  4 27 08 02 07
  23924391.126     1032560.051 8    792751.62645  23924390.079    23924408.3184
  23042017.086      938101.726 8    717417.25246  23042016.014    23042030.1664
  21456584.228      -86969.613 9    -71732.14347  21456582.966    21456592.3944
  20510821.945     -160188.602 9   -129443.56748  20510820.694    20510829.2764
 00  4 11 16 30  0.0000000  0  4 27 08 02 07
  23945113.295     1141453.684 8    877603.31445  23945112.193    23945130.2354
  23061352.829     1039710.581 8    796592.68946  23061351.688    23061365.9584
  21460867.648      -64460.420 9    -54192.57547  21460866.371    21460875.8384
  20514301.780     -141902.117 9   -115194.39348  20514300.515    20514309.1004
 00  4 11 16 30 30.0000000  0  4 27 08 02 07
  23965845.906     1250402.370 8    962497.92045  23965844.721    23965862.8364
  23080706.594     1141414.082 8    875841.85346  23080705.439    23080719.7664
  21465155.979      -41925.020 9    -36632.58247  21465154.742    21465164.2004
  20517826.293     -123381.004 9   -100762.39148  20517825.045    20517833.6124
 00  4 11 16 31  0.0000000  0  4 27 08 02 07
  23986602.996     1359479.653 7   1047492.70145  23986601.800    23986619.8934
  23100096.453     1243307.392 8    955238.92946  23100095.306    23100109.6694
  21469469.425      -19258.142 9    -18970.14647  21469468.196    21469477.6204
  20521413.901     -104528.358 9    -86072.05148  20521412.661    20521421.1694
 00  4 11 16 31 30.0000000  0  4 27 08 02 07
  24007395.392     1468743.352 8   1132632.73345  24007394.316    24007412.4784
  23119534.087     1345451.697 8   1034831.55946  23119532.940    23119547.3484
  21473825.462        3632.454 9     -1133.38347  21473824.231    21473833.6194
  20525081.488      -85255.391 9    -71054.18648  20525080.213    20525088.7154
 00  4 11 16 32  0.0000000  0  4 27 08 02 07
  24028226.778     1578211.633 7   1217932.18445  24028225.815    24028243.9434
  23139021.797     1447859.142 8   1114629.24246  23139020.659    23139035.1444
  21478229.276       26774.532 9     16899.34247  21478228.062    21478237.4684
  20528834.941      -65530.723 9    -55684.34548  20528833.704    20528842.2064
 00  4 11 16 32 30.0000000  0  4 27 08 02 07
  24049097.950     1687888.380 7   1303394.04445  24049097.026    24049115.2274
  23158560.020     1550531.633 8   1194633.45846  23158558.893    23158573.4584
  21482678.983       50157.599 9     35119.84447  21482677.781    21482687.2034
  20532674.592      -45353.244 9    -39961.66448  20532673.366    20532681.8904
 00  4 11 16 33  0.0000000  0  4 27 08 02 07
  24070008.629     1797772.629 7   1389017.60045  24070007.809    24070025.8174
  23178147.833     1653464.418 8   1274840.48846  23178146.772    23178161.3514
  21487170.981       73763.057 9     53513.64247  21487169.772    21487179.2474
  20536599.394      -24728.687 9    -23890.61548  20536598.169    20536606.7214
 00  4 11 16 33 30.0000000  0  4 27 08 02 07
  24090956.339     1907850.728 8   1474792.17445  24090955.587    24090973.5304
  23197782.194     1756642.022 8   1355238.28246  23197781.119    23197795.7284
  21491701.669       97571.675 9     72065.73947  21491700.485    21491709.9874
  20540604.628       -3681.285 9     -7490.07248  20540603.426    20540611.9864
 00  4 11 16 34  0.0000000  0  4 27 08 02 07
  24111944.972     2018143.634 7   1560734.13645  24111944.157    24111962.1484
  23217469.414     1860096.997 8   1435852.20146  23217468.310    23217482.9674
  21496273.073      121594.340 9     90784.62647  21496271.890    21496281.3484
  20544691.190       17793.550 9      9243.53748  20544689.967    20544698.5144
 00  4 11 16 34 30.0000000  0  4 27 08 02 07
  24132980.480     2128683.228 8   1646868.32945  24132979.604    24132997.8044
  23237215.303     1963860.600 8   1516706.62746  23237214.180    23237228.9014
  21500891.254      145862.668 9    109694.93947  21500890.063    21500899.4624
  20548863.099       39716.914 9     26326.65348  20548861.879    20548870.4264
 00  4 11 16 35  0.0000000  0  4 27 08 02 07
  24154063.128     2239471.515 7   1733196.31245  24154062.270    24154080.8654
  23257018.922     2067928.259 8   1597797.96546  23257017.801    23257032.6864
  21505559.090      170391.847 9    128808.51447  21505557.892    21505567.2424
  20553120.489       62089.325 9     43759.66748  20553119.261    20553127.7764
 00  4 11 16 35 30.0000000  0  4 27 08 02 07
  24175188.248     2350483.356 7   1819698.47845  24175187.435    24175206.4724
  23276873.142     2172261.854 8   1679096.54646  23276872.016    23276887.1064
  21510271.461      195155.037 9    148104.44047  21510270.280    21510279.5884
  20557456.713       84876.223 9     61515.66248  20557455.480    20557463.9444
 00  4 11 16 36  0.0000000  0  4 27 08 02 07
  24196349.486     2461685.114 7   1906348.64445  24196348.765    24196368.3194
  23296769.966     2276819.513 8   1760569.71045  23296768.892    23296784.0374
  21515018.894      220102.361 9    167543.84247  21515017.683    21515026.9744
  20561863.595      108034.417 9     79560.97848  20561862.389    20561870.8374
 00  4 11 16 36 30.0000000  0  7 09 27 08 02 26 04 07
  22871333.941     -724604.463 8   -531042.25146  22871332.946    22871343.5544
  24217576.749     2573233.415 7   1993268.82645  24217575.991    24217595.8934
  23316739.246     2381757.521 8   1842339.24945  23316738.177    23316753.4324
  21519834.102      245406.327 9    187261.14647  21519832.910    21519842.2624
  22872238.322     -346890.363 8   -279908.28146  22872237.859    22872249.1984
  22530152.878     -743885.501 8   -561522.45646  22530152.450    22530166.4354
  20566373.288      131732.606 9     98027.06848  20566372.077    20566380.5594
 00  4 11 16 37  0.0000000  0  7 09 27 08 02 26 04 07
  22854720.591     -811909.466 8   -599072.07046  22854719.387    22854729.9274
  24238837.874     2684959.396 7   2080327.45645  24238837.022    24238857.2484
  23336748.559     2486905.471 8   1924272.36045  23336747.445    23336762.7554
  21524687.491      270910.628 9    207134.54747  21524686.289    21524695.7074
  22882504.756     -292937.729 8   -237867.43446  22882504.711    22882516.1194
  22511800.589     -840326.801 8   -636671.30046  22511800.175    22511814.1334
  20570953.586      155801.807 9    116782.25748  20570952.376    20570960.9244
 00  4 11 16 37 30.0000000  0  7 09 27 08 02 26 04 07
  22838120.766     -899140.676 8   -667044.37846  22838119.739    22838130.3054
  24260092.594     2796651.607 7   2167359.82045  24260091.767    24260112.1634
  23356758.351     2592055.410 8   2006207.02945  23356757.152    23356772.4684
  21529539.818      296409.220 9    227003.50347  21529538.620    21529548.0434
  22892804.131     -238816.186 8   -195694.97646  22892803.841    22892815.1934
  22493453.323     -936741.015 8   -711799.05146  22493453.027    22493467.0064
  20575562.766      180023.014 9    135655.89348  20575561.555    20575570.1474
 00  4 11 16 38  0.0000000  0  7 09 27 08 02 26 04 07
  22821544.953     -986246.556 8   -734919.02946  22821544.014    22821554.5234
  24281347.654     2908345.629 7   2254393.54145  24281346.682    24281367.4644
  23376779.318     2697264.217 8   2088187.57345  23376778.112    23376793.3704
  21534401.667      321958.009 9    246911.57447  21534400.484    21534409.9334
  22903146.950     -184465.697 8   -153344.11846  22903146.591    22903157.8414
  22475118.317    -1033091.078 8   -786876.78746  22475118.100    22475132.0424
  20580210.434      204446.652 9    154687.26948  20580209.218    20580217.7994
 00  4 11 16 38 30.0000000  0  7 09 27 08 02 26 04 07
  22805003.553    -1073171.721 8   -802652.86846  22805002.676    22805013.1194
  24302612.983     3020093.302 7   2341469.07845  24302612.101    24302632.7594
  23396823.317     2802594.441 8   2170262.73045  23396822.166    23396837.4014
  21539287.153      347630.936 9    266916.37647  21539285.972    21539295.4754
  22913547.425     -129811.981 8   -110756.96646  22913547.001    22913558.1844
  22456805.596    -1129324.560 8   -861863.71646  22456805.347    22456819.0924
  20584910.360      229144.709 9    173932.47848  20584909.154    20584917.6814
 00  4 11 16 39  0.0000000  0  6 09 08 02 26 04 07
  22788505.817    -1159867.694 8   -870208.12646  22788504.966    22788515.3144
  23416899.442     2908093.788 8   2252469.66645  23416898.318    23416913.5714
  21544205.038      373474.032 9    287053.78647  21544203.858    21544213.4294
  22924016.864      -74795.758 8    -67887.34746  22924016.404    22924027.5614
  22438523.327    -1225398.427 8   -936726.31446  22438523.014    22438536.5664
  20589671.085      254162.149 9    193426.55648  20589669.848    20589678.3574
 00  4 11 16 39 30.0000000  0  6 09 08 02 26 04 07
  22772053.241    -1246326.420 8   -937578.50246  22772052.396    22772062.7324
  23437010.102     3013774.638 8   2334818.03845  23437009.035    23437024.3724
  21549154.895      399485.339 9    307322.26847  21549153.731    21549163.3484
  22934555.463      -19415.605 8    -24734.15846  22934554.978    22934566.2914
  22420274.454    -1321296.839 8  -1011452.17746  22420274.088    22420287.4764
  20594496.081      279517.771 9    213184.14748  20594494.868    20594503.3974
 00  4 11 16 40  0.0000000  0  6 09 08 02 26 04 07
  22755646.005    -1332546.423 8  -1004762.86846  22755645.215    22755655.5514
  23457156.364     3119642.595 8   2417312.21145  23457155.249    23457170.7364
  21554136.765      425665.051 9    327721.97447  21554135.602    21554145.2394
  22945163.398       36329.137 8     18703.12746  22945162.934    22945174.3104
  22402064.785    -1416988.975 8  -1086017.30246  22402064.384    22402077.6504
  20599390.315      305237.108 9    233225.14948  20599389.120    20599397.7024
 00  4 11 16 40 30.0000000  0  6 09 08 02 26 04 07
  22739289.504    -1418499.344 8  -1071739.11346  22739288.729    22739299.1314
  23477339.706     3225705.600 8   2499958.36245  23477338.606    23477354.2024
  21559154.110      452031.075 9    348266.86247  21559152.949    21559162.6284
  22955843.039       92450.867 8     62434.17646  22955842.620    22955854.0594
  22383902.445    -1512432.167 8  -1160388.43446  22383902.048    22383915.2524
  20604356.648      331334.898 9    253561.05748  20604355.441    20604364.0364
 00  4 11 16 41  0.0000000  0  6 09 08 02 26 04 07
  22722986.984    -1504169.014 8  -1138494.66146  22722986.264    22722996.6584
  23497559.407     3331959.750 8   2582753.45945  23497558.299    23497574.0234
  21564207.245      478585.181 9    368958.30747  21564206.091    21564215.8484
  22966593.161      148942.345 8    106453.34446  22966592.718    22966604.1844
  22365792.114    -1607602.039 8  -1234546.58346  22365791.714    22365804.8854
  20609395.275      357813.035 9    274193.33448  20609394.083    20609402.6784
 00  4 11 16 41 30.0000000  0  6 09 08 02 26 04 07
  22706738.375    -1589555.802 8  -1205029.77346  22706737.653    22706748.0554
  23517816.530     3438410.345 8   2665701.61845  23517815.395    23517831.1814
  21569296.481      505329.047 9    389797.61247  21569295.327    21569305.1484
  22977411.567      205792.782 8    150752.22846  22977411.158    22977422.6644
  22347738.226    -1702475.469 8  -1308473.71846  22347737.833    22347750.9624
  20614506.988      384674.760 9    295124.51148  20614505.804    20614514.3634
 00  4 11 16 42  0.0000000  0  6 09 08 02 26 04 07
  22690545.594    -1674649.193 8  -1271336.27446  22690544.903    22690555.2894
  23538111.298     3545059.248 8   2748804.30045  23538110.155    23538126.1324
  21574423.170      532269.738 9    410790.29647  21574422.018    21574431.8264
  22988297.903      263000.225 8    195329.28346  22988297.492    22988309.0614
  22329742.451    -1797043.785 8  -1382163.10446  22329742.041    22329755.0964
  20619690.654      411914.552 9    316350.28548  20619689.456    20619698.0024
 00  4 11 16 42 30.0000000  0  6 09 08 02 26 04 07
  22674408.045    -1759452.222 8  -1337416.51046  22674407.345    22674417.8244
  23558441.816     3651896.263 8   2832053.51245  23558440.760    23558456.9714
  21579587.740      559409.691 9    431938.24747  21579586.613    21579596.4644
  22999250.227      320554.161 8    240176.33146  22999249.800    22999261.4364
  22311800.145    -1891330.721 8  -1455633.26546  22311799.703    22311812.7054
  20624941.401      439507.188 9    337851.00148  20624940.201    20624948.7604
 00  4 11 16 43  0.0000000  0  6 09 08 02 26 04 07
  22658321.561    -1843986.943 8  -1403287.67646  22658320.891    22658331.4154
  23578807.734     3758918.842 8   2915447.33645  23578806.731    23578823.1244
  21584790.805      586751.728 8    453243.66447  21584789.661    21584799.5484
  23010264.875      378435.992 8    285278.87846  23010264.445    23010276.2424
  22293906.536    -1985361.437 8  -1528903.77846  22293906.160    22293919.1204
  20630258.493      467448.672 9    359623.54448  20630257.310    20630265.9094
 00  4 11 16 43 30.0000000  0  6 09 08 02 26 04 07
  22642284.798    -1928260.448 8  -1468955.28846  22642284.133    22642294.6674
  23599209.190     3866127.782 8   2998986.36745  23599208.237    23599224.6904
  21590033.076      614299.643 8    474709.51247  21590031.942    21590041.8394
  23021341.437      436643.086 8    330634.88346  23021340.997    23021352.9184
  22276060.853    -2079140.275 8  -1601978.03146  22276060.455    22276073.4284
  20635640.353      495730.361 9    381661.18648  20635639.184    20635647.8094
 00  4 11 16 44  0.0000000  0  6 09 08 02 26 04 07
  22626298.308    -2012270.050 8  -1534417.27546  22626297.620    22626308.1664
  23619642.887     3973505.490 8   3082656.89345  23619641.911    23619658.4204
  21595314.609      642054.387 8    496336.52647  21595313.476    21595323.4544
  23032481.384      495182.949 8    376250.17946  23032480.965    23032492.8544
  22258260.363    -2172681.513 8  -1674867.14046  22258259.967    22258272.8854
  20641084.008      524336.622 9    403951.73748  20641082.836    20641091.4584
 00  4 11 16 44 30.0000000  0  6 09 08 02 26 04 07
  22610359.727    -2096027.676 8  -1599682.90346  22610359.064    22610369.6064
  23640105.254     4081033.669 8   3166444.70345  23640104.245    23640120.8444
  21600635.711      670016.860 8    518125.40147  21600634.602    21600644.6304
  23043682.871      554046.074 8    422117.36746  23043682.440    23043694.2214
  22240502.950    -2265996.718 8  -1747580.11846  22240502.571    22240515.3534
  20646588.024      553260.332 9    426489.65448  20646586.855    20646595.4664
 00  4 11 16 45  0.0000000  0  6 09 08 02 26 04 07
  22594471.036    -2179523.340 8  -1664744.42446  22594470.374    22594480.8964
  23660595.901     4188710.305 8   3250348.19245  23660594.780    23660611.4994
  21605995.771      698183.895 8    540073.67447  21605994.671    21606004.7224
  23054946.607      613236.412 8    468239.52846  23054946.232    23054957.8244
  22222790.534    -2359075.637 8  -1820108.99246  22222790.133    22222802.7814
  20652155.068      582515.044 9    449285.49048  20652153.911    20652162.4964
 00  4 11 16 45 30.0000000  0  6 09 08 02 26 04 07
  22578636.770    -2262733.315 8  -1729583.31646  22578636.066    22578646.5984
  23681114.395     4296533.527 8   3334365.91445  23681113.245    23681130.0634
  21611392.528      726543.569 9    562172.05747  21611391.395    21611401.4614
  23066274.480      672763.670 8    514624.22046  23066274.041    23066285.5804
  22205125.766    -2451903.883 8  -1892442.52846  22205125.362    22205138.0194
  20657784.880      612099.423 9    472338.21148  20657783.724    20657792.3024
 00  4 11 16 46  0.0000000  0  6 09 08 02 26 04 07
  22562858.423    -2345649.268 8  -1794193.09946  22562857.709    22562868.2314
  23701660.478     4404501.702 8   3418496.57845  23701659.302    23701676.1984
  21616825.608      755094.327 9    584419.33647  21616824.494    21616834.5594
  23077663.832      732614.525 8    561261.06246  23077663.416    23077674.9264
  22187507.715    -2544486.161 8  -1964584.41446  22187507.379    22187520.0544
  20663478.763      642020.895 9    495653.60148  20663477.622    20663486.2244
 00  4 11 16 46 30.0000000  0  6 09 08 02 26 04 07
  22547137.874    -2428261.595 8  -1858566.29646  22547137.142    22547147.6254
  23722237.444     4512632.923 8   3502754.28945  23722236.267    23722253.2744
  21622293.658      783828.401 9    606809.45547  21622292.538    21622302.5634
  23089113.222      792781.279 8    608144.05546  23089112.840    23089124.4554
  22169939.336    -2636807.756 8  -2036523.17746  22169939.041    22169951.7704
  20669240.291      672297.826 9    519245.97048  20669239.163    20669247.7874
 00  4 11 16 47  0.0000000  0  6 09 08 02 26 04 07
  22531477.444    -2510557.696 8  -1922693.09046  22531476.703    22531487.1954
  23742848.923     4620945.949 8   3587153.65745  23742847.808    23742864.8394
  21627796.107      812743.259 9    629340.44247  21627794.979    21627804.9684
  23100625.888      853280.170 8    655285.85846  23100625.489    23100637.1754
  22152424.604    -2728847.786 8  -2108242.53346  22152424.286    22152437.0524
  20675069.114      702928.440 9    543113.93148  20675068.008    20675076.6514
 00  4 11 16 47 30.0000000  0  6 09 08 02 26 04 07
  22515876.977    -2592538.800 8  -1986574.41746  22515876.253    22515886.7504
  23763496.110     4729446.855 8   3671699.41145  23763495.054    23763512.1314
  21633331.077      841829.442 9    652004.92847  21633329.987    21633340.0134
  23112198.790      914095.059 8    702673.89346  23112198.328    23112210.1064
  22134966.018    -2820593.235 8  -2179732.35246  22134965.632    22134978.3584
  20680961.786      733894.395 9    567243.19448  20680960.659    20680969.3104
 00  4 11 16 48  0.0000000  0  6 09 08 02 26 04 07
  22500332.577    -2674225.175 8  -2050226.08946  22500331.864    22500342.3824
  23784178.851     4838134.230 8   3756390.48245  23784177.776    23784194.8274
  21638898.713      871087.130 9    674803.05647  21638897.603    21638907.6104
  23123830.866      975221.565 8    750304.74546  23123830.446    23123842.2404
  22117562.759    -2912047.361 8  -2250995.17146  22117562.370    22117575.0884
  20686916.430      765186.005 9    591626.22248  20686915.306    20686923.9724
 00  4 11 16 48 30.0000000  0  6 09 08 02 26 04 07
  22484843.920    -2755618.414 8  -2113649.34146  22484843.177    22484853.7544
  23804895.820     4947001.104 8   3841221.40545  23804894.773    23804911.7774
  21644499.206      900517.602 9    697735.81147  21644498.125    21644508.0914
  23135523.965     1036668.998 8    798185.65546  23135523.540    23135535.4244
  22100216.991    -3003199.395 8  -2322022.61746  22100216.619    22100229.3354
  20692931.776      796796.449 9    616257.68748  20692930.652    20692939.2674
 00  4 11 16 49  0.0000000  0  6 09 08 02 26 04 07
  22469410.973    -2836718.507 8  -2176844.16646  22469410.281    22469420.8704
  23825644.178     5056032.421 8   3926180.48745  23825643.110    23825660.0544
  21650134.343      930129.837 9    720810.19647  21650133.254    21650143.1674
  23147275.861     1098425.485 8    846307.39946  23147275.455    23147287.4884
  22082927.550    -3094055.044 8  -2392819.10546  22082927.208    22082939.9774
  20699005.154      828712.186 9    641127.04748  20699004.008    20699012.6404
 00  4 11 16 49 30.0000000  0  6 09 08 02 26 04 07
  22454032.961    -2917530.337 8  -2239814.39346  22454032.297    22454042.8774
  23846420.205     5165209.266 8   4011252.94145  23846419.107    23846436.2264
  21655805.644      959932.175 9    744032.71347  21655804.548    21655814.4574
  23159082.304     1160468.887 8    894652.72246  23159081.931    23159094.2434
  22065691.768    -3184629.222 8  -2463396.27146  22065691.450    22065704.1704
  20705136.637      860933.556 9    666234.55648  20705135.523    20705144.2024
 00  4 11 16 50  0.0000000  0  6 09 08 02 26 04 07
  22438711.711    -2998043.673 8  -2302552.00746  22438711.034    22438721.6814
  23867220.915     5274516.099 8   4096426.68845  23867219.747    23867237.0494
  21661513.769      989928.165 9    767406.13047  21661512.677    21661522.6014
  23170945.035     1222807.904 8    943228.38946  23170944.688    23170957.2554
  22048507.641    -3274931.901 8  -2533761.87946  22048507.356    22048519.9654
  20711326.668      893462.338 9    691581.60848  20711325.558    20711334.2594
 00  4 11 16 50 30.0000000  0  6 09 08 02 26 04 07
  22423450.887    -3078239.528 8  -2365042.23446  22423450.229    22423460.8824
  23888045.824     5383949.912 8   4181699.36745  23888044.690    23888062.1964
  21667257.763     1020112.462 9    790926.27747  21667256.670    21667266.5934
  23182861.901     1285430.547 8    992025.06346  23182861.578    23182874.2394
  22031373.835    -3364970.216 8  -2603921.49246  22031373.567    22031386.0834
  20717575.114      926297.662 9    717167.52548  20717574.002    20717582.7124
 00  4 11 16 51  0.0000000  0  6 09 08 02 26 04 07
  22408248.806    -3158126.632 8  -2427291.88246  22408248.193    22408258.8084
  23908894.400     5493507.618 8   4267068.56745  23908893.237    23908910.8534
  21673036.046     1050477.050 9    814586.90747  21673034.930    21673044.8744
  23194831.292     1348328.590 8   1041036.32446  23194830.933    23194843.6254
  22014288.155    -3454755.789 8  -2673884.16646  22014287.886    22014300.3234
  20723878.157      959419.789 9    742976.92448  20723877.038    20723885.7774
 00  4 11 16 51 30.0000000  0  6 09 08 02 26 04 07
  22393103.152    -3237717.682 8  -2489310.84546  22393102.518    22393113.0474
  23929764.840     5603180.285 8   4352527.34345  23929763.679    23929781.2964
  21678846.837     1081012.810 9    838380.91947  21678845.757    21678855.7284
  23206853.599     1411504.255 8   1090263.91046  23206853.179    23206865.8444
  21997249.410    -3544295.089 8  -2743654.93046  21997249.102    21997261.4584
  20730234.069      992819.980 9    769002.99748  20730232.958    20730241.7184
 00  4 11 16 52  0.0000000  0  6 09 08 02 26 04 07
  22378012.641    -3317018.459 8  -2551103.61546  22378012.005    22378022.5194
  23950658.434     5712974.647 8   4438080.91945  23950657.263    23950674.9934
  21684689.352     1111714.867 9    862304.50747  21684688.262    21684698.2274
  23218929.043     1474959.537 8   1139709.39146  23218928.620    23218941.2564
  21980259.154    -3633579.073 8  -2813226.75146  21980258.814    21980271.1454
  20736644.300     1026505.751 9    795251.59748  20736643.180    20736651.9204
 00  4 11 16 52 30.0000000  0  6 09 08 02 26 04 07
  22362976.312    -3396034.394 8  -2612674.42446  22362975.655    22362986.2344
  23971574.979     5822889.822 8   4523728.63045  23971573.824    23971591.5534
  21690568.530     1142609.654 9    886378.27547  21690567.412    21690577.3904
  23231057.847     1538695.336 8   1189373.45146  23231057.393    23231070.0224
  21963321.659    -3722585.641 8  -2882582.40346  21963321.310    21963333.6134
  20743111.749     1060491.998 9    821734.34148  20743110.643    20743119.3634
 00  4 11 16 53  0.0000000  0  6 09 08 02 26 04 07
  22347995.177    -3474760.215 8  -2674019.17446  22347994.545    22348005.1544
  23992514.432     5932925.207 8   4609470.01445  23992513.278    23992530.9124
  21696488.489     1173719.004 9    910619.23147  21696487.394    21696497.3844
  23243243.361     1602729.492 8   1239270.00546  23243242.927    23243255.5864
  21946445.475    -3811269.675 8  -2951686.73446  21946445.173    21946457.4304
  20749640.106     1094798.582 9    848466.69648  20749639.014    20749647.7094
 00  4 11 16 53 30.0000000  0  6 09 08 02 26 04 07
  22333074.572    -3553168.354 8  -2735116.38346  22333073.955    22333084.4804
  24013480.416     6043100.280 8   4695320.25345  24013479.264    24013496.9704
  21702452.970     1205062.149 9    935042.37047  21702451.875    21702461.8654
  23255485.737     1667062.367 8   1289399.32046  23255485.282    23255497.9774
  21929639.648    -3899584.300 8  -3020503.20946  21929639.357    21929651.5504
  20756236.461     1129462.048 9    875477.14048  20756235.347    20756244.0084
 00  4 11 16 54  0.0000000  0  6 09 08 02 26 04 07
  22318220.841    -3631225.431 8  -2795940.04446  22318220.178    22318230.6364
  24034477.376     6153438.216 8   4781297.39745  24034476.268    24034494.0304
  21708465.634     1236658.369 9    959662.71347  21708464.532    21708474.5044
  23267786.814     1731703.826 8   1339769.08346  23267786.356    23267799.0454
  21912911.741    -3987489.766 8  -3089000.85346  21912911.437    21912923.5814
  20762905.687     1164508.897 9    902786.33048  20762904.580    20762913.2484
 00  4 11 16 54 30.0000000  0  6 09 08 02 26 04 07
  22303438.873    -3708905.342 8  -2856469.80346  22303438.181    22303448.5914
  24055506.485     6263945.641 8   4867406.58545  24055505.439    24055523.3154
  21714527.968     1268515.852 9    984486.63847  21714526.846    21714536.8704
  23280148.037     1796661.692 8   1390385.39846  23280147.600    23280160.3244
  21896262.973    -4074979.451 8  -3157174.51946  21896262.683    21896274.7434
  20769645.950     1199929.048 9    930386.40048  20769644.854    20769653.5834
 00  4 11 16 55  0.0000000  0  6 09 08 02 26 04 07
  22288728.227    -3786210.052 8  -2916707.19146  22288727.575    22288737.9434
  24076571.456     6374641.445 8   4953662.56645  24076570.446    24076588.4044
  21720636.327     1300615.768 9   1009499.47347  21720635.237    21720645.3274
  23292566.794     1861921.843 8   1441237.26246  23292566.362    23292579.1014
  21879690.569    -4162068.249 9  -3225035.80047  21879690.266    21879702.2904
  20776453.985     1235705.554 9    958264.14848  20776452.871    20776461.6534
 00  4 11 16 55 30.0000000  0  6 09 08 02 26 04 07
  22274087.282    -3863148.837 8  -2976659.44546  22274086.610    22274096.9264
  24097671.302     6485520.408 8   5040061.25945  24097670.339    24097688.4574
  21726787.321     1332939.583 8   1034686.77247  21726786.239    21726796.4334
  23305039.094     1927463.322 8   1492308.33546  23305038.707    23305051.4814
  21863184.921    -4248805.899 8  -3292623.45947  21863184.572    21863196.5984
  20783325.599     1271815.846 9    986401.98648  20783324.504    20783333.2774
 00  4 11 16 56  0.0000000  0  6 09 08 02 26 04 07
  22259513.081    -3939737.069 8  -3036338.53946  22259512.410    22259522.6384
  24118800.168     6596551.345 8   5126578.36545  24118799.053    24118817.5024
  21732977.664     1365469.967 8   1060035.03147  21732976.563    21732986.8694
  23317563.325     1993277.585 8   1543591.95946  23317562.917    23317575.7574
  21846736.196    -4335244.308 8  -3359977.93847  21846735.820    21846747.8484
  20790253.596     1308222.123 9   1014770.46848  20790252.488    20790261.2024
 00  4 11 16 56 30.0000000  0  6 09 08 02 26 04 07
  22245000.590    -4016000.934 8  -3095764.87647  22244999.917    22245010.0924
  24139951.358     6707699.666 8   5213186.90145  24139950.250    24139968.8794
  21739201.943     1398178.473 8   1085522.09347  21739200.854    21739211.2634
  23330135.065     2059341.810 8   1595070.36346  23330134.694    23330147.5634
  21830338.838    -4421412.731 9  -3427122.04147  21830338.441    21830350.4954
  20797231.246     1344889.630 9   1043342.50548  20797230.147    20797238.8154
 00  4 11 16 57  0.0000000  0  6 09 08 02 26 04 07
  22230547.230    -4091954.209 8  -3154949.19747  22230546.593    22230556.6434
  24161121.786     6818948.334 8   5299873.58945  24161120.583    24161139.3474
  21745457.882     1431053.119 9   1111138.60947  21745456.803    21745467.1904
  23342751.685     2125642.542 8   1646733.05446  23342751.300    23342764.2994
  21813994.258    -4507303.601 8  -3494049.87347  21813993.897    21814005.9564
  20804258.818     1381819.484 9   1072118.96448  20804257.722    20804266.3994
 00  4 11 16 57 30.0000000  0  6 09 08 02 26 04 07
  22216156.255    -4167579.462 8  -3213877.91447  22216155.615    22216165.5604
  24182307.415     6930276.783 8   5386622.48345  24182306.256    24182325.0434
  21751746.376     1464098.551 9   1136888.22047  21751745.270    21751755.6424
  23355415.590     2192191.312 8   1698589.02546  23355415.252    23355428.2644
  21797707.460    -4592890.598 8  -3560740.91447  21797707.112    21797719.1984
  20811338.078     1419021.104 9   1101107.19748  20811336.971    20811345.7324
 00  4 11 16 58  0.0000000  0  6 09 08 02 26 04 07
  22201831.442    -4242856.719 8  -3272535.47347  22201830.812    22201840.6954
  24203507.708     7041683.103 8   5473432.08245  24203506.680    24203525.5624
  21758070.152     1497329.866 9   1162782.67347  21758069.062    21758079.4304
  23368129.025     2258999.578 8   1750647.19046  23368128.630    23368141.6974
  21781487.885    -4678124.511 8  -3627156.82547  21781487.550    21781499.6474
  20818471.516     1456507.279 9   1130317.15448  20818470.393    20818479.2154
 00  4 11 16 58 30.0000000  0  7 09 08 02 26 04 24 07
  22187572.778    -4317786.194 8  -3330922.03047  22187572.124    22187582.0294
  24224724.750     7153177.457 8   5560310.31745  24224723.722    24224742.7164
  21764428.841     1530744.515 9   1188819.98547  21764427.770    21764438.1084
  23380890.908     2326062.445 8   1802903.74546  23380890.506    23380903.5594
  21765340.764    -4762977.441 8  -3693275.87547  21765340.429    21765352.5184
  24355629.973    -4256890.732 7  -3305975.56145  24355629.129    24355651.0934
  20825660.469     1494285.388 9   1159754.59948  20825659.366    20825668.2514
 00  4 11 16 59  0.0000000  0  7 09 08 02 26 04 24 07
  22173385.335    -4392341.583 8  -3389017.09947  22173384.665    22173394.6064
  24245966.577     7264802.224 8   5647290.21345  24245965.627    24245984.7614
  21770830.525     1564384.511 9   1215032.88347  21770829.418    21770839.7394
  23393705.813     2393404.078 8   1855377.51246  23393705.355    23393718.4644
  21749270.076    -4847428.613 8  -3759081.87947  21749269.794    21749281.8894
  24334959.112    -4365516.173 7  -3390618.52945  24334958.150    24334980.1504
  20832910.146     1532382.533 9   1189440.63648  20832909.037    20832917.9534
 00  4 11 16 59 30.0000000  0  7 09 08 02 26 04 24 07
  22159271.845    -4466508.423 8  -3446809.39447  22159271.196    22159281.1274
  24267235.786     7376571.158 7   5734382.44045  24267234.892    24267254.1994
  21777277.181     1598261.428 9   1241430.40347  21777276.105    21777286.4374
  23406575.736     2461034.933 8   1908076.65446  23406575.235    23406588.4104
  21733274.458    -4931485.498 8  -3824580.63047  21733274.178    21733286.2514
  24314290.772    -4474127.837 7  -3475250.76645  24314289.778    24314311.8574
  20840220.201     1570797.427 9   1219374.27548  20840219.077    20840228.0394
 00  4 11 17  0  0.0000000  0  7 09 08 02 26 04 24 07
  22145228.523    -4540306.447 8  -3504314.31047  22145227.868    22145237.7644
  24288532.998     7488487.541 7   5821589.51245  24288532.009    24288551.6434
  21783768.102     1632371.208 9   1268009.36747  21783767.042    21783777.4064
  23419495.383     2528927.390 8   1960979.63846  23419494.881    23419508.2104
  21717348.109    -5015178.957 9  -3889796.19147  21717347.783    21717359.7864
  24293618.370    -4582760.980 7  -3559899.71545  24293617.399    24293639.5514
  20847586.675     1609508.741 9   1249538.89048  20847585.587    20847594.5674
 00  4 11 17  0 30.0000000  0  7 09 08 02 26 04 24 07
  22131249.630    -4613765.833 8  -3561555.35047  22131248.995    22131258.8724
  24309858.060     7600551.092 7   5908911.23745  24309857.117    24309877.1134
  21790300.932     1666700.859 9   1294759.66047  21790299.859    21790310.2364
  23432459.179     2597051.816 8   2014063.35646  23432458.666    23432472.1594
  21701483.654    -5098547.294 9  -3954758.40147  21701483.276    21701495.1734
  24272937.291    -4691440.191 7  -3644584.57545  24272936.406    24272958.4154
  20855004.349     1648488.731 9   1279912.85647  20855003.271    20855012.2454
 00  4 11 17  1  0.0000000  0  7 09 08 02 26 04 24 07
  22117330.383    -4686911.791 8  -3618552.16347  22117329.741    22117339.6524
  24331203.225     7712720.502 7   5996315.42245  24331202.259    24331222.6414
  21796872.583     1701234.785 9   1321669.12947  21796871.530    21796881.8864
  23445461.866     2665381.011 8   2067306.63346  23445461.434    23445474.9994
  21685674.141    -5181626.505 9  -4019495.31447  21685673.761    21685685.5884
  24252243.746    -4800184.440 8  -3729320.09745  24252242.832    24252264.7924
  20862469.257     1687716.437 9   1310479.85047  20862468.174    20862477.1254
 00  4 11 17  1 30.0000000  0  7 09 08 02 26 04 24 07
  22103471.125    -4759742.425 8  -3675303.26547  22103470.456    22103480.4474
  24352561.874     7824960.334 7   6083774.50145  24352561.032    24352581.8224
  21803480.478     1735958.797 9   1348726.72147  21803479.405    21803489.7234
  23458501.191     2733902.179 8   2120699.50746  23458500.808    23458514.3974
  21669920.518    -5264411.897 9  -4084003.26947  21669920.167    21669931.9204
  24231538.302    -4908990.624 8  -3814103.87145  24231537.516    24231559.3934
  20869981.252     1727191.508 9   1341239.60347  20869980.143    20869989.0864
 00  4 11 17  2  0.0000000  0  7 09 08 02 26 04 24 07
  22089672.922    -4832252.145 8  -3731804.30847  22089672.268    22089682.3484
  24373933.215     7937266.184 7   6171285.03745  24373932.307    24373953.3894
  21810126.267     1770881.828 9   1375939.38947  21810125.164    21810135.4394
  23471575.919     2802609.775 8   2174237.64446  23471575.566    23471589.3184
  21654226.909    -5346882.151 9  -4148265.67647  21654226.571    21654238.2604
  24210823.233    -5017847.490 8  -3898927.12045  24210822.637    24210844.3474
  20877541.611     1766920.948 9   1372197.55847  20877540.479    20877549.4334
 00  4 11 17  2 30.0000000  0  7 09 08 02 26 04 24 07
  22075937.668    -4904431.567 8  -3788047.97647  22075937.007    22075947.1614
  24395314.563     8049623.684 7   6258835.78845  24395313.575    24395334.9214
  21816810.662     1806008.319 9   1403310.59647  21816809.607    21816819.8644
  23484689.496     2871521.657 8   2227934.97046  23484689.168    23484703.0214
  21638597.879    -5429013.019 9  -4212263.61847  21638597.521    21638609.1434
  24190105.420    -5126718.931 8  -3983761.72145  24190104.789    24190126.6364
  20885152.224     1806914.766 9   1403361.52347  20885151.121    20885160.1154
 00  4 11 17  3  0.0000000  0  7 09 08 02 26 04 24 07
  22062270.181    -4976254.702 8  -3844014.01347  22062269.479    22062279.7044
  24416705.700     8162031.553 7   6346425.79145  24416704.866    24416725.9324
  21823535.620     1841347.608 9   1430847.61747  21823534.561    21823544.7854
  23497846.854     2940663.218 8   2281811.26046  23497846.549    23497860.4414
  21623039.410    -5510772.905 9  -4275972.49647  21623039.042    21623050.7014
  24169390.081    -5235577.346 8  -4068586.14345  24169389.550    24169411.3524
  20892815.418     1847185.058 9   1434740.92047  20892814.345    20892823.3874
 00  4 11 17  3 30.0000000  0  7 09 08 02 26 04 24 07
  22048675.648    -5047694.594 8  -3899681.42247  22048674.950    22048685.1244
  24438111.263     8274514.804 7   6434074.52645  24438110.307    24438131.2294
  21830301.132     1876900.036 9   1458550.71747  21830300.018    21830310.2154
  23511049.142     3010040.955 8   2335871.58646  23511048.869    23511062.8354
  21607556.661    -5592134.484 9  -4339370.99647  21607556.320    21607568.0144
  24148679.924    -5344408.768 8  -4153389.54245  24148679.478    24148701.0704
  20900530.820     1887729.221 9   1466333.72447  20900529.734    20900538.7794
 00  4 11 17  4  0.0000000  0  7 09 08 02 26 04 24 07
  22035154.078    -5118751.187 8  -3955050.15847  22035153.381    22035163.4554
  24459534.226     8387089.649 7   6521794.61145  24459533.276    24459553.9904
  21837107.322     1912666.549 9   1486420.63247  21837106.256    21837116.4424
  23524297.526     3079660.453 8   2390120.28446  23524297.207    23524311.2194
  21592150.866    -5673091.771 9  -4402454.46347  21592150.546    21592162.2964
  24127975.606    -5453209.729 8  -4238169.17145  24127975.101    24127996.7724
  20908297.824     1928544.606 9   1498137.86347  20908296.727    20908305.7554
 00  4 11 17  4 30.0000000  0  7 09 08 02 26 04 24 07
  22021706.574    -5189418.301 8  -4010115.39947  22021705.900    22021715.9534
  24480976.895     8499768.334 8   6609595.62645  24480975.852    24480996.6274
  21843952.348     1948637.060 9   1514449.50747  21843951.267    21843961.5124
  23537593.014     3149527.439 8   2444561.82846  23537592.673    23537606.6804
  21576821.713    -5753646.629 9  -4465224.35847  21576821.368    21576833.0964
  24107276.900    -5561981.673 8  -4322926.20745  24107276.370    24107298.0514
  20916116.871     1969633.735 9   1530155.30947  20916115.755    20916124.8034
 00  4 11 17  5  0.0000000  0  7 09 08 02 26 04 24 07
  22008335.266    -5259685.060 9  -4064868.67447  22008334.557    22008344.5774
  24502441.686     8612563.233 8   6697487.18145  24502440.672    24502461.3654
  21850835.041     1984805.465 9   1542632.58647  21850833.962    21850844.2894
  23550933.351     3219629.947 8   2499186.89946  23550932.958    23550946.9544
  21561568.842    -5833800.740 9  -4527681.97547  21561568.467    21561580.1394
  24086581.889    -5670734.348 7  -4407668.21945  24086581.287    24086602.8824
  20923989.243     2011003.513 9   1562391.44247  20923988.154    20923997.1994
 00  4 11 17  5 30.0000000  0  7 09 08 02 26 04 24 07
  21995039.889    -5329552.258 8  -4119310.59947  21995039.182    21995049.2054
  24523928.908     8725476.188 8   6785470.72645  24523927.917    24523948.6914
  21857756.951     2021180.080 9   1570976.34447  21857755.880    21857766.2844
  23564316.031     3289955.405 8   2553985.69546  23564315.623    23564329.7514
  21546391.492    -5913557.762 9  -4589830.17447  21546391.134    21546402.7124
  24065888.622    -5779477.970 8  -4492403.17545  24065887.983    24065909.4544
  20931917.115     2052664.428 9   1594854.44147  20931916.016    20931925.0594
 00  4 11 17  6  0.0000000  0  6 09 02 26 04 24 07
  21981817.204    -5399037.269 8  -4173454.72047  21981816.535    21981826.5644
  21864720.162     2057771.626 9   1599489.13447  21864719.060    21864729.5124
  23577739.529     3360495.842 8   2608951.99546  23577739.191    23577753.4484
  21531288.769    -5992922.589 9  -4651672.76847  21531288.419    21531299.9384
  24045195.434    -5888220.704 8  -4577137.45645  24045194.748    24045216.1804
  20939899.066     2094609.191 9   1627538.62547  20939897.960    20939906.9714
 00  4 11 17  6 30.0000000  0  6 09 02 26 04 24 07
  21968670.741    -5468121.963 8  -4227286.90947  21968670.106    21968680.1244
  21871729.064     2094603.285 9   1628189.02547  21871727.968    21871738.4814
  23591206.695     3431265.575 8   2664096.97346  23591206.377    23591220.7834
  21516265.267    -6071871.240 9  -4713191.06947  21516264.940    21516276.4004
  24024507.761    -5996934.145 8  -4661848.93645  24024507.030    24024528.4364
  20947935.591     2136840.931 9   1660446.41847  20947934.477    20947943.4824
 00  4 11 17  7  0.0000000  0  6 09 02 26 04 24 07
  21955598.245    -5536818.309 8  -4280816.48847  21955597.596    21955607.6364
  21878784.664     2131680.375 9   1657080.16347  21878783.573    21878794.1234
  23604714.674     3502249.657 8   2719408.97646  23604714.396    23604728.9324
  21501318.717    -6150415.695 9  -4774394.40547  21501318.377    21501329.7604
  24003824.817    -6105622.515 8  -4746540.87745  24003824.020    24003845.3414
  20956021.692     2179333.700 9   1693557.61847  20956020.569    20956029.6174
 00  4 11 17  7 30.0000000  0  6 09 02 26 04 24 07
  21942594.472    -5605153.463 8  -4334064.61647  21942593.818    21942603.8874
  21885881.609     2168974.700 9   1686140.56347  21885880.550    21885891.0874
  23618258.013     3573419.208 8   2774865.49046  23618257.710    23618272.3984
  21486443.595    -6228584.796 9  -4835305.26847  21486443.215    21486454.5674
  23983141.435    -6214312.542 8  -4831234.13745  23983140.628    23983161.9254
  20964149.636     2222046.177 9   1726840.01247  20964148.542    20964157.6054
 00  4 11 17  8  0.0000000  0  6 09 02 26 04 24 07
  21929658.290    -5673133.270 8  -4387035.85147  21929657.654    21929667.7484
  21893014.245     2206456.326 9   1715346.92647  21893013.172    21893023.6664
  23631835.101     3644765.856 8   2830459.98646  23631834.761    23631849.5994
  21471637.498    -6306391.003 9  -4895933.34947  21471637.115    21471648.4964
  23962457.283    -6323007.246 8  -4915931.04645  23962456.528    23962477.5384
  20972316.308     2264962.078 9   1760280.92747  20972315.218    20972324.2424
 00  4 11 17  8 30.0000000  0  6 09 02 26 04 24 07
  21916791.511    -5740748.447 8  -4439722.96147  21916790.901    21916800.9504
  21900180.346     2244113.725 9   1744690.25047  21900179.251    21900189.7044
  23645444.566     3716282.577 8   2886187.01946  23645444.219    23645459.1414
  21456898.420    -6383844.731 9  -4956286.77647  21456898.019    21456909.4284
  23941773.353    -6431701.213 8  -5000627.37445  23941772.476    23941793.3924
  20980525.490     2308100.989 9   1793895.61347  20980524.385    20980533.3934
 00  4 11 17  9  0.0000000  0  6 09 02 26 04 24 07
  21903998.350    -5807977.169 9  -4492108.94247  21903997.688    21904007.6944
  21907381.441     2281955.343 9   1774177.12147  21907380.356    21907390.7744
  23659086.553     3787970.074 8   2942047.12146  23659086.245    23659101.2014
  21442228.370    -6460935.809 9  -5016357.62447  21442227.965    21442239.3684
  23921088.585    -6540399.381 8  -5085326.98445  23921087.706    23921108.3414
  20988782.607     2351492.277 9   1827706.95647  20988781.519    20988790.5294
 00  4 11 17  9 30.0000000  0  6 09 02 26 04 24 07
  21891284.223    -5874790.048 8  -4544170.88947  21891283.560    21891293.5374
  21914622.665     2320007.624 8   1803828.14347  21914621.593    21914632.0054
  23672765.460     3859851.638 8   2998058.43446  23672765.155    23672780.1664
  21427635.292    -6537622.320 9  -5076113.22347  21427634.907    21427646.2814
  23900409.365    -6649067.834 8  -5170003.42145  23900408.603    23900428.9784
  20997097.257     2395185.573 9   1861753.62447  20997096.133    20997105.1924
 00  4 11 17 10  0.0000000  0  6 09 02 26 04 24 07
  21878652.232    -5941171.281 8  -4595896.48247  21878651.585    21878661.6244
  21921910.643     2358305.927 8   1833670.86447  21921909.558    21921920.0204
  23686485.206     3931948.192 8   3054237.28346  23686484.897    23686499.9524
  21413124.728    -6613875.439 9  -5135531.12247  21413124.382    21413135.6974
  23879741.735    -6757675.765 8  -5254632.68945  23879740.970    23879761.2664
  21005472.241     2439196.539 9   1896047.83047  21005471.135    21005480.2774
 00  4 11 17 10 30.0000000  0  6 09 02 26 04 24 07
  21866100.013    -6007133.350 8  -4647295.45747  21866099.365    21866109.4474
  21929248.327     2396865.658 8   1863717.29547  21929247.228    21929257.8254
  23700243.440     4004247.007 8   3110573.72446  23700243.152    23700258.2564
  21398698.050    -6689687.895 9  -5194605.64747  21398697.720    21398708.9554
  23859084.475    -6866229.547 8  -5339219.74045  23859083.711    23859103.9744
  21013905.958     2483516.297 9   1930582.65147  21013904.886    21013914.1104
 00  4 11 17 11  0.0000000  0  6 09 02 26 04 24 07
  21853626.086    -6072683.987 8  -4698373.83947  21853625.450    21853635.4954
  21936635.184     2435683.583 8   1893964.91847  21936634.074    21936644.7344
  23714040.564     4076749.759 8   3167069.08346  23714040.261    23714055.3774
  21384356.803    -6765051.270 9  -5253330.24347  21384356.488    21384367.6594
  23838436.798    -6974732.736 8  -5423767.34845  23838436.064    23838456.3424
  21022392.961     2528115.399 9   1965335.14647  21022391.891    21022401.1344
 00  4 11 17 11 30.0000000  0  6 09 02 26 04 24 07
  21841228.374    -6137834.513 9  -4749140.44747  21841227.743    21841237.7124
  21944069.387     2474750.482 8   1924406.55247  21944068.318    21944079.0524
  23727875.492     4149450.709 8   3223718.88146  23727875.123    23727890.1804
  21370100.895    -6839966.060 9  -5311705.29447  21370100.597    21370111.7404
  23817800.905    -7083173.607 8  -5508266.36845  23817800.121    23817820.4294
  21030928.913     2572971.653 9   2000288.02247  21030927.831    21030937.0094
 00  4 11 17 12  0.0000000  0  6 09 02 26 04 24 07
  21828906.269    -6202587.641 9  -4799597.38847  21828905.623    21828915.5884
  21951547.865     2514049.492 8   1955029.04947  21951546.780    21951557.5914
  23741745.334     4222335.175 8   3280511.67146  23741744.891    23741759.8764
  21355929.848    -6914435.054 9  -5369732.97447  21355929.528    21355940.6504
  23797174.581    -7191564.333 8  -5592726.32145  23797173.770    23797194.2114
  21039509.264     2618061.157 9   2035422.65247  21039508.191    21039517.2884
 00  4 11 17 12 30.0000000  0  6 09 02 26 04 24 07
  21816663.050    -6266926.691 9  -4849731.66847  21816662.379    21816672.3014
  21959070.248     2553578.987 8   1985831.14647  21959069.133    21959079.9694
  23755649.967     4295403.197 8   3337447.50246  23755649.556    23755664.3734
  21341845.459    -6988448.535 9  -5427405.71247  21341845.138    21341856.2764
  23776557.331    -7299906.912 7  -5677148.72545  23776556.652    23776577.1714
  21048136.537     2663397.772 9   2070749.83647  21048135.449    21048144.5534
 00  4 11 17 13  0.0000000  0  6 09 02 26 04 24 07
  21804503.882    -6330823.953 9  -4899521.70447  21804503.196    21804513.0544
  21966637.059     2593342.333 8   2016815.46447  21966635.944    21966646.7854
  23769592.642     4368671.656 8   3394539.50945  23769592.304    23769607.1444
  21327851.459    -7061986.902 9  -5484708.24347  21327851.146    21327862.3184
  23755953.929    -7408176.192 7  -5761514.01645  23755953.307    23755974.0554
  21056812.325     2708989.436 9   2106275.75447  21056811.253    21056820.4024
 00  4 11 17 13 30.0000000  0  6 09 02 26 04 24 07
  21792431.398    -6394265.072 9  -4948956.29947  21792430.694    21792440.5084
  21974250.877     2633352.717 8   2047992.27047  21974249.793    21974260.6734
  23783573.390     4442140.363 8   3451787.56945  23783573.065    23783588.0364
  21313950.533    -7135035.974 9  -5541629.51047  21313950.269    21313961.4344
  23735369.513    -7516346.075 7  -5845801.84045  23735368.817    23735389.8294
  21065539.576     2754851.393 9   2142012.29247  21065538.521    21065547.7074
 00  4 11 17 14  0.0000000  0  6 09 02 26 04 24 07
  21780445.471    -6457251.188 9  -4998036.34747  21780444.782    21780454.6194
  21981913.005     2673616.682 9   2079366.67047  21981911.899    21981922.7974
  23797592.395     4515810.001 8   3509192.17145  23797592.109    23797607.2214
  21300141.046    -7207604.798 9  -5598176.56147  21300140.799    21300151.9364
  23714803.069    -7624421.463 7  -5930016.03645  23714802.374    23714823.5374
  21074320.892     2800997.104 9   2177969.93547  21074319.822    21074329.0324
 00  4 11 17 14 30.0000000  0  6 09 02 26 04 24 07
  21768545.744    -6519784.565 9  -5046763.60847  21768545.070    21768554.9184
  21989622.156     2714127.603 8   2110933.50847  21989621.022    21989631.9194
  23811649.363     4589679.041 8   3566752.15445  23811649.128    23811664.2994
  21286419.512    -7279712.144 9  -5654364.01347  21286419.239    21286430.2924
  23694256.443    -7732393.016 8  -6014149.31245  23694255.799    23694276.9264
  21083154.001     2847414.846 9   2214139.55547  21083152.917    21083162.1654
 00  4 11 17 15  0.0000000  0  7 09 05 02 26 04 24 07
  21756729.792    -6581877.955 9  -5095148.02547  21756729.110    21756738.9394
  24577905.812    -4608996.927 7  -3570277.58945  24577904.661    24577919.6224
  21997373.487     2754860.865 8   2142673.59347  21997372.356    21997383.3424
  23825738.538     4663716.936 8   3624443.70545  23825738.274    23825753.4734
  21272780.954    -7351383.502 9  -5710211.74247  21272780.630    21272791.6134
  23673728.377    -7840267.406 8  -6098206.88945  23673727.740    23673748.7964
  21092034.143     2894079.837 9   2250501.83647  21092033.069    21092042.3544
 00  4 11 17 15 30.0000000  0  7 09 05 02 26 04 24 07
  21744993.926    -6643549.993 9  -5143204.12547  21744993.264    21745003.0504
  24562161.192    -4691734.219 7  -3634748.11845  24562160.260    24562175.0264
  22005163.251     2795795.947 9   2174570.93947  22005162.143    22005173.1734
  23839852.741     4737886.151 8   3682237.58945  23839852.473    23839867.7424
  21259217.255    -7422661.077 9  -5765752.63547  21259216.920    21259227.8284
  23653211.636    -7948082.688 8  -6182218.40545  23653211.063    23653231.8604
  21100956.897     2940968.848 9   2287038.67247  21100955.812    21100965.1094
 00  4 11 17 16  0.0000000  0  7 09 05 02 26 04 24 07
  21733340.438    -6704789.115 9  -5190922.88547  21733339.802    21733349.6064
  24546409.394    -4774510.146 7  -3699248.72945  24546408.584    24546423.3184
  22012992.087     2836936.316 9   2206628.25547  22012990.993    22013002.0684
  23853992.873     4812191.794 8   3740137.76745  23853992.574    23854007.9074
  21245729.066    -7493542.147 9  -5820984.55847  21245728.728    21245739.5804
  23632704.540    -8055847.533 8  -6266190.63945  23632703.979    23632724.5314
  21109922.277     2988082.067 9   2323750.22347  21109921.205    21109930.4784
 00  4 11 17 16 30.0000000  0  7 09 05 02 26 04 24 07
  21721771.004    -6765586.834 9  -5238297.69447  21721770.381    21721780.2034
  24530653.151    -4857310.052 7  -3763768.03145  24530652.273    24530667.0104
  22020861.235     2878288.269 9   2238850.44047  22020860.136    22020871.2334
  23868157.563     4886626.394 8   3798138.43945  23868157.209    23868172.6274
  21232319.907    -7564007.621 9  -5875892.63547  21232319.551    21232330.3774
  23612208.641    -8163553.986 8  -6350117.38545  23612207.969    23612228.3204
  21118928.019     3035406.982 9   2360626.72947  21118926.911    21118936.1464
 00  4 11 17 17  0.0000000  0  7 09 05 02 26 04 24 07
  21710282.832    -6825957.438 9  -5285339.68547  21710282.204    21710292.1124
  24514893.902    -4940125.520 7  -3828299.43345  24514892.963    24514907.7024
  22028772.894     2919863.596 9   2271246.68447  22028771.788    22028782.8794
  23882344.202     4961176.523 8   3856229.13045  23882343.877    23882359.2554
  21218990.161    -7634055.702 9  -5930475.47847  21218989.789    21219000.5664
  23591719.886    -8271222.404 8  -6434014.49645  23591719.143    23591739.2964
  21127973.466     3082940.697 9   2397665.92547  21127972.349    21127981.5944
 00  4 11 17 17 30.0000000  0  7 09 05 02 26 04 24 07
  21698870.689    -6885928.281 9  -5332070.17647  21698870.085    21698880.0664
  24499130.109    -5022964.745 7  -3892849.33345  24499129.166    24499143.8114
  22036727.371     2961663.886 9   2303818.22647  22036726.251    22036737.3724
  23896552.651     5035841.345 8   3914409.18745  23896552.341    23896567.8134
  21205741.015    -7703679.879 9  -5984727.99447  21205740.691    21205751.3854
  23571236.790    -8378860.569 8  -6517888.06045  23571236.113    23571256.0554
  21137056.249     3130670.700 9   2434858.07447  21137055.131    21137064.3664
 00  4 11 17 18  0.0000000  0  7 09 05 02 26 04 24 07
  21687530.761    -6945520.043 9  -5378505.28047  21687530.165    21687540.1884
  24483360.031    -5105836.497 7  -3957424.59645  24483359.053    24483373.7604
  22044723.263     3003682.168 9   2336559.63247  22044722.186    22044733.3484
  23910780.627     5110608.683 8   3972669.13245  23910780.251    23910795.7844
  21192574.625    -7772869.423 9  -6038641.83947  21192574.286    21192584.9654
  23550762.162    -8486453.747 8  -6601726.59345  23550761.548    23550781.3494
  21146174.328     3178586.014 9   2472194.61747  21146173.219    21146182.4314
 00  4 11 17 18 30.0000000  0  7 09 05 02 26 04 24 07
  21676262.855    -7004733.303 9  -5424645.45047  21676262.256    21676272.2964
  24467581.028    -5188754.967 7  -4022036.26545  24467580.057    24467594.8704
  22052761.092     3045920.586 9   2369472.57847  22052760.012    22052771.2174
  23925028.091     5185478.000 8   4031008.55245  23925027.777    23925043.2874
  21179494.108    -7841607.670 9  -6092204.02647  21179493.762    21179504.4354
  23530296.932    -8593997.400 8  -6685526.55245  23530296.316    23530315.9794
  21155328.527     3226691.371 9   2509679.24847  21155327.412    21155336.6484
 00  4 11 17 19  0.0000000  0  7 09 05 02 26 04 24 07
  21665071.850    -7063542.463 9  -5470470.73647  21665071.233    21665081.2584
  24451792.359    -5271725.117 7  -4086688.20945  24451791.367    24451806.0124
  22060840.655     3088378.675 9   2402556.69447  22060839.578    22060850.8224
  23939297.991     5260464.713 8   4089439.43345  23939297.658    23939313.1384
  21166502.320    -7909879.581 9  -6145402.84047  21166501.986    21166512.6644
  23509844.195    -8701475.491 8  -6769275.44045  23509843.544    23509863.2004
  21164521.817     3275002.544 9   2547324.26047  21164520.727    21164530.0684
 00  4 11 17 19 30.0000000  0  7 09 05 02 26 04 24 07
  21653964.446    -7121912.274 9  -5515953.67347  21653963.823    21653973.8414
  24435995.724    -5354737.282 7  -4151372.89345  24435994.713    24436009.2594
  22068963.949     3131066.764 8   2435820.02447  22068962.925    22068974.1844
  23953594.245     5335589.999 8   4147978.30345  23953593.861    23953609.3354
  21153604.572    -7977657.743 9  -6198216.91947  21153604.225    21153614.8554
  23489410.392    -8808854.548 8  -6852947.16245  23489409.651    23489429.1934
  21173760.404     3323551.880 9   2585154.85047  21173759.341    21173768.7864
 00  4 11 17 20  0.0000000  0  7 09 05 02 26 04 24 07
  21642948.850    -7179799.832 9  -5561060.82547  21642948.189    21642958.1654
  24420194.133    -5437774.967 7  -4216077.44745  24420193.012    24420207.5874
  22077133.605     3173997.893 8   2469272.73447  22077132.549    22077143.8064
  23967922.036     5410881.078 8   4206646.36145  23967921.623    23967937.1424
  21140803.806    -8044926.012 9  -6250633.67347  21140803.466    21140814.0434
  23468998.771    -8916117.172 8  -6936528.18545  23468998.002    23469017.4594
  21183048.831     3372362.737 9   2623189.22147  21183047.761    21183057.2634
 00  4 11 17 20 30.0000000  0  7 09 05 02 26 04 24 07
  21632030.971    -7237173.741 9  -5605767.73747  21632030.317    21632040.2254
  24404392.390    -5520813.328 7  -4280782.51745  24404391.162    24404405.7664
  22085352.707     3217189.214 8   2502928.19047  22085351.669    22085362.9374
  23982288.226     5486374.424 8   4265472.00845  23982287.817    23982303.4124
  21128103.327    -8111667.140 9  -6302639.66647  21128102.979    21128113.5434
  23448610.055    -9023259.583 8  -7020015.53945  23448609.297    23448628.5664
  21192390.362     3421452.601 9   2661441.00147  21192389.274    21192398.7984
 00  4 11 17 21  0.0000000  0  7 09 05 02 26 04 24 07
  21621212.060    -7294027.735 9  -5650069.51947  21621211.407    21621221.2254
  24388594.441    -5603831.167 7  -4345471.62145  24388593.148    24388607.7354
  22093622.810     3260648.547 8   2536792.48247  22093621.794    22093633.1044
  23996693.293     5562072.036 8   4324456.82545  23996692.904    23996708.5324
  21115499.517    -8177900.388 9  -6354249.91947  21115499.154    21115509.7314
  23428247.168    -9130266.620 8  -7103397.42045  23428246.383    23428265.4924
  21201784.081     3470816.538 9   2699906.33447  21201783.001    21201792.5204
 00  4 11 17 21 30.0000000  0  7 09 05 02 26 04 24 07
  21610486.730    -7350389.868 9  -5693988.03147  21610486.112    21610495.8924
  24372799.949    -5686830.782 7  -4410146.51545  24372798.603    24372813.3984
  22101942.610     3304368.651 8   2570859.96646  22101941.544    22101952.8864
  24011131.935     5637946.470 8   4383579.43245  24011131.499    24011147.2974
  21102985.808    -8243660.407 9  -6405491.42347  21102985.417    21102995.9854
  23407906.675    -9237156.223 8  -7186687.78145  23407905.944    23407924.7644
  21211223.647     3520420.925 9   2738559.03347  21211222.546    21211232.0464
 00  4 11 17 22  0.0000000  0  7 09 05 02 26 04 24 07
  21599850.269    -7406284.981 9  -5737542.63847  21599849.635    21599859.3844
  24357006.484    -5769824.876 7  -4474817.12845  24357005.176    24357019.9094
  22110307.545     3348326.053 8   2605112.34646  22110306.483    22110317.8104
  24025597.542     5713962.604 8   4442812.46445  24025597.094    24025612.9614
  21090559.213    -8308962.423 9  -6456376.03747  21090558.830    21090569.3584
  23387584.315    -9343950.784 8  -7269904.09945  23387583.563    23387602.1814
  21220701.297     3570225.731 9   2777367.90347  21220700.185    21220709.6624
 00  4 11 17 22 30.0000000  0  7 09 05 02 26 04 24 07
  21589297.528    -7461740.000 9  -5780754.29947  21589296.891    21589306.6474
  24341211.928    -5852825.713 8  -4539492.99745  24341210.890    24341225.4324
  22118715.717     3392511.121 8   2639542.14046  22118714.672    22118726.0904
  24040082.694     5790080.714 8   4502124.96745  24040082.197    24040098.2604
  21078217.678    -8373817.437 9  -6506912.33747  21078217.314    21078227.8024
  23367279.774    -9450651.923 8  -7353047.61245  23367279.019    23367297.4194
  21230214.755     3620218.695 9   2816323.39447  21230213.649    21230223.1054
 00  4 11 17 23  0.0000000  0  7 09 05 02 26 04 24 07
  21578823.939    -7516778.865 9  -5823641.69047  21578823.311    21578833.0774
  24325413.342    -5935847.817 7  -4604185.45245  24325412.137    24325426.7724
  22127165.879     3436916.570 8   2674143.64246  22127164.853    22127176.3414
  24054578.355     5866254.310 8   4561480.69845  24054577.801    24054594.0074
  21065956.657    -8438249.605 9  -6557119.14647  21065956.272    21065966.7224
  23346992.428    -9557262.465 8  -7436120.53045  23346991.674    23347009.8834
  21239760.798     3670383.470 9   2855412.76847  21239759.690    21239769.1764
 00  4 11 17 23 30.0000000  0  7 09 05 02 26 04 24 07
  21568425.960    -7571420.749 9  -5866219.75247  21568425.310    21568435.0464
  24309608.479    -6018902.582 8  -4668903.37545  24309607.349    24309622.0984
  22135655.160     3481527.225 8   2708905.04446  22135654.125    22135665.6294
  24069078.735     5942453.312 8   4620856.21545  24069078.204    24069094.6274
  21053778.373    -8502246.926 9  -6606987.11747  21053777.993    21053788.3924
  23326719.021    -9663799.252 8  -7519135.98145  23326718.200    23326736.3954
  21249340.188     3720723.422 9   2894638.63047  21249339.108    21249348.5994
 00  4 11 17 24  0.0000000  0  7 09 05 02 26 04 24 07
  21558104.205    -7625662.084 9  -5908485.69647  21558103.555    21558113.2164
  24293796.354    -6101995.260 8  -4733650.84545  24293795.325    24293809.8964
  22144183.723     3526344.334 8   2743827.32346  22144182.681    22144194.1394
  24083586.479     6018691.096 8   4680261.98645  24083586.020    24083602.5974
  21041689.095    -8565776.171 9  -6656490.34947  21041688.722    21041699.1404
  23306464.457    -9770236.731 8  -7602074.04945  23306463.642    23306481.7994
  21258956.219     3771255.732 9   2934014.38947  21258955.161    21258964.6454
 00  4 11 17 24 30.0000000  0  7 09 05 02 26 04 24 07
  21547860.366    -7679493.912 9  -5950432.54347  21547859.717    21547869.3514
  24277978.010    -6185120.865 8  -4798424.00845  24277976.987    24277991.7554
  22152753.844     3571379.698 8   2778919.67246  22152752.798    22152764.1814
  24098105.214     6094986.151 8   4739712.35645  24098104.768    24098121.4244
  21029688.916    -8628837.187 9  -6705628.72847  21029688.560    21029698.9834
  23286232.434    -9876555.265 8  -7684919.41245  23286231.628    23286249.8914
  21268610.625     3821989.388 9   2973547.04547  21268609.538    21268619.0304
 00  4 11 17 25  0.0000000  0  7 09 05 02 26 04 24 07
  21537696.892    -7732903.434 9  -5992050.32547  21537696.213    21537705.8124
  24262153.952    -6268276.779 7  -4863220.74745  24262153.001    24262167.6364
  22161365.020     3616630.962 8   2814180.25446  22161363.977    22161375.3144
  24112635.586     6171341.789 8   4799209.95745  24112635.090    24112651.6084
  21017778.970    -8691423.734 9  -6754397.38847  21017778.605    21017789.0654
  23266023.268    -9982753.266 8  -7767670.86145  23266022.528    23266040.8704
  21278300.641     3872910.524 9   3013225.78847  21278299.569    21278309.0684
 00  4 11 17 25 30.0000000  0  7 09 05 02 26 04 24 07
  21527619.142    -7785862.074 9  -6033316.77047  21527618.460    21527628.0414
  24246324.871    -6351458.990 8  -4928037.97745  24246323.929    24246338.5234
  22170016.626     3662094.927 8   2849606.58746  22170015.567    22170026.9824
  24127182.857     6247786.757 8   4858777.16245  24127182.429    24127198.8824
  21005965.499    -8753503.190 9  -6802770.91847  21005965.163    21005975.6164
  23245840.326   -10088813.378 8  -7850314.86845  23245839.611    23245858.1124
  21288027.660     3924025.995 9   3053055.95647  21288026.606    21288036.1264
 00  4 11 17 26  0.0000000  0  7 09 05 02 26 04 24 07
  21517633.041    -7838339.397 9  -6074208.17247  21517632.353    21517641.8914
  24230493.339    -6434653.895 7  -4992865.07945  24230492.419    24230506.9454
  22178712.111     3707789.321 8   2885212.46546  22178711.067    22178722.5214
  24141755.540     6324365.803 8   4918448.83945  24141755.170    24141771.8264
  20994250.570    -8815065.266 9  -6850741.29347  20994250.243    20994260.6824
  23225686.914   -10194718.380 8  -7932838.01045  23225686.213    23225704.8844
  21297792.753     3975341.117 9   3093041.68947  21297791.655    21297801.1984
 00  4 11 17 26 30.0000000  0  7 09 05 02 26 04 24 07
  21507741.188    -7890321.342 9  -6114713.55847  21507740.491    21507750.0174
  24214660.865    -6517853.366 7  -5057695.75945  24214659.851    24214674.4584
  22187453.367     3753724.193 8   2921005.72646  22187452.336    22187463.7574
  24156353.193     6401075.390 8   4978222.24245  24156352.755    24156369.6544
  20982631.297    -8876124.635 9  -6898319.94547  20982630.987    20982641.4094
  23205560.270   -10300482.663 8  -8015251.48145  23205559.656    23205578.4194
  21307596.343     4026858.923 9   3133185.36247  21307595.279    21307604.8414
 00  4 11 17 27  0.0000000  0  7 09 05 02 26 04 24 07
  21497945.384    -7941798.442 9  -6154825.55647  21497944.733    21497954.2344
  24198826.447    -6601062.845 7  -5122534.23845  24198825.462    24198840.0434
  22196240.961     3799902.829 8   2956988.95046  22196239.953    22196251.3734
  24170975.243     6477913.434 8   5038095.72445  24170974.722    24170991.7954
  20971109.713    -8936670.605 9  -6945498.53847  20971109.423    20971119.8334
  23185458.187   -10406118.320 8  -8097564.72445  23185457.552    23185476.4734
  21317438.905     4078581.493 9   3173488.58947  21317437.835    21317447.4124
 00  4 11 17 27 30.0000000  0  7 09 05 02 26 04 24 07
  21488244.597    -7992776.731 9  -6194548.87347  21488243.928    21488253.3894
  24182990.528    -6684280.911 7  -5187379.39545  24182989.575    24183004.0074
  22205077.213     3846336.949 8   2993171.24646  22205076.205    22205087.6424
  24185625.576     6554899.954 8   5098084.92345  24185625.110    24185642.1434
  20959687.002    -8996697.103 9  -6992272.34447  20959686.731    20959697.0934
  23165378.308   -10511637.700 8  -8179787.35545  23165377.763    23165396.6604
  21327323.957     4130527.381 8   3213965.83347  21327322.882    21327332.4814
 00  4 11 17 28  0.0000000  0  7 09 05 02 26 04 24 07
  21478635.362    -8043273.730 9  -6233897.16947  21478634.701    21478644.0904
  24167152.580    -6767510.317 8  -5252233.37145  24167151.559    24167165.8734
  22213964.015     3893036.276 8   3029560.19246  22213962.943    22213974.3894
  24200299.775     6632011.627 8   5158171.64045  24200299.271    24200316.3634
  20948361.218    -9056214.450 9  -7038649.41147  20948360.961    20948371.2204
  23145317.776   -10617056.156 8  -8261931.33646  23145317.231    23145335.9984
  21337249.558     4182686.622 8   3254609.32247  21337248.510    21337258.1044
 00  4 11 17 28 30.0000000  0  7 09 05 02 26 04 24 07
  21469117.093    -8093292.492 9  -6272872.80947  21469116.440    21469125.8204
  24151311.014    -6850758.520 8  -5317101.99545  24151310.105    24151324.1944
  22222900.932     3939999.286 8   3066154.61046  22222899.866    22222911.3444
  24214990.747     6709211.673 8   5218327.21445  24214990.300    24215007.4354
  20937134.232    -9115212.622 9  -7084621.92347  20937133.964    20937144.1674
  23125276.170   -10722375.342 8  -8343997.96446  23125275.625    23125294.1614
  21347213.322     4235046.055 8   3295408.80647  21347212.252    21347221.8254
 00  4 11 17 29  0.0000000  0  7 09 05 02 26 04 24 07
  21459690.317    -8142830.387 9  -6311473.74947  21459689.666    21459699.1064
  24135467.678    -6934016.628 8  -5381978.33245  24135466.784    24135480.6374
  22231888.347     3987228.186 8   3102956.21147  22231887.285    22231898.9114
  24229698.309     6786498.683 8   5278550.54145  24229697.878    24229715.0644
  20926010.460    -9173668.372 9  -7130171.76947  20926010.175    20926020.3874
  23105254.575   -10827589.476 8  -8425982.71646  23105253.996    23105272.3204
  21357215.455     4287607.200 8   3336365.46847  21357214.378    21357223.9124
 00  4 11 17 29 30.0000000  0  7 09 05 02 26 04 24 07
  21450356.020    -8191882.302 9  -6349696.00947  21450355.378    21450364.9064
  24119624.521    -7017274.083 8  -5446854.15145  24119623.532    24119637.2124
  22240927.603     4034729.625 8   3139970.17547  22240926.547    22240938.2844
  24244420.158     6863861.396 8   5338832.84445  24244419.797    24244436.9854
  20914990.454    -9231578.391 9  -7175296.38447  20914990.174    20915000.4504
  23085257.191   -10932676.329 8  -8507868.29546  23085256.539    23085274.6754
  21367255.588     4340367.967 8   3377477.68047  21367254.507    21367264.0194
 00  4 11 17 30  0.0000000  0  7 09 05 02 26 04 24 07
  21441118.047    -8240427.914 9  -6387523.74547  21441117.413    21441127.0084
  24103781.357    -7100531.355 8  -5511729.81745  24103780.350    24103793.8954
  22250017.995     4082499.438 8   3177193.26847  22250016.953    22250028.7704
  24259153.087     6941282.156 8   5399160.39045  24259152.708    24259169.9194
  20904071.810    -9288956.002 9  -7220006.13447  20904071.542    20904081.8254
  23065289.475   -11037607.184 8  -8589632.31046  23065288.824    23065306.7684
  21377331.340     4393315.808 8   3418735.66347  21377330.272    21377339.7484
 00  4 11 17 30 30.0000000  0  7 09 05 02 26 04 24 07
  21431978.121    -8288458.296 9  -6424949.99847  21431977.491    21431987.1334
  24087938.238    -7183787.781 8  -5576604.83645  24087937.019    24087950.7054
  22259157.038     4130524.570 8   3214615.31747  22259155.997    22259167.8864
  24273897.920     7018765.130 8   5459536.41845  24273897.480    24273914.6624
  20893251.923    -9345814.877 9  -7264311.66847  20893251.633    20893261.8524
  23045354.934   -11142363.229 8  -8671260.09546  23045354.273    23045372.0874
  21387444.256     4446459.067 8   3460145.92447  21387443.181    21387452.7074
 00  4 11 17 31  0.0000000  0  7 09 05 02 26 04 24 07
  21422934.251    -8335983.730 9  -6461982.79247  21422933.652    21422943.3404
  24072095.567    -7267040.031 7  -5641476.61845  24072094.356    24072108.2174
  22268343.760     4178800.335 8   3252232.65247  22268342.687    22268354.6784
  24288652.937     7096302.043 8   5519954.46745  24288652.486    24288669.7464
  20882526.933    -9402174.808 9  -7308228.41747  20882526.608    20882536.7764
  23025454.313   -11246940.764 8  -8752748.79246  23025453.690    23025471.3354
  21397593.495     4499793.512 8   3501705.15647  21397592.435    21397602.0314
 00  4 11 17 31 30.0000000  0  7 09 05 02 26 04 24 07
  21413984.554    -8383014.390 9  -6498630.04447  21413983.977    21413993.6684
  24056251.045    -7350300.556 7  -5706354.85545  24056249.916    24056264.0214
  22277575.182     4227311.056 8   3290033.07247  22277574.096    22277586.1754
  24303415.337     7173878.077 8   5580402.99045  24303414.876    24303432.2394
  20871891.045    -9458066.184 9  -7351780.06247  20871890.731    20871900.9074
  23005589.436   -11351330.556 8  -8834091.19046  23005588.783    23005606.3014
  21407776.998     4553308.147 8   3543404.78947  21407775.935    21407785.6984
 00  4 11 17 32  0.0000000  0  7 09 05 02 26 04 24 07
  21405125.840    -8429567.192 9  -6534904.94147  21405125.250    21405134.9544
  24040403.281    -7433579.100 8  -5771247.12945  24040402.286    24040416.6254
  22286846.511     4276032.092 8   3327997.37146  22286845.457    22286857.6204
  24318184.638     7251490.982 8   5640880.26045  24318184.211    24318201.6554
  20861343.146    -9513495.191 9  -7394971.41947  20861342.873    20861353.0494
  22985759.028   -11455538.968 8  -8915292.26646  22985758.411    22985775.7994
  21417993.159     4606994.430 8   3585238.17747  21417992.102    21418001.9674
 00  4 11 17 32 30.0000000  0  7 09 05 02 26 04 24 07
  21396353.397    -8475666.620 9  -6570826.56047  21396352.833    21396362.5164
  24024554.758    -7516862.825 8  -5836143.44045  24024553.867    24024568.1394
  22296156.522     4324956.134 8   3366119.85546  22296155.493    22296167.6694
  24332958.378     7329126.832 8   5701375.40845  24332957.904    24332975.4884
  20850887.235    -9568441.291 9  -7437786.48547  20850886.961    20850897.0784
  22965960.927   -11559577.352 8  -8996360.86546  22965960.327    22965977.6494
  21428241.352     4660848.867 8   3627202.59047  21428240.308    21428250.1794
 00  4 11 17 33  0.0000000  0  7 09 05 02 26 04 24 07
  21387667.117    -8521313.538 9  -6606395.57447  21387666.546    21387676.2094
  24008705.582    -7600151.120 8  -5901043.30845  24008704.629    24008718.7974
  22305505.381     4374084.117 8   3404401.25946  22305504.370    22305516.4994
  24347735.951     7406783.353 8   5761886.65245  24347735.533    24347753.2284
  20840526.635    -9622886.643 9  -7480211.35547  20840526.334    20840536.4314
  22946194.447   -11663449.796 8  -9077300.16746  22946193.841    22946211.0684
  21438519.685     4714861.510 8   3669290.28946  21438518.662    21438528.5454
 00  4 11 17 33 30.0000000  0  7 09 05 02 26 04 24 07
  21379069.996    -8566492.006 9  -6641599.55947  21379069.408    21379079.0404
  23992854.331    -7683450.926 8  -5965952.15745  23992853.373    23992867.2964
  22314892.691     4423414.229 8   3442840.16746  22314891.692    22314903.8164
  24362521.642     7484482.645 7   5822431.21745  24362521.307    24362539.3274
  20830265.554    -9676808.663 9  -7522228.43747  20830265.277    20830275.3564
  22926461.856   -11767144.578 8  -9158101.03446  22926461.172    22926478.3464
  21448829.587     4769039.979 8   3711507.20246  21448828.555    21448838.3584
 00  4 11 17 34  0.0000000  0  7 09 05 02 26 04 24 07
  21370565.813    -8611182.142 9  -6676423.02347  21370565.206    21370574.8234
  23977004.431    -7766743.213 8  -6030855.13745  23977003.485    23977017.4014
  22324322.132     4472965.384 8   3481451.30846  22324321.114    22324333.2184
  24377317.439     7562235.296 7   5883017.36045  24377317.135    24377335.5914
  20820113.214    -9730159.543 9  -7563800.46747  20820112.946    20820122.9614
  22906764.068   -11870656.593 8  -9238759.50046  22906763.338    22906780.3764
  21459172.746     4823392.857 8   3753860.01846  21459171.714    21459181.3964
 00  4 11 17 34 30.0000000  0  7 09 05 02 26 04 24 07
  21362158.264    -8655364.208 9  -6710850.58947  21362157.666    21362167.2344
  23961158.235    -7850015.579 8  -6095742.61245  23961157.287    23961171.1834
  22333798.696     4522764.188 8   3520255.43046  22333797.653    22333809.7824
  24392125.275     7640051.502 7   5943653.04245  24392125.103    24392143.9474
  20810074.640    -9782912.523 9  -7604906.60747  20810074.355    20810084.3074
  22887103.187   -11973974.279 8  -9319266.53846  22887102.459    22887119.4364
  21469552.357     4877937.560 8   3796362.30846  21469551.299    21469560.9024
 00  4 11 17 35  0.0000000  0  7 09 05 02 26 04 24 07
  21353853.034    -8699008.573 9  -6744859.17347  21353852.415    21353861.9344
  23945312.465    -7933284.679 7  -6160627.53745  23945311.436    23945325.6444
  22343325.525     4572827.269 8   3559265.46546  22343324.458    22343336.6224
  24406950.948     7717959.810 7   6004360.48045  24406950.689    24406969.8744
  20800150.731    -9835062.648 9  -7645542.99947  20800150.476    20800160.3694
  22867480.871   -12077088.746 8  -9399615.24146  22867480.143    22867497.1284
  21479971.905     4932692.141 8   3839028.12946  21479970.846    21479980.4574
 00  4 11 17 35 30.0000000  0  7 09 05 02 26 04 24 07
  21345652.174    -8742104.363 9  -6778440.28847  21345651.563    21345661.0964
  23929468.432    -8016544.021 7  -6225504.86945  23929467.455    23929481.9004
  22352906.151     4623173.146 8   3598495.86546  22352905.086    22352917.2994
  24421796.654     7795972.768 8   6065149.45845  24421796.311    24421815.5634
  20790343.082    -9886602.147 9  -7685703.58247  20790342.825    20790352.6964
  22847897.454   -12179998.703 8  -9479804.57646  22847896.750    22847913.7164
  21490433.609     4987668.200 8   3881866.53846  21490432.553    21490442.1884
 00  4 11 17 36  0.0000000  0  7 09 05 02 26 04 24 07
  21337554.183    -8784659.504 9  -6811600.12347  21337553.559    21337563.1144
  23913628.044    -8099784.031 8  -6290367.12345  23913627.131    23913641.5274
  22362541.404     4673806.583 8   3637950.34546  22362540.385    22362552.6264
  24436660.369     7874079.946 7   6126011.84745  24436660.082    24436679.0924
  20780646.778    -9937556.422 9  -7725408.15347  20780646.498    20780656.3704
  22828352.268   -12282707.978 8  -9559837.54346  22828351.611    22828368.5244
  21500938.288     5042869.781 8   3924880.67846  21500937.231    21500946.9164
 00  4 11 17 36 30.0000000  0  7 09 05 02 26 04 24 07
  21329555.965    -8826690.131 9  -6844351.24547  21329555.336    21329564.9094
  23897787.490    -8183026.348 8  -6355231.18245  23897786.557    23897800.7734
  22372229.283     4724716.197 8   3677620.02646  22372228.268    22372240.5004
  24451539.993     7952271.023 8   6186939.62345  24451539.710    24451558.6494
  20771051.633    -9987978.938 9  -7764698.37047  20771051.340    20771061.2284
  22808841.924   -12385234.232 8  -9639727.90946  22808841.288    22808858.1804
  21511482.657     5098280.375 8   3968057.68346  21511481.601    21511491.4134
 00  4 11 17 37  0.0000000  0  7 09 05 02 26 04 24 07
  21321655.980    -8868204.661 9  -6876700.21747  21321655.355    21321664.9814
  23881945.320    -8266277.931 8  -6420102.45245  23881944.384    23881958.3254
  22381966.846     4775886.406 8   3717492.75946  22381965.787    22381978.0234
  24466429.162     8030511.923 8   6247906.22045  24466428.942    24466447.9274
  20761549.086   -10037914.910 9  -7803609.46347  20761548.809    20761558.6814
  22789361.652   -12487602.746 8  -9719495.35646  22789361.034    22789377.8374
  21522059.478     5153861.763 8   4011367.77446  21522058.409    21522068.3854
 00  4 11 17 37 30.0000000  0  7 09 05 02 26 04 24 07
  21313850.724    -8909221.503 9  -6908661.38447  21313850.099    21313859.7204
  23866101.961    -8349535.761 8  -6484978.57945  23866101.102    23866114.8334
  22391750.819     4827300.536 8   3757555.55946  22391749.764    22391761.9924
  24481319.588     8108759.664 8   6308878.15145  24481319.425    24481338.3034
  20752135.544   -10087383.364 9  -7842156.26647  20752135.266    20752145.0974
  22769911.313   -12589814.051 8  -9799140.31246  22769910.739    22769927.3914
  21532661.665     5209576.497 8   4054781.76746  21532660.589    21532670.6094
 00  4 11 17 38  0.0000000  0  7 09 05 02 26 04 24 07
  21306138.565    -8949749.322 9  -6940241.49247  21306137.938    21306147.5194
  23850256.443    -8432804.539 8  -6549863.22745  23850255.482    23850269.3244
  22401578.378     4878943.839 8   3797796.93446  22401577.301    22401589.5254
  24496205.275     8186982.429 8   6369830.62045  24496205.139    24496223.8584
  20742810.531   -10136386.089 9  -7880340.17247  20742810.252    20742820.0964
  22750490.353   -12691870.984 8  -9878664.96846  22750489.764    22750506.3634
  21543284.360     5265399.316 8   4098279.99146  21543283.295    21543293.3084
 00  4 11 17 38 30.0000000  0  7 09 05 02 26 04 24 07
  21298522.487    -8989772.389 9  -6971428.28847  21298521.870    21298531.3764
  23834409.119    -8516082.452 8  -6614755.00745  23834408.133    23834422.0454
  22411451.379     4930826.359 8   3838224.70246  22411450.356    22411462.5834
  24511083.443     8265165.715 8   6430752.32245  24511083.339    24511101.9374
  20733580.963   -10184887.294 9  -7918133.28547  20733580.731    20733590.5954
  22731098.379   -12793775.511 8  -9958070.88646  22731097.799    22731114.3384
  21553925.940     5321321.575 8   4141855.70146  21553924.898    21553934.8874
 00  4 11 17 39  0.0000000  0  7 09 05 02 26 04 24 07
  21291005.864    -9029272.925 9  -7002207.92347  21291005.234    21291014.6434
  23818562.709    -8599355.261 8  -6679642.81045  23818561.803    23818575.6954
  22421371.513     4982956.486 8   3878845.41746  22421370.468    22421382.7604
  24525954.286     8343310.765 8   6491644.24245  24525954.155    24525972.8104
  20724456.360   -10232837.448 9  -7955497.00747  20724456.127    20724465.9504
  22711741.222   -12895496.939 8 -10037334.13446  22711740.710    22711757.1774
  21564589.674     5377360.062 8   4185521.98546  21564588.666    21564598.6644
 00  4 11 17 39 30.0000000  0  7 09 05 02 26 04 24 07
  21283589.225    -9068247.510 9  -7032577.72347  21283588.598    21283598.0264
  23802719.631    -8682610.517 8  -6744516.94845  23802718.721    23802732.6594
  22431340.744     5035344.550 8   3919667.11246  22431339.667    22431352.0594
  24540824.584     8421453.303 8   6552534.18145  24540824.491    24540843.1344
  20715445.877   -10280187.871 9  -7992393.40847  20715445.645    20715455.4114
  22692423.796   -12997009.512 8 -10116434.62846  22692423.383    22692439.8064
  21575283.569     5433556.592 8   4229311.41046  21575282.543    21575292.5284
 00  4 11 17 40  0.0000000  0  7 09 05 02 26 04 24 07
  21276273.927    -9106689.373 9  -7062532.41847  21276273.332    21276282.8004
  23786882.404    -8765835.343 8  -6809367.37845  23786881.604    23786895.5054
  22441360.887     5088000.383 8   3960697.46546  22441359.820    22441372.2964
  24555700.179     8499623.790 8   6613445.91845  24555699.972    24555718.7074
  20706553.007   -10326920.148 9  -8028808.14047  20706552.772    20706562.5164
  22673146.008   -13098313.791 8 -10195372.82646  22673145.648    22673162.0434
  21586013.642     5489942.915 8   4273248.73046  21586012.654    21586022.5864
 00  4 11 17 40 30.0000000  0  7 09 05 02 26 04 24 07
  21269058.660    -9144605.903 9  -7092077.76647  21269058.077    21269067.5704
  23771050.434    -8849032.922 8  -6874196.58245  23771049.645    23771063.2694
  22451432.282     5140925.930 8   4001937.98746  22451431.278    22451443.8764
  24570584.705     8577841.082 8   6674394.11145  24570584.458    24570603.3054
  20697775.710   -10373044.959 9  -8064749.52147  20697775.498    20697785.2054
  22653910.883   -13199394.297 8 -10274136.64846  22653910.564    22653926.9184
  21596782.678     5546533.589 9   4317345.28746  21596781.659    21596791.5684
 00  4 11 17 41  0.0000000  0  7 09 05 02 26 04 24 07
  21261939.891    -9182015.474 9  -7121228.07647  21261939.296    21261948.8214
  23755222.623    -8932209.257 8  -6939009.21545  23755221.752    23755235.1574
  22461550.508     5194097.277 8   4043370.03646  22461549.503    22461562.1414
  24585479.694     8656113.728 7   6735385.43245  24585479.456    24585498.5324
  20689109.943   -10418583.920 9  -8100234.39647  20689109.707    20689119.3724
  22634719.176   -13300247.286 8 -10352723.17146  22634718.820    22634735.1044
  21607588.802     5603319.576 9   4361594.03547  21607587.768    21607597.6694
 00  4 11 17 41 30.0000000  0  7 09 05 02 26 04 24 07
  21254914.618    -9218933.720 9  -7149995.53947  21254914.029    21254923.5394
  23739396.148    -9015378.091 8  -7003816.00745  23739395.219    23739408.5384
  22471714.643     5247509.230 8   4084989.56446  22471713.566    22471726.2044
  24600383.551     8734433.523 7   6796413.48645  24600383.488    24600402.8394
  20680549.470   -10463569.572 9  -8135288.12247  20680549.234    20680558.8694
  22615568.199   -13400886.664 8 -10431143.25546  22615567.698    22615583.9084
  21618429.960     5660289.934 9   4405986.44747  21618428.913    21618438.8594
 00  4 11 17 42  0.0000000  0  7 09 05 02 26 04 24 07
  21247982.780    -9255360.934 9  -7178380.37947  21247982.188    21247991.6734
  23723566.337    -9098563.799 8  -7068635.94045  23723565.458    23723578.6134
  22481923.023     5301153.547 8   4126790.14446  22481921.949    22481934.5654
  24615289.752     8812765.452 7   6857450.98345  24615289.718    24615309.3594
  20672089.227   -10508028.470 9  -8169931.39347  20672088.971    20672098.5864
  22596457.426   -13501314.460 8 -10509398.44146  22596456.819    22596472.9534
  21629300.783     5717416.537 9   4450500.60247  21629299.747    21629309.7594
 00  4 11 17 42 30.0000000  0  7 09 05 02 26 04 24 07
  21241145.406    -9291291.481 9  -7206378.20047  21241144.831    21241154.2844
  23707731.043    -9181778.361 7  -7133478.37845  23707730.160    23707743.2744
  22492174.858     5355026.643 8   4168768.99946  22492173.792    22492186.4834
  24630194.480     8891088.922 7   6918481.88845  24630194.481    24630214.3794
  20663728.351   -10551964.894 9  -8204167.53347  20663728.109    20663737.7164
  22577389.054   -13601519.165 8 -10587479.80246  22577388.399    22577404.4744
  21640199.435     5774689.295 9   4495128.65247  21640198.422    21640208.5174
 00  4 11 17 43  0.0000000  0  7 09 05 02 26 04 24 07
  21234405.861    -9326708.241 9  -7233975.66847  21234405.287    21234414.6584
  23691892.004    -9265011.783 7  -7198335.51945  23691891.145    23691904.4174
  22502471.088     5409133.222 8   4210929.79046  22502470.073    22502482.8674
  24645095.352     8969391.499 7   6979496.51545  24645095.146    24645115.2504
  20655469.468   -10595365.404 9  -8237986.08147  20655469.246    20655478.8284
  22558362.195   -13701505.336 8 -10665390.88446  22558361.502    22558377.5344
  21651125.016     5832103.405 9   4539866.83647  21651124.009    21651134.1184
 00  4 11 17 43 30.0000000  0  7 09 05 02 26 04 24 07
  21227765.023    -9361606.397 9  -7261169.03147  21227764.414    21227773.7274
  23676050.531    -9348257.750 8  -7263202.42745  23676049.613    23676063.2074
  22512814.400     5463487.189 8   4253283.33946  22512813.433    22512826.3254
  24659991.698     9047670.841 7   7040493.04345  24659991.562    24660011.6984
  20647314.825   -10638218.414 9  -8271378.00247  20647314.592    20647324.1924
  22539378.201   -13801265.821 8 -10743126.09546  22539377.494    22539393.5214
  21662079.001     5889666.493 9   4584721.11547  21662077.975    21662088.0864
 00  4 11 17 44  0.0000000  0  7 09 05 02 26 04 24 07
  21221225.557    -9395971.482 9  -7287947.01347  21221224.942    21221234.2424
  23660209.159    -9431503.333 7  -7328069.04945  23660208.379    23660222.0784
  22523205.133     5518089.924 8   4295830.74246  22523204.170    22523217.0764
  24674883.845     9125928.424 7   7101472.60745  24674883.733    24674903.9834
  20639269.802   -10680495.227 9  -8304320.94247  20639269.551    20639279.1844
  22520437.852   -13900796.659 8 -10820682.37246  22520437.226    22520453.1914
  21673060.740     5947375.567 9   4629689.15147  21673059.753    21673069.8324
 00  4 11 17 44 30.0000000  0  7 09 05 02 26 04 24 07
  21214788.518    -9429798.243 9  -7314305.52247  21214787.908    21214797.2374
  23644372.584    -9514724.730 8  -7392916.82945  23644371.882    23644385.5424
  22533646.226     5572956.759 8   4338583.93746  22533645.212    22533658.1584
  24689774.665     9204178.107 7   7162446.03745  24689774.464    24689794.6984
  20631335.812   -10722188.316 9  -8336809.03347  20631335.584    20631345.2234
  22501541.639   -14000095.590 8 -10898057.95146  22501541.077    22501557.0154
  21684071.481     6005236.572 9   4674775.56747  21684070.470    21684080.5114
 00  4 11 17 45  0.0000000  0  7 09 05 02 26 04 24 07
  21208452.221    -9463095.686 9  -7340251.57847  21208451.644    21208460.9484
  23628541.015    -9597920.648 8  -7457744.74345  23628540.292    23628553.8314
  22544137.802     5628089.431 8   4381544.28446  22544136.739    22544149.7604
  24704663.262     9282416.383 8   7223410.56045  24704663.146    24704683.3554
  20623512.633   -10763299.325 9  -8368843.55547  20623512.400    20623522.0684
  22482687.186   -14099175.359 8 -10975262.75546  22482686.601    22482702.5514
  21695108.997     6063238.423 9   4719971.73047  21695107.959    21695117.9684
 00  4 11 17 45 30.0000000  0  7 09 05 02 26 04 24 07
  21202216.544    -9495864.662 9  -7365785.84347  21202215.961    21202225.2364
  23612712.718    -9681099.820 8  -7522559.61045  23612711.890    23612725.2014
  22554680.169     5683489.535 8   4424713.01846  22554679.130    22554692.2494
  24719549.264     9360640.500 8   7284364.07245  24719549.072    24719569.2284
  20615800.227   -10803828.207 9  -8400424.46747  20615800.009    20615809.6804
  22463875.156   -14198031.951 8 -11052293.64946  22463874.564    22463890.5524
  21706173.212     6121381.083 9   4765277.61047  21706172.209    21706182.2514
 00  4 11 17 46  0.0000000  0  7 09 05 02 26 04 24 07
  21196084.328    -9528089.911 9  -7390896.43247  21196083.747    21196092.9944
  23596887.869    -9764260.570 8  -7587360.11145  23596886.965    23596900.1254
  22565274.381     5739161.885 8   4468093.87946  22565273.386    22565286.5354
  24734431.986     9438847.480 8   7345304.21745  24734431.769    24734451.6424
  20608198.555   -10843775.401 9  -8431552.11347  20608198.321    20608207.9954
  22445106.152   -14296662.314 8 -11129148.28346  22445105.607    22445121.6254
  21717262.707     6179656.191 9   4810686.69447  21717261.682    21717271.7494
 00  4 11 17 46 30.0000000  0  7 09 05 02 26 04 24 07
  21190055.660    -9559770.660 9  -7415582.72947  21190055.090    21190064.3894
  23581067.277    -9847398.052 8  -7652142.48145  23581066.368    23581079.5334
  22575919.383     5795100.521 8   4511682.25746  22575918.397    22575931.4714
  24749310.025     9517029.604 8   7406225.01245  24749309.770    24749329.4644
  20600705.769   -10883150.235 9  -8462233.75147  20600705.528    20600715.2194
  22426382.586   -14395053.815 8 -11205816.78146  22426382.089    22426398.1544
  21728377.522     6238064.253 9   4856199.38347  21728376.478    21728386.5364
 00  4 11 17 47  0.0000000  0  7 09 05 02 26 04 24 07
  21184132.876    -9590894.904 9  -7439835.38747  21184132.310    21184141.6344
  23565250.449    -9930515.062 8  -7716908.88945  23565249.608    23565262.8204
  22586613.241     5851295.972 8   4555470.73946  22586612.243    22586625.2774
  24764182.069     9595180.886 8   7467121.75445  24764181.723    24764201.3644
  20593324.538   -10921938.790 9  -8492458.54947  20593324.308    20593333.9654
  22407706.341   -14493197.158 8 -11282291.90846  22407705.858    22407721.8804
  21739516.487     6296599.463 9   4901811.14547  21739515.437    21739525.5204
 00  4 11 17 47 30.0000000  0  7 09 05 02 26 04 24 07
  21178319.790    -9621442.910 9  -7463639.03347  21178319.225    21178328.5224
  23549440.071   -10013598.803 8  -7781649.38445  23549439.143    23549452.5194
  22597356.721     5907752.664 8   4599462.78746  22597355.736    22597368.7864
  24779050.741     9673314.812 7   7528004.97845  24779050.280    24779070.0664
  20586056.404   -10960133.266 9  -8522220.43947  20586056.130    20586065.7634
  22389082.577   -14591065.166 8 -11358552.50046  22389082.111    22389098.0224
  21750680.355     6355266.033 9   4947525.26247  21750679.338    21750689.5044
 00  4 11 17 48  0.0000000  0  7 09 05 02 26 04 24 07
  21172617.267    -9651409.990 9  -7486990.00547  21172616.693    21172625.9304
  23533638.398   -10096636.996 8  -7846354.38045  23533637.512    23533650.8884
  22608149.356     5964467.987 8   4643656.35646  22608148.424    22608161.5594
  24793916.418     9751432.977 7   7588875.90045  24793916.219    24793935.9014
  20578901.764   -10997730.792 9  -8551517.16347  20578901.493    20578911.1424
  22370512.302   -14688652.334 8 -11434594.25846  22370511.817    22370527.5584
  21761870.959     6414072.678 9   4993348.53747  21761869.961    21761880.2094
 00  4 11 17 48 30.0000000  0  7 09 05 02 26 04 24 07
  21167023.776    -9680804.067 9  -7509894.48147  21167023.225    21167032.3934
  23517845.299   -10179630.571 8  -7911024.61945  23517844.355    23517857.7994
  22618990.063     6021435.636 8   4688046.54846  22618989.170    22619002.2994
  24808778.290     9829531.148 7   7649731.23845  24808778.000    24808797.8954
  20571858.847   -11034741.331 9  -8580356.49947  20571858.589    20571868.2594
  22351995.831   -14785956.750 8 -11510415.68046  22351995.316    22352010.9634
  21773090.072     6473029.371 9   5039288.72847  21773089.074    21773099.3894
 00  4 11 17 49  0.0000000  0  7 09 05 02 26 04 24 07
  21161535.917    -9709642.729 9  -7532366.16547  21161535.344    21161544.5664
  23502058.192   -10262592.837 8  -7975670.43845  23502057.214    23502070.4874
  22629879.639     6078660.109 8   4732636.84846  22629878.720    22629891.9244
  24823639.131     9907623.731 7   7710582.21445  24823638.683    24823659.0944
  20564926.880   -11071169.125 9  -8608741.75047  20564926.637    20564936.2464
  22333529.815   -14882995.486 8 -11586030.08746  22333529.299    22333544.8674
  21784337.380     6532134.317 9   5085344.44147  21784336.377    21784346.7114
 00  4 11 17 49 30.0000000  0  7 09 05 02 26 04 24 07
  21156148.863    -9737951.576 9  -7554425.00747  21156148.333    21156157.5844
  23486274.380   -10345537.318 8  -8040302.40345  23486273.381    23486286.4604
  22640816.203     6136131.191 8   4777419.31446  22640815.239    22640828.4934
  24838497.760     9985705.529 7   7771424.77645  24838497.215    24838518.0844
  20558102.432   -11107032.003 9  -8636686.80247  20558102.152    20558111.7204
  22315112.653   -14979777.413 8 -11661444.37846  22315112.190    22315127.7134
  21795614.180     6591394.067 9   5131520.78547  21795613.191    21795623.5354
 00  4 11 17 50  0.0000000  0  7 09 05 02 26 04 24 07
  21150859.124    -9765749.581 9  -7576085.79147  21150858.575    21150867.7924
  23470490.732   -10428480.760 8  -8104933.56245  23470489.738    23470502.5884
  22651797.727     6193838.891 8   4822386.15046  22651796.767    22651810.0604
  24853348.733    10063747.865 7   7832236.61945  24853348.444    24853369.5164
  20551384.555   -11142334.579 9  -8664195.25447  20551384.283    20551393.8144
  22296740.655   -15076321.952 8 -11736673.69746  22296740.218    22296755.7344
  21806920.352     6650807.768 9   5177817.08747  21806919.334    21806929.6854
 00  4 11 17 50 30.0000000  0  7 09 05 02 26 04 24 07
  21145666.270    -9793038.118 9  -7597349.59247  21145665.720    21145674.9414
  23454706.186   -10511428.727 8  -8169568.23045  23454705.226    23454717.9974
  22662825.486     6251789.572 8   4867542.31346  22662824.563    22662837.8434
  24868191.108    10141744.359 7   7893012.71545  24868190.859    24868212.1464
  20544773.680   -11177074.739 9  -8691265.47447  20544773.409    20544782.9424
  22278414.784   -15172624.131 8 -11811714.17046  22278414.375    22278429.8454
  21818253.634     6710364.460 9   5224224.80447  21818252.618    21818262.9924
 00  4 11 17 51  0.0000000  0  7 09 05 02 26 04 24 07
  21140568.244    -9819828.154 9  -7618224.94547  21140567.700    21140576.9384
  23438918.949   -10594390.602 8  -8234213.74945  23438917.975    23438930.8074
  22673899.528     6309982.951 8   4912887.60446  22673898.576    22673911.8674
  24883023.146    10219686.003 7   7953746.07545  24883022.880    24883044.2894
  20538270.713   -11211247.768 9  -8717893.77047  20538270.461    20538279.9964
  22260136.510   -15268676.446 8 -11886559.94146  22260136.069    22260151.5504
  21829611.240     6770048.837 9   5270732.02147  21829610.265    21829620.6414
 00  4 11 17 51 30.0000000  0  7 09 05 02 26 04 24 07
  21135569.519    -9846096.510 9  -7638693.79847  21135569.000    21135578.2364
  23423132.070   -10677350.683 8  -8298857.87045  23423131.144    23423144.0104
  22685019.497     6368417.845 8   4958421.07846  22685018.528    22685031.8094
  24897839.678    10297545.277 7   8014415.25745  24897839.543    24897860.6444
  20531875.968   -11244852.054 9  -8744078.89347  20531875.708    20531885.2614
  22241908.868   -15364463.214 8 -11961198.79746  22241908.348    22241923.7924
  21840991.330     6829851.029 9   5317331.03747  21840990.357    21841000.7064
 00  4 11 17 52  0.0000000  0  6 09 05 02 04 24 07
  21130676.490    -9871809.436 9  -7658729.84847  21130675.958    21130685.2034
  23407351.646   -10760276.945 8  -8363475.63945  23407350.738    23407363.6454
  22696190.618     6427121.995 8   5004164.36746  22696189.745    22696203.0884
  20525594.162   -11277862.816 9  -8769801.52947  20525593.917    20525603.4594
  22223736.260   -15459960.557 8 -12035612.13746  22223735.708    22223751.1094
  21852393.709     6889770.213 9   5364021.21147  21852392.733    21852403.0454
 00  4 11 17 52 30.0000000  0  6 09 05 02 04 24 07
  21125889.794    -9896963.473 9  -7678330.39947  21125889.281    21125898.5564
  23391578.516   -10843165.617 8  -8428064.12245  23391577.578    23391590.4454
  22707412.244     6486091.401 8   5050114.34046  22707411.386    22707424.8484
  20519424.522   -11310284.286 9  -8795064.97947  20519424.298    20519433.8074
  22205618.842   -15555167.670 8 -12109799.31846  22205618.291    22205633.6204
  21863816.726     6949797.992 9   5410796.00847  21863815.735    21863826.0274
 00  4 11 17 53  0.0000000  0  6 09 05 02 04 24 07
  21121204.941    -9921582.591 9  -7697514.13447  21121204.395    21121213.6774
  23375808.203   -10926039.181 8  -8492640.83345  23375807.315    23375820.2094
  22718677.148     6545287.723 8   5096241.13846  22718676.228    22718689.7454
  20513362.318   -11342141.470 9  -8819888.73447  20513362.105    20513371.5534
  22187549.938   -15650119.884 8 -12183787.88046  22187549.400    22187564.6684
  21875254.953     7009905.674 9   5457633.06147  21875253.967    21875264.2854
 00  4 11 17 53 30.0000000  0  6 09 05 02 04 24 07
  21116626.963    -9945639.510 9  -7716259.79147  21116626.434    21116635.7664
  23360045.339   -11008873.085 8  -8557186.64445  23360044.448    23360057.4064
  22729987.014     6604720.636 8   5142552.27246  22729986.068    22729999.6994
  20507411.220   -11373414.693 9  -8844257.44647  20507410.985    20507420.4044
  22169529.551   -15744816.722 8 -12257577.43846  22169529.035    22169544.2904
  21886711.485     7070109.913 9   5504545.36047  21886710.505    21886720.8854
 00  4 11 17 54  0.0000000  0  6 09 05 02 04 24 07
  21112154.041    -9969144.847 9  -7734575.64647  21112153.520    21112162.8654
  23344290.089   -11091666.548 8  -8621700.95545  23344289.175    23344302.2984
  22741342.884     6664395.399 8   5189051.87346  22741341.906    22741355.6614
  20501574.733   -11404085.559 9  -8868156.79247  20501574.495    20501583.9024
  22151559.474   -15839249.215 8 -12331161.00946  22151558.965    22151574.2084
  21898191.546     7130437.812 9   5551554.01447  21898190.568    21898201.0044
 00  4 11 17 54 30.0000000  0  6 09 05 02 04 24 07
  21107786.860    -9992094.868 9  -7752458.78947  21107786.323    21107795.6604
  23328543.926   -11174411.996 8  -8686177.84645  23328543.046    23328556.3034
  22752746.513     6724321.229 8   5235747.10146  22752745.552    22752759.4664
  20495856.206   -11434136.481 9  -8891573.06847  20495855.974    20495865.3674
  22133642.888   -15933400.530 8 -12404525.48346  22133642.438    22133657.6244
  21909700.363     7190916.679 9   5598680.30947  21909699.401    21909709.8644
 00  4 11 17 55  0.0000000  0  6 09 05 02 04 24 07
  21103524.707   -10014493.062 9  -7769911.93747  21103524.164    21103533.4764
  23312806.984   -11257108.823 8  -8750616.85745  23312806.150    23312819.4554
  22764198.571     6784501.371 8   5282640.50346  22764197.654    22764211.6634
  20490254.842   -11463571.730 9  -8914509.59548  20490254.632    20490263.9934
  22115780.479   -16027267.048 8 -12477668.02946  22115780.065    22115795.2294
  21921236.345     7251537.860 9   5645917.50247  21921235.345    21921245.8554
 00  4 11 17 55 30.0000000  0  6 09 05 02 04 24 07
  21099367.500   -10036339.477 9  -7786935.12947  21099366.942    21099376.2704
  23297079.801   -11339754.421 8  -8815015.94645  23297078.988    23297092.3504
  22775700.138     6844941.134 8   5329736.20746  22775699.181    22775713.2214
  20484772.016   -11492384.176 9  -8936960.82148  20484771.778    20484781.1734
  22097974.665   -16120836.269 8 -12550578.91746  22097974.231    22097989.3064
  21932800.421     7312307.027 9   5693270.00547  21932799.439    21932809.9584
 00  4 11 17 56  0.0000000  0  6 09 05 02 04 24 07
  21095313.675   -10057642.376 9  -7803534.80847  21095313.139    21095322.5014
  23281359.432   -11422365.286 8  -8879387.96945  23281358.621    23281371.9064
  22787251.589     6905643.444 8   5377036.47846  22787250.624    22787264.7044
  20479407.154   -11520576.446 9  -8958928.79548  20479406.922    20479416.3784
  22080225.869   -16214106.436 8 -12623256.78046  22080225.418    22080240.3234
  21944390.344     7373212.101 9   5740728.40747  21944389.365    21944399.9204
 00  4 11 17 56 30.0000000  0  6 09 05 02 04 24 07
  21091367.436   -10078379.864 9  -7819693.89947  21091366.920    21091376.3324
  23265646.306   -11504939.066 8  -8943731.10545  23265645.439    23265658.4914
  22798854.347     6966615.211 8   5424546.74846  22798853.351    22798867.4224
  20474157.329   -11548164.383 9  -8980425.86148  20474157.116    20474166.5894
  22062534.903   -16307072.826 8 -12695697.92946  22062534.385    22062549.1144
  21956004.181     7434243.099 9   5788284.93347  21956003.225    21956013.7974
 00  4 11 17 57  0.0000000  0  6 09 05 02 04 24 07
  21087528.457   -10098554.007 9  -7835414.03147  21087527.938    21087537.3434
  23249939.548   -11587479.561 8  -9008048.30145  23249938.672    23249951.3974
  22810506.645     7027847.300 8   5472259.82346  22810505.625    22810519.7274
  20469019.696   -11575163.106 9  -9001463.80348  20469019.453    20469028.8894
  22044901.079   -16399738.807 8 -12767905.00046  22044900.563    22044915.0964
  21967639.295     7495385.441 9   5835928.22647  21967638.340    21967648.9534
 00  4 11 17 57 30.0000000  0  6 09 05 02 04 24 07
  21083797.206   -10118161.820 9  -7850692.85947  21083796.691    21083806.0674
  23234238.676   -11669989.278 8  -9072341.51646  23234237.761    23234250.2144
  22822208.199     7089338.405 8   5520174.74546  22822207.144    22822221.3184
  20463993.809   -11601574.234 9  -9022043.87248  20463993.562    20464002.9914
  22027323.900   -16492106.821 8 -12839879.88146  22027323.412    22027337.7894
  21979296.285     7556642.861 9   5883661.19347  21979295.330    21979305.9444
 00  4 11 17 58  0.0000000  0  6 09 05 02 04 24 07
  21080174.647   -10137198.696 9  -7865526.80347  21080174.139    21080183.4954
  23218542.295   -11752474.357 8  -9136615.51946  23218541.348    23218553.7484
  22833959.382     7151090.516 8   5568293.04846  22833958.339    22833972.6494
  20459077.196   -11627410.894 9  -9042176.30747  20459076.986    20459086.3854
  22009804.384   -16584171.693 8 -12911618.54846  22009803.930    22009818.2194
  21990973.504     7618006.290 9   5931476.76047  21990972.516    21990983.1074
 00  4 11 17 58 30.0000000  0  6 09 05 02 04 24 07
  21076661.127   -10155662.476 9  -7879914.18247  21076660.621    21076669.9444
  23202850.527   -11834934.387 8  -9200870.01145  23202849.552    23202862.0584
  22845756.994     7213086.906 8   5616601.69246  22845756.002    22845770.3134
  20454269.438   -11652675.797 9  -9061863.22047  20454269.214    20454278.6084
  21992342.011   -16675936.376 8 -12983123.31146  21992341.559    21992355.8214
  22002669.619     7679469.338 9   5979369.94847  22002668.639    22002679.2294
 00  4 11 17 59  0.0000000  0  6 09 05 02 04 24 07
  21073256.569   -10173553.896 9  -7893855.56547  21073256.068    21073265.3754
  23187163.837   -11917367.207 8  -9265103.28645  23187162.892    23187175.4734
  22857602.929     7275337.321 8   5665108.26846  22857601.991    22857616.3584
  20449576.133   -11677338.785 9  -9081081.10347  20449575.943    20449585.3554
  21974937.123   -16767398.902 8 -13054392.61847  21974936.678    21974950.9474
  22014384.818     7741032.962 9   6027341.51247  22014383.859    22014394.4644
 00  4 11 17 59 30.0000000  0  6 09 05 02 04 24 07
  21069964.598   -10190853.818 9  -7907336.03747  21069964.067    21069973.3724
  23171483.747   -11999765.245 8  -9329309.46645  23171482.846    23171495.4534
  22869500.390     7337858.308 8   5713825.69446  22869499.495    22869513.9814
  20445004.668   -11701361.636 9  -9099800.17547  20445004.488    20445013.9064
  21957592.186   -16858546.368 8 -13125416.42747  21957591.726    21957606.0054
  22026121.154     7802707.677 9   6075399.63747  22026120.184    22026130.8484
 00  4 11 18  0  0.0000000  0  6 09 05 02 04 24 07
  21066787.497   -10207549.595 9  -7920345.75447  21066786.967    21066796.2974
  23155813.336   -12082113.353 8  -9393476.74346  23155812.475    23155825.1014
  22881452.705     7400667.713 8   5762767.85246  22881451.860    22881466.4714
  20440561.331   -11724711.369 9  -9117994.74647  20440561.164    20440570.5654
  21940313.028   -16949348.442 8 -13196171.10647  21940312.538    21940326.8304
  22037880.511     7864503.395 9   6123552.04247  22037879.563    22037890.2914
 00  4 11 18  0 30.0000000  0  6 09 05 02 04 24 07
  21063724.962   -10223643.288 9  -7932886.31247  21063724.427    21063733.7724
  23140156.444   -12164390.689 8  -9457588.87146  23140155.583    23140168.1524
  22893462.622     7463778.923 8   5811945.18346  22893461.776    22893476.4024
  20436248.575   -11747375.171 9  -9135654.82148  20436248.410    20436257.7954
  21923101.617   -17039794.747 8 -13266648.57047  21923101.073    21923115.3814
  22049667.379     7926443.582 9   6171817.02447  22049666.434    22049677.2324
 00  4 11 18  1  0.0000000  0  6 09 05 02 04 24 07
  21060774.295   -10239149.034 9  -7944968.73147  21060773.790    21060783.1984
  23124514.002   -12246592.609 8  -9521642.25546  23124513.152    23124525.6484
  22905530.327     7527193.412 8   5861358.81546  22905529.381    22905544.0124
  20432063.332   -11769368.853 9  -9152792.72548  20432063.137    20432072.4854
  21905958.762   -17129880.239 8 -13336844.89347  21905958.211    21905972.5334
  22061481.639     7988527.660 9   6220194.12247  22061480.695    22061491.5324
 00  4 11 18  1 30.0000000  0  6 09 05 02 04 24 07
  21057933.117   -10254079.580 9  -7956602.94747  21057932.616    21057942.0474
  23108886.246   -12328717.296 8  -9585635.44046  23108885.352    23108897.8964
  22917651.599     7590889.725 8   5910992.05046  22917650.600    22917665.2364
  20427997.637   -11790734.101 9  -9169440.94848  20427997.462    20428006.7554
  21888882.164   -17219617.137 8 -13406769.58947  21888881.663    21888896.0254
  22073321.518     8050746.244 9   6268676.02947  22073320.568    22073331.4314
 00  4 11 18  2  0.0000000  0  6 09 05 02 04 24 07
  21055195.344   -10268467.003 9  -7967813.94647  21055194.832    21055204.2254
  23093269.625   -12410783.194 8  -9649582.82346  23093268.752    23093281.2694
  22929822.214     7654845.583 8   5960827.52246  22929821.244    22929835.8394
  20424040.246   -11811530.330 9  -9185645.77347  20424040.031    20424049.3054
  21871866.460   -17309034.144 8 -13476445.01947  21871866.033    21871880.3754
  22085183.820     8113082.634 9   6317249.73547  22085182.856    22085193.7654
 00  4 11 18  2 30.0000000  0  6 09 05 02 04 24 07
  21052557.721   -10282327.960 9  -7978614.71947  21052557.228    21052566.6064
  23077660.260   -12492810.242 8  -9713499.95546  23077659.390    23077671.9484
  22942036.783     7719032.400 8   6010842.95646  22942035.838    22942050.4224
  20420185.013   -11831789.760 9  -9201432.32248  20420184.810    20420194.0494
  21854905.612   -17398163.451 8 -13545896.28247  21854905.204    21854919.4274
  22097063.909     8175512.784 9   6365896.49247  22097062.981    22097073.9244
 00  4 11 18  3  0.0000000  0  6 09 05 02 04 24 07
  21050020.072   -10295663.528 9  -7989006.08347  21050019.575    21050028.9564
  23062055.446   -12574813.086 8  -9777398.19146  23062054.602    23062067.2534
  22954292.259     7783434.145 8   6061025.89146  22954291.325    22954305.9094
  20416431.964   -11851512.088 9  -9216800.34248  20416431.748    20416441.0044
  21837997.439   -17487016.498 8 -13615132.26547  21837996.979    21838011.0624
  22108957.392     8238012.628 9   6414597.56347  22108956.438    22108967.4114
 00  4 11 18  3 30.0000000  0  6 09 05 02 04 24 07
  21047585.648   -10308456.599 9  -7998974.72748  21047585.150    21047594.5264
  23046455.429   -12656791.066 8  -9841277.06045  23046454.622    23046467.2894
  22966589.587     7848056.105 8   6111380.40946  22966588.661    22966603.3254
  20412786.886   -11870666.917 9  -9231726.15548  20412786.672    20412795.9474
  21821143.783   -17575582.938 8 -13684144.92047  21821143.257    21821157.2064
  22120864.142     8300582.633 9   6463353.29747  22120863.185    22120874.1534
 00  4 11 18  4  0.0000000  0  6 09 05 02 04 24 07
  21045257.564   -10320690.887 9  -8008507.96148  21045257.062    21045266.4604
  23030861.280   -12738738.606 8  -9905132.22045  23030860.427    23030873.0824
  22978931.173     7912911.151 8   6161916.55646  22978930.278    22978945.0274
  20409258.221   -11889209.991 9  -9246175.28348  20409258.015    20409267.3074
  21804351.324   -17663827.438 8 -13752906.71947  21804350.802    21804364.6794
  22132785.221     8363228.004 9   6512167.75247  22132784.282    22132795.2754
 00  4 11 18  4 30.0000000  0  6 09 05 02 04 24 07
  21043040.905   -10332339.314 9  -8017584.68148  21043040.416    21043049.8724
  23015278.105   -12820628.970 8  -9968942.81846  23015277.205    23015289.7494
  22991320.677     7978017.628 8   6212648.60446  22991319.780    22991334.6814
  20405852.695   -11907105.795 9  -9260120.04948  20405852.502    20405861.8274
  21787626.195   -17751717.477 8 -13821392.32847  21787625.691    21787639.5924
  22144722.025     8425955.816 9   6561046.44447  22144721.078    22144732.0604
 00  4 11 18  5  0.0000000  0  6 09 05 02 04 24 07
  21040937.462   -10343393.060 9  -8026198.00148  21040936.972    21040946.4554
  22999707.597   -12902452.400 8 -10032701.26446  22999706.655    22999719.2254
  23003760.294     8043387.234 8   6263585.72346  23003759.398    23003774.3894
  20402571.823   -11924346.728 9  -9273554.51748  20402571.654    20402580.9764
  21770972.754   -17839230.953 8 -13889584.50147  21770972.250    21770986.1824
  22156677.679     8488782.716 9   6610002.36147  22156676.722    22156687.6724
 00  4 11 18  5 30.0000000  0  6 09 05 02 04 24 07
  21038948.753   -10353844.138 9  -8034341.71548  21038948.249    21038957.6884
  22984151.404   -12984200.448 8 -10096400.96646  22984150.533    22984162.9954
  23016252.601     8109033.332 8   6314738.28246  23016251.690    23016266.6714
  20399415.647   -11940932.738 9  -9286478.65548  20399415.449    20399424.7874
  21754393.122   -17926356.271 8 -13957474.21247  21754392.598    21754406.6384
  22168652.248     8551708.940 9   6659035.67047  22168651.302    22168662.2474
 00  4 11 18  6  0.0000000  0  6 09 05 02 04 24 07
  21037071.429   -10363709.850 9  -8042029.29948  21037070.919    21037080.3644
  22968609.050   -13065875.623 8 -10160043.88446  22968608.263    22968620.6334
  23028798.282     8174959.787 8   6366109.28446  23028797.295    23028812.2714
  20396377.667   -11956897.537 9  -9298918.73947  20396377.452    20396386.8244
  21737884.814   -18013107.178 8 -14025072.18147  21737884.306    21737898.3964
  22180646.117     8614736.674 9   6708148.08047  22180645.159    22180656.1484
 00  4 11 18  6 30.0000000  0  6 09 05 02 04 24 07
  21035302.316   -10373006.766 9  -8049273.66648  21035301.814    21035311.2714
  22953078.226   -13147490.111 8 -10223639.50646  22953077.435    22953089.8054
  23041394.788     8241153.832 8   6417688.79846  23041393.835    23041408.7164
  20393453.604   -11972263.270 9  -9310892.01647  20393453.406    20393462.7944
  21721442.199   -18099513.038 9 -14092401.27547  21721441.749    21721455.8254
  22192657.795     8677858.016 9   6757333.42947  22192656.823    22192667.8644
 00  4 11 18  7  0.0000000  0  6 09 05 02 04 24 07
  21033639.890   -10381742.953 9  -8056081.10348  21033639.384    21033648.8674
  22937556.604   -13229056.607 8 -10287197.74846  22937555.781    22937568.1334
  23054039.472     8307601.726 8   6469466.11546  23054038.561    23054053.5174
  20390642.956   -11987033.349 9  -9322401.15647  20390642.762    20390652.1134
  21705062.391   -18185589.191 9 -14159473.45647  21705061.948    21705075.9404
  22204688.157     8741077.808 9   6806595.48447  22204687.215    22204698.3334
 00  4 11 18  7 30.0000000  0  6 09 05 02 04 24 07
  21032083.342   -10389922.429 9  -8062454.73248  21032082.852    21032092.3164
  22922045.668   -13310566.785 8 -10350712.08146  22922044.849    22922057.1964
  23066733.265     8374307.715 8   6521444.53346  23066732.433    23066747.4834
  20387944.902   -12001211.606 9  -9333449.14047  20387944.700    20387954.0314
  21688744.591   -18271339.809 9 -14226291.96647  21688744.145    21688758.0204
  22216737.512     8804397.181 9   6855935.13747  22216736.603    22216747.7584
 00  4 11 18  8  0.0000000  0  6 09 05 02 04 24 07
  21030630.595   -10397556.713 9  -8068403.54348  21030630.108    21030639.5364
  22906543.973   -13392028.840 8 -10414188.94346  22906543.120    22906555.5054
  23079471.464     8441246.815 8   6573604.59446  23079470.674    23079485.8934
  20385358.308   -12014804.167 9  -9344040.73547  20385358.130    20385367.4034
  21672488.658   -18356765.347 9 -14292857.16747  21672488.169    21672501.8914
  22228807.162     8867823.157 9   6905357.85747  22228806.247    22228817.4374
 00  4 11 18  8 30.0000000  0  6 09 05 02 04 24 07
  21029283.981   -10404633.407 9  -8073917.86848  21029283.470    21029292.8834
  22891052.596   -13473436.300 8 -10477623.24846  22891051.744    22891064.1314
  23092253.224     8508414.105 8   6625942.46146  23092252.407    23092267.7424
  20382886.668   -12027792.888 9  -9354161.80048  20382886.461    20382895.7154
  21656297.954   -18441848.018 9 -14359155.19447  21656297.447    21656311.0344
  22240897.334     8931356.826 9   6954864.49547  22240896.398    22240907.5954
 00  4 11 18  9  0.0000000  0  6 09 05 02 04 24 07
  21028044.104   -10411148.988 9  -8078994.97048  21028043.618    21028053.0404
  22875573.321   -13554780.478 8 -10541008.24646  22875572.461    22875584.8684
  23105080.395     8575820.466 8   6678466.61546  23105079.536    23105095.0834
  20380528.866   -12040183.124 9  -9363816.52448  20380528.664    20380537.9334
  21640176.006   -18526569.165 9 -14425171.52347  21640175.498    21640189.0194
  22253007.469     8994995.590 9   7004453.01847  22253006.534    22253017.7644
 00  4 11 18  9 30.0000000  0  6 09 05 02 04 24 07
  21026910.022   -10417108.776 9  -8083638.98848  21026909.543    21026918.9634
  22860102.565   -13636080.150 8 -10604358.56146  22860101.701    22860114.1104
  23117953.111     8643465.966 8   6731177.10945  23117952.244    23117967.9034
  20378283.629   -12051981.838 9  -9373010.31848  20378283.438    20378292.6894
  21624122.701   -18610928.997 9 -14490906.30547  21624122.222    21624135.7574
  22265132.737     9058714.001 9   7054103.60947  22265131.800    22265143.0724
 00  4 11 18 10  0.0000000  0  6 09 05 02 04 24 07
  21025884.760   -10422496.862 9  -8087837.52948  21025884.283    21025893.6664
  22844639.345   -13717339.812 8 -10667677.70746  22844638.446    22844650.8924
  23130872.570     8711357.208 8   6784079.08745  23130871.720    23130887.4324
  20376154.044   -12063172.856 9  -9381730.58348  20376153.842    20376163.0834
  21608139.831   -18694918.503 9 -14556352.52247  21608139.377    21608152.9434
  22277272.655     9122509.293 9   7103814.10147  22277271.715    22277283.0044
 00  4 11 18 10 30.0000000  0  6 09 05 02 04 24 07
  21024970.427   -10427302.275 9  -8091582.03348  21024969.926    21024979.3114
  22829184.701   -13798553.867 8 -10730961.29546  22829183.835    22829196.2824
  23143843.901     8779520.776 8   6837193.26845  23143843.020    23143858.7954
  20374140.192   -12073755.547 9  -9389976.82748  20374140.026    20374149.2584
  21592227.493   -18778537.707 9 -14621510.19347  21592227.043    21592240.6044
  22289427.697     9186383.893 9   7153586.39547  22289426.761    22289438.0524
 00  4 11 18 11  0.0000000  0  6 09 05 02 04 24 07
  21024166.794   -10431525.323 9  -8094872.75148  21024166.312    21024175.7264
  22813737.974   -13879726.286 8 -10794212.44646  22813737.108    22813749.6454
  23156868.451     8847964.023 8   6890525.37745  23156867.533    23156883.3614
  20372243.346   -12083723.752 9  -9397744.25048  20372243.179    20372252.3864
  21576385.473   -18861787.463 9 -14686379.99547  21576385.020    21576398.5604
  22301596.147     9250328.807 9   7203413.47547  22301595.207    22301606.4784
 00  4 11 18 11 30.0000000  0  6 09 05 02 04 24 07
  21023474.678   -10435162.343 9  -8097706.82748  21023474.202    21023483.6044
  22798301.428   -13960844.950 8 -10857421.70646  22798300.595    22798313.1714
  23169945.459     8916682.848 8   6944072.21345  23169944.531    23169960.4724
  20370464.724   -12093070.740 9  -9405027.60748  20370464.541    20370473.7274
  21560615.386   -18944659.424 9 -14750955.39447  21560614.907    21560628.4294
  22313780.346     9314356.404 8   7253304.98447  22313779.372    22313790.6174
 00  4 11 18 12  0.0000000  0  6 09 05 02 04 24 07
  21022890.986   -10438229.692 9  -8100097.00548  21022890.516    21022899.9074
  22782879.820   -14041885.349 8 -10920569.99346  22782878.971    22782891.5744
  23183071.193     8985657.526 8   6997818.41145  23183070.184    23183086.1104
  20368800.466   -12101816.467 9  -9411842.45248  20368800.283    20368809.4724
  21544917.258   -19027153.119 9 -14815236.03647  21544916.755    21544930.2794
  22325979.944     9378465.087 8   7303259.67547  22325978.986    22325990.2464
 00  4 11 18 12 30.0000000  0  6 09 05 02 04 24 07
  21022411.350   -10440750.493 9  -8102061.30447  21022410.878    21022420.2664
  22767473.089   -14122848.137 8 -10983657.80146  22767472.187    22767484.8174
  23196240.043     9054858.421 8   7051740.87246  23196238.987    23196254.8854
  20367247.414   -12109977.829 9  -9418201.94548  20367247.238    20367256.3974
  21529289.065   -19109279.335 9 -14879230.34147  21529288.564    21529302.0844
  22338191.386     9442636.108 8   7353262.93847  22338190.452    22338201.7354
 00  4 11 18 13  0.0000000  0  6 09 05 02 04 24 07
  21022035.285   -10442726.910 9  -8103601.40147  21022034.808    21022044.1464
  22752081.874   -14203729.496 8 -11046682.14846  22752080.963    22752093.5464
  23209448.607     9124268.631 8   7105826.44446  23209447.613    23209463.4464
  20365806.675   -12117548.967 9  -9424101.51648  20365806.496    20365815.6544
  21513731.448   -19191034.622 9 -14942935.60547  21513730.964    21513744.4804
  22350411.251     9506851.288 8   7403300.61247  22350410.323    22350421.6404
 00  4 11 18 13 30.0000000  0  6 09 05 02 04 24 07
  21021762.362   -10444161.083 9  -8104718.96947  21021761.887    21021771.2354
  22736707.808   -14284520.682 8 -11109636.24346  22736706.906    22736719.4404
  23222697.101     9193888.835 8   7160075.63846  23222696.191    23222711.9364
  20364477.814   -12124532.020 9  -9429542.84048  20364477.636    20364486.8094
  21498244.107   -19272420.436 9 -15006352.96247  21498243.646    21498257.1044
  22362641.154     9571119.084 8   7453379.29047  22362640.216    22362651.5664
 00  4 11 18 14  0.0000000  0  6 09 05 02 04 24 07
  21021595.409   -10445038.531 9  -8105402.73147  21021594.953    21021604.2674
  22721349.261   -14365230.157 8 -11172526.66846  22721348.378    22721360.8474
  23235988.229     9263732.846 8   7214499.23546  23235987.320    23236003.0394
  20363265.975   -12130900.266 9  -9434505.09448  20363265.814    20363274.9784
  21482825.504   -19353445.218 9 -15069488.99547  21482825.030    21482838.4234
  22374880.200     9635434.736 8   7503495.25347  22374879.253    22374890.5984
 00  4 11 18 14 30.0000000  0  6 09 05 02 04 24 07
  21021539.319   -10445333.833 9  -8105632.87347  21021538.851    21021548.1394
  22706005.038   -14445864.238 8 -11235358.35946  22706004.111    22706016.5834
  23249328.813     9333836.908 8   7269125.47146  23249327.984    23249343.6844
  20362179.230   -12136611.414 9  -9438955.32048  20362179.027    20362188.2004
  21467478.328   -19434094.666 9 -15132332.56047  21467477.845    21467491.1344
  22387132.933     9699822.708 8   7553667.57747  22387131.971    22387143.3844
 00  4 11 18 15  0.0000000  0  6 09 05 02 04 24 07
  21021599.739   -10445016.746 9  -8105385.82747  21021599.259    21021608.5594
  22690678.854   -14526403.323 8 -11298116.00146  22690677.980    22690690.3874
  23262728.248     9404250.075 8   7323992.56646  23262727.389    23262743.2344
  20361223.944   -12141631.547 9  -9442867.09348  20361223.728    20361232.8754
  21452206.766   -19514346.424 9 -15194866.23247  21452206.287    21452219.4884
  22399405.735     9764316.490 8   7603922.35447  22399404.784    22399416.2504
 00  4 11 18 15 30.0000000  0  6 09 05 02 04 24 07
  21021776.621   -10444087.582 9  -8104661.83947  21021776.127    21021785.4494
  22675370.874   -14606846.946 8 -11360799.27346  22675369.998    22675382.3134
  23276187.941     9474979.777 8   7379106.31946  23276187.060    23276202.9984
  20360400.453   -12145958.848 9  -9446238.98947  20360400.238    20360409.3574
  21437011.111   -19594199.403 9 -15257089.16547  21437010.647    21437023.7814
  22411701.896     9828932.932 8   7654272.70347  22411700.952    22411712.5014
 00  4 11 18 16  0.0000000  0  6 09 05 02 04 24 07
  21022073.802   -10442525.875 9  -8103444.96647  21022073.321    21022082.6124
  22660083.614   -14687181.780 8 -11423397.77646  22660082.791    22660094.9594
  23289709.727     9546035.550 8   7434474.14146  23289708.750    23289724.8564
  20359709.085   -12149591.839 9  -9449069.86847  20359708.857    20359718.0034
  21421895.175   -19673633.392 9 -15318985.61447  21421894.691    21421907.7734
  22424023.356     9893682.254 8   7704726.59847  22424022.412    22424034.0454
 00  4 11 18 16 30.0000000  0  6 09 05 02 04 24 07
  21022488.259   -10440348.195 9  -8101748.11647  21022487.764    21022497.0574
  22644816.218   -14767412.501 8 -11485915.15246  22644815.370    22644827.3864
  23303291.338     9617406.066 8   7490087.21246  23303290.347    23303306.5974
  20359142.485   -12152568.916 9  -9451389.65147  20359142.269    20359151.4774
  21406858.825   -19752649.374 9 -15380556.34247  21406858.310    21406871.3814
  22436369.883     9958563.614 8   7755283.37747  22436368.945    22436380.6794
 00  4 11 18 17  0.0000000  0  6 09 05 02 04 24 07
  21023015.984   -10437575.046 9  -8099587.26348  21023015.479    21023024.7654
  22629568.864   -14847538.204 8 -11548350.69346  22629567.996    22629579.8324
  23316927.062     9689061.156 8   7545922.04146  23316926.088    23316942.5254
  20358692.408   -12154933.741 9  -9453232.35548  20358692.211    20358701.4574
  21391899.927   -19831257.948 9 -15441809.60947  21391899.436    21391912.4994
  22448736.049    10023547.969 8   7805920.40447  22448735.114    22448746.9054
 00  4 11 18 17 30.0000000  0  6 09 05 02 04 24 07
  21023652.244   -10434231.693 9  -8096982.09848  21023651.729    21023661.0184
  22614337.821   -14927578.237 8 -11610719.46746  22614336.930    22614348.6604
  23330607.276     9760950.826 8   7601939.64746  23330606.407    23330623.0844
  20358349.782   -12156734.155 9  -9454635.25948  20358349.578    20358358.8294
  21377016.255   -19909471.016 9 -15502754.69247  21377015.800    21377028.8634
  22461115.345    10088601.364 8   7856611.23047  22461114.404    22461126.2304
 00  4 11 18 18  0.0000000  0  6 09 05 02 04 24 07
  21024393.229   -10430337.986 9  -8093948.08748  21024392.726    21024402.0194
  22599119.029   -15007553.405 8 -11673037.70246  22599118.146    22599129.8364
  23344326.553     9833045.316 8   7658116.85545  23344325.630    23344342.4964
  20358109.664   -12157995.675 9  -9455618.24948  20358109.464    20358118.7264
  21362206.686   -19987294.707 9 -15563396.36147  21362206.283    21362219.3244
  22473502.601    10153696.622 8   7907334.67547  22473501.718    22473513.5984
 00  4 11 18 18 30.0000000  0  6 09 05 02 04 24 07
  21025235.757   -10425910.544 9  -8090498.17748  21025235.243    21025244.5664
  22583911.466   -15087469.292 8 -11735309.74046  22583910.594    22583922.3054
  23358081.496     9905327.212 8   7714440.09545  23358080.587    23358097.5914
  20357972.896   -12158714.241 9  -9456178.15848  20357972.739    20357981.9604
  21347471.033   -20064730.416 9 -15623735.71347  21347470.624    21347483.6554
  22485895.108    10218818.820 8   7958079.11447  22485894.179    22485906.0884
 00  4 11 18 19  0.0000000  0  6 09 05 02 04 24 07
  21026179.432   -10420951.580 9  -8086634.09148  21026178.919    21026188.2804
  22568717.058   -15167315.569 8 -11797527.54946  22568716.173    22568728.0444
  23371871.369     9977792.820 8   7770906.47645  23371870.520    23371887.6034
  20357943.612   -12158868.189 9  -9456298.10748  20357943.439    20357952.6404
  21332811.942   -20141764.251 9 -15683761.91147  21332811.502    21332824.5034
  22498291.733    10283962.595 8   8008840.36147  22498290.757    22498302.6814
 00  4 11 18 19 30.0000000  0  6 09 05 02 04 24 07
  21027227.581   -10415443.562 9  -8082342.17348  21027227.074    21027236.4694
  22553535.231   -15247095.526 8 -11859693.67346  22553534.403    22553546.3124
  23385698.450    10050453.467 8   7827524.82545  23385697.567    23385714.7664
  20358027.708   -12158426.239 9  -9455953.72448  20358027.531    20358036.7694
  21318230.526   -20218389.569 9 -15743469.78247  21318230.047    21318243.0514
  22510694.833    10349141.123 8   8059628.68646  22510693.881    22510705.8724
 00  4 11 18 20  0.0000000  0  6 09 05 02 04 24 07
  21028385.100   -10409360.594 9  -8077602.24048  21028384.582    21028394.0494
  22538371.209   -15326782.168 8 -11921787.06746  22538370.351    22538382.3444
  23399572.015    10123357.263 8   7884332.64245  23399571.063    23399588.1674
  20358235.016   -12157336.636 9  -9455104.67648  20358234.867    20358244.1244
  21303730.019   -20294589.376 9 -15802846.08947  21303729.545    21303742.5764
  22523110.680    10414386.832 8   8110469.36846  22523109.776    22523121.8604
 00  4 11 18 20 30.0000000  0  6 09 05 02 04 24 07
  21029655.534   -10402684.128 9  -8072399.84548  21029655.023    21029664.5704
  22523228.352   -15406357.466 8 -11983793.71346  22523227.494    22523239.5544
  23413498.325    10196538.455 8   7941356.61845  23413497.312    23413514.4024
  20358568.725   -12155583.105 9  -9453738.28748  20358568.556    20358577.8094
  21289309.884   -20370366.911 9 -15861893.36347  21289309.428    21289322.4524
  22535541.376    10479710.567 8   8161370.84046  22535540.520    22535552.6664
 00  4 11 18 21  0.0000000  0  6 09 05 02 04 24 07
  21031041.685   -10395399.836 9  -8066723.81548  21031041.173    21031050.7564
  22508108.555   -15485812.401 8 -12045706.57846  22508107.701    22508119.7164
  23427480.428    10270013.814 8   7998609.80745  23427479.443    23427496.5844
  20359029.127   -12153163.812 9  -9451853.12948  20359028.938    20359038.1744
  21274970.191   -20445721.736 9 -15920611.25047  21274969.765    21274982.7334
  22547989.271    10545124.407 8   8212342.53746  22547988.402    22548000.5814
 00  4 11 18 21 30.0000000  0  6 09 05 02 04 24 07
  21032544.145   -10387504.677 9  -8060571.78248  21032543.633    21032553.2044
  22493010.354   -15565153.981 8 -12107531.10146  22493009.453    22493021.4924
  23441520.482    10343793.841 8   8056100.39745  23441519.523    23441536.7214
  20359613.838   -12150091.147 9  -9449458.84748  20359613.643    20359622.8574
  21260711.176   -20520652.859 9 -15978998.97847  21260710.736    21260723.6644
  22560455.317    10610632.918 8   8263388.00746  22560454.412    22560466.5454
 00  4 11 18 22  0.0000000  0  6 09 05 02 04 24 07
  21034159.007   -10379018.905 9  -8053959.53948  21034158.495    21034168.0804
  22477934.152   -15644379.730 8 -12169265.38146  22477933.241    22477945.2434
  23455617.119    10417870.846 8   8113822.39945  23455616.144    23455633.4134
  20360316.334   -12146399.477 9  -9446582.22948  20360316.106    20360325.3244
  21246530.953   -20595169.767 9 -16037063.94847  21246530.503    21246543.3784
  22572937.242    10676225.032 8   8314498.61646  22572936.301    22572948.4524
 00  4 11 18 22 30.0000000  0  6 09 05 02 04 24 07
  21035880.985   -10369969.906 9  -8046908.41248  21035880.493    21035890.1134
  22462874.541   -15723518.363 8 -12230931.76846  22462873.676    22462885.6114
  23469762.368    10492202.993 8   8171743.21345  23469761.412    23469778.6554
  20361129.327   -12142127.014 9  -9443253.04448  20361129.104    20361138.3774
  21232428.162   -20669279.699 9 -16094811.79247  21232427.716    21232440.5064
  22585429.461    10741872.073 8   8365652.02946  22585428.543    22585440.7494
 00  4 11 18 23  0.0000000  0  6 09 05 02 04 24 07
  21037706.377   -10360377.623 9  -8039433.95148  21037705.879    21037715.5034
  22447829.759   -15802579.100 8 -12292537.46846  22447828.872    22447840.7804
  23483951.158    10566763.715 8   8229842.12345  23483950.149    23483967.4364
  20362051.864   -12137278.971 9  -9439475.35648  20362051.655    20362060.9454
  21218404.959   -20742971.251 9 -16152233.62247  21218404.524    21218417.2494
  22597932.212    10807574.601 8   8416848.68046  22597931.318    22597943.6424
 00  4 11 18 23 30.0000000  0  6 09 05 02 04 24 07
  21039634.039   -10350248.021 9  -8031540.80448  21039633.535    21039643.1364
  22432799.726   -15881562.362 8 -12354082.79646  22432798.896    22432810.6964
  23498182.121    10641546.263 8   8288113.89045  23498181.107    23498198.4764
  20363084.298   -12131853.549 9  -9435247.76748  20363084.060    20363093.3424
  21204461.340   -20816244.808 9 -16209329.74247  21204460.917    21204473.5424
  22610444.318    10873326.545 8   8468083.84246  22610443.446    22610455.9274
 00  4 11 18 24  0.0000000  0  6 09 05 02 04 24 07
  21041664.599   -10339577.164 9  -8023225.89548  21041664.099    21041673.7454
  22417786.797   -15960455.652 8 -12415558.00846  22417785.980    22417797.7404
  23512454.121    10716544.673 8   8346553.84345  23512453.056    23512470.5794
  20364229.458   -12125835.743 9  -9430558.58147  20364229.208    20364238.5124
  21190597.254   -20889100.720 9 -16266100.42947  21190596.825    21190609.3104
  22622966.822    10939132.524 8   8519361.11146  22622965.956    22622978.5164
 00  4 11 18 24 30.0000000  0  6 09 05 02 04 24 07
  21043799.450   -10328358.566 9  -8014484.18048  21043798.961    21043808.6254
  22402792.261   -16039252.599 8 -12476958.14646  22402791.400    22402803.1314
  23526769.117    10791769.367 8   8405170.11345  23526768.107    23526785.6294
  20365493.655   -12119192.232 9  -9425381.83747  20365493.422    20365502.7314
  21176817.088   -20961515.924 9 -16322527.71247  21176816.635    21176828.9754
  22635501.985    11005004.733 8   8570689.97246  22635501.069    22635513.7414
 00  4 11 18 25  0.0000000  0  6 09 05 02 04 24 07
  21046043.978   -10316563.692 9  -8005293.41748  21046043.487    21046053.0954
  22387819.213   -16117936.280 8 -12538270.02146  22387818.346    22387830.0304
  23541131.287    10867241.543 8   8463979.24445  23541130.215    23541147.8274
  20366878.524   -12111914.655 9  -9419711.00847  20366878.304    20366887.5944
  21163121.822   -21033484.764 9 -16378607.17547  21163121.366    21163133.5824
  22648052.160    11070955.899 8   8622080.36846  22648051.300    22648064.0164
 00  4 11 18 25 30.0000000  0  6 09 05 02 04 24 07
  21048401.333   -10304175.543 9  -7995640.36347  21048400.825    21048410.4984
  22372869.819   -16196495.248 8 -12599484.71746  22372868.995    22372880.6534
  23555542.905    10942973.432 8   8522990.73345  23555541.817    23555559.3484
  20368384.022   -12104003.306 9  -9413546.33447  20368383.801    20368393.0444
  21149511.022   -21105009.558 9 -16434340.63547  21149510.549    21149522.7344
  22660616.429    11136980.976 8   8673528.36146  22660615.542    22660628.3224
 00  4 11 18 26  0.0000000  0  6 09 05 02 04 24 07
  21050871.476   -10291194.677 9  -7985525.45147  21050870.985    21050880.7594
  22357943.649   -16274932.659 8 -12660604.69846  22357942.788    22357954.4484
  23570003.852    11018964.847 8   8582204.47445  23570002.786    23570020.4384
  20370008.399   -12095467.203 9  -9406894.84147  20370008.197    20370017.3864
  21135985.795   -21176084.179 9 -16489723.31747  21135985.322    21135997.5794
  22673194.876    11203080.432 8   8725034.30546  22673193.924    22673206.7964
 00  4 11 18 26 30.0000000  0  6 09 05 02 04 24 07
  21053456.009   -10277613.352 9  -7974942.65447  21053455.536    21053465.3324
  22343039.066   -16353256.664 8 -12721636.31846  22343038.197    22343049.7684
  23584512.697    11095208.251 8   8641614.55345  23584511.622    23584529.4944
  20371748.024   -12086325.638 9  -9399771.55748  20371747.832    20371756.9954
  21122546.855   -21246705.019 9 -16544752.40947  21122546.406    21122558.7904
  22685784.601    11269238.944 8   8776586.26246  22685783.658    22685796.4954
 00  4 11 18 27  0.0000000  0  6 09 05 02 04 24 07
  21056154.342   -10263433.967 9  -7963893.84347  21056153.848    21056163.6694
  22328155.373   -16431470.860 8 -12782582.36946  22328154.491    22328166.0024
  23599069.214    11171702.082 8   8701219.79345  23599068.165    23599086.1734
  20373600.281   -12076592.064 9  -9392186.97448  20373600.090    20373609.2454
  21109190.296   -21316893.242 9 -16599444.39847  21109189.872    21109202.3384
  22698384.614    11335451.313 8   8828180.18646  22698383.685    22698396.4664
 00  4 11 18 27 30.0000000  0  6 09 05 02 04 24 07
  21058961.683   -10248681.467 9  -7952398.45047  21058961.194    21058971.0094
  22313292.690   -16509574.282 8 -12843442.10746  22313291.820    22313303.3314
  23613671.977    11248439.247 8   8761014.62845  23613670.926    23613689.2654
  20375564.806   -12066268.510 9  -9384142.66448  20375564.630    20375573.7454
  21095916.338   -21386648.018 9 -16653798.64347  21095915.862    21095928.3544
  22710994.468    11401715.320 8   8879814.34546  22710993.536    22711006.2824
 00  4 11 18 28  0.0000000  0  6 09 05 02 04 24 07
  21061875.587   -10233369.208 9  -7940466.88247  21061875.097    21061884.8864
  22298447.414   -16587585.725 8 -12904230.17046  22298446.577    22298458.1544
  23628320.801    11325418.347 8   8820997.98945  23628319.774    23628338.3334
  20377639.835   -12055364.297 9  -9375645.88648  20377639.644    20377648.7554
  21082725.582   -21455965.431 9 -16707812.08147  21082725.083    21082737.5674
  22723614.252    11468031.807 8   8931489.40546  22723613.300    22723626.0044
 00  4 11 18 28 30.0000000  0  6 09 05 02 04 24 07
  21064894.808   -10217503.504 9  -7928104.06347  21064894.307    21064904.1234
  22283619.337   -16665506.979 8 -12964947.95946  22283618.532    22283630.1764
  23643016.275    11402642.820 8   8881172.52745  23643015.291    23643033.9444
  20379826.852   -12043871.253 9  -9366690.28748  20379826.689    20379835.7964
  21069617.727   -21524847.350 9 -16761486.18547  21069617.248    21069629.6774
  22736243.057    11534396.231 8   8983201.81346  22736242.177    22736254.8924
 00  4 11 18 29  0.0000000  0  6 09 05 02 04 24 07
  21068017.717   -10201092.570 9  -7915316.38647  21068017.235    21068027.0804
  22268809.862   -16743330.613 8 -13025589.68446  22268809.034    22268820.7884
  23657759.077    11480115.758 8   8941540.67745  23657758.196    23657776.8334
  20382125.255   -12031793.094 9  -9357278.74948  20382125.108    20382134.2014
  21056591.533   -21593300.140 9 -16814825.89847  21056591.066    21056603.3584
  22748882.656    11600817.337 8   9034958.38346  22748881.747    22748894.4834
 00  4 11 18 29 30.0000000  0  6 09 05 02 04 24 07
  21071244.682   -10184135.022 9  -7902102.78547  21071244.181    21071254.0554
  22254019.483   -16821054.007 8 -13086153.29846  22254018.634    22254030.4344
  23672544.594    11557813.124 8   9002083.71345  23672543.709    23672562.4444
  20384531.295   -12019149.407 9  -9347426.53848  20384531.143    20384540.2444
  21043648.487   -21661316.262 9 -16867825.34647  21043647.996    21043660.1304
  22761530.518    11667281.524 8   9086748.52646  22761529.561    22761542.3174
 00  4 11 18 30  0.0000000  0  6 09 05 02 04 24 07
  21074575.078   -10166633.643 9  -7888465.42347  21074574.596    21074584.4924
  22239250.339   -16898666.041 8 -13146630.12546  22239249.478    22239261.2564
  23687371.558    11635727.658 8   9062795.97445  23687370.684    23687389.4284
  20387044.732   -12005941.344 9  -9337134.55748  20387044.563    20387053.7224
  21030787.097   -21728903.012 9 -16920490.22547  21030786.590    21030798.6244
  22774183.996    11733775.652 8   9138561.99346  22774183.071    22774195.8474
 00  4 11 18 30 30.0000000  0  6 09 05 02 04 24 07
  21078008.858   -10148589.345 9  -7874405.00148  21078008.378    21078018.2434
  22224507.116   -16976141.929 8 -13207000.87546  22224506.284    22224517.9984
  23702235.676    11713837.416 8   9123660.32645  23702234.803    23702253.4614
  20389665.739   -11992167.623 9  -9326401.80048  20389665.588    20389674.7624
  21018005.952   -21796067.563 9 -16972826.11147  21018005.468    21018017.5164
  22786840.674    11800286.606 8   9190388.57146  22786839.769    22786852.6224
 00  4 11 18 31  0.0000000  0  6 09 05 02 04 24 07
  21081545.778   -10130003.620 9  -7859922.68848  21081545.280    21081555.0704
  22209792.217   -17053469.290 8 -13267255.88746  22209791.381    22209802.9904
  23717135.131    11792132.578 8   9184669.15045  23717134.200    23717152.9824
  20392394.275   -11977829.433 9  -9315229.19848  20392394.099    20392403.2274
  21005306.280   -21862803.962 9 -17024828.38047  21005305.800    21005317.8914
  22799501.759    11866820.776 8   9242233.23546  22799500.824    22799513.7764
 00  4 11 18 31 30.0000000  0  6 09 05 02 04 24 07
  21085184.060   -10110884.677 9  -7845024.88648  21085183.551    21085193.3194
  22195105.877   -17130646.286 8 -13327393.74946  22195105.049    22195116.6154
  23732071.921    11870624.207 8   9245831.06145  23732071.028    23732089.8384
  20395236.919   -11962891.355 9  -9303589.15748  20395236.721    20395245.8694
  20992692.043   -21929091.641 9 -17076481.00447  20992691.562    20992703.6584
  22812167.489    11933379.669 8   9294097.15046  22812166.576    22812179.6584
 00  4 11 18 32  0.0000000  0  6 09 05 02 04 24 07
  21088925.714   -10091222.518 9  -7829703.79248  21088925.201    21088935.0354
  22180449.606   -17207665.289 8 -13387408.48846  22180448.785    22180460.3134
  23747052.996    11949348.299 8   9307174.12545  23747052.087    23747071.0044
  20398201.052   -11947314.629 9  -9291451.46248  20398200.899    20398210.0514
  20980166.964   -21994911.054 9 -17127768.75147  20980166.473    20980178.5384
  22824843.605    11999992.919 8   9346003.42746  22824842.720    22824855.8604
 00  4 11 18 32 30.0000000  0  6 09 05 02 04 24 07
  21092775.461   -10070992.438 9  -7813940.17348  21092774.956    21092784.8284
  22165820.725   -17284540.589 8 -13447311.25846  22165819.912    22165831.4114
  23762080.874    12028319.567 7   9368709.78445  23762080.004    23762099.1744
  20401289.467   -11931085.172 9  -9278805.14948  20401289.301    20401298.4574
  20967734.453   -22060243.900 9 -17178677.36147  20967733.970    20967745.9854
  22837534.532    12066683.211 8   9397969.72746  22837533.624    22837546.6974
 00  4 11 18 33  0.0000000  0  6 09 05 02 04 24 07
  21096736.762   -10050176.003 9  -7797719.65148  21096736.233    21096746.1444
  22151217.877   -17361279.207 8 -13507107.52646  22151217.071    22151228.4674
  23777163.632    12107578.874 8   9430469.89445  23777162.822    23777182.2144
  20404505.686   -11914184.136 9  -9265635.53048  20404505.515    20404514.6724
  20955399.738   -22125062.687 9 -17229185.40947  20955399.259    20955411.2444
  22850245.366    12133477.893 8   9450017.37446  22850244.375    22850257.4334
 00  4 11 18 33 30.0000000  0  6 09 05 02 04 24 07
  21100813.225   -10028753.647 9  -7781026.98148  21100812.711    21100822.7284
  22136640.471   -17437884.170 8 -13566799.64146  22136639.613    22136650.9774
  23792305.303    12187147.357 8   9492470.90745  23792304.570    23792323.9554
  20407850.743   -11896605.648 9  -9251938.02747  20407850.569    20407859.7314
  20943163.735   -22189362.580 9 -17279289.12847  20943163.270    20943175.2594
  22862976.420    12200379.398 8   9502148.24746  22862975.481    22862988.4694
 00  4 11 18 34  0.0000000  0  6 09 05 02 04 24 07
  21105008.159   -10006708.962 9  -7763849.37847  21105007.697    21105017.7884
  22122088.910   -17514353.263 8 -13626385.87546  22122088.037    22122099.3804
  23807503.665    12267013.309 8   9554703.69045  23807502.868    23807522.2634
  20411320.060   -11878374.270 9  -9237731.78547  20411319.867    20411329.0874
  20931026.344   -22253144.290 9 -17328989.07147  20931025.903    20931037.9024
  22875727.395    12267385.166 8   9554360.36646  22875726.434    22875739.4274
 00  4 11 18 34 30.0000000  0  6 09 05 02 04 24 07
  21109320.154    -9984049.675 9  -7746192.86347  21109319.672    21109329.8074
  22107561.791   -17590693.133 8 -13685871.41846  22107560.944    22107572.3184
  23822755.755    12347161.914 8   9617156.72545  23822755.029    23822774.4404
  20414909.410   -11859511.784 9  -9223033.76547  20414909.232    20414918.5354
  20918986.320   -22316414.777 9 -17378290.65547  20918985.888    20918997.8754
  22888492.993    12334467.530 8   9606632.17846  22888492.007    22888504.8244
 00  4 11 18 35  0.0000000  0  6 09 05 02 04 24 07
  21113745.633    -9960793.627 9  -7728071.34247  21113745.138    21113755.3234
  22093062.377   -17666887.423 8 -13745243.52646  22093061.552    22093072.9534
  23838060.488    12427587.100 8   9679825.28245  23838059.714    23838079.2784
  20418615.955   -11840033.893 9  -9207856.20947  20418615.766    20418625.0974
  20907040.525   -22379190.216 9 -17427206.49047  20907040.057    20907052.0554
  22901270.604    12401613.362 8   9658953.43046  22901269.621    22901282.3214
 00  4 11 18 35 30.0000000  0  6 09 05 02 04 24 07
  21118282.645    -9936951.371 9  -7709493.03247  21118282.157    21118292.3824
  22078593.958   -17742919.052 8 -13804488.88046  22078593.129    22078604.4824
  23853412.059    12508258.273 8   9742685.51145  23853411.257    23853430.8764
  20422435.974   -11819959.387 9  -9192213.75347  20422435.782    20422445.1184
  20895185.112   -22441490.258 9 -17475751.88347  20895184.655    20895196.6084
  22914058.433    12468812.711 8   9711316.40846  22914057.428    22914070.0434
 00  4 11 18 36  0.0000000  0  6 09 05 02 04 24 07
  21122925.368    -9912554.157 9  -7690482.28848  21122924.873    21122935.1384
  22064156.735   -17818786.844 8 -13863606.56946  22064155.933    22064167.2454
  23868805.687    12589150.922 8   9805718.32045  23868804.889    23868824.7404
  20426363.501   -11799320.081 9  -9176131.19847  20426363.303    20426372.6574
  20883416.960   -22503332.021 9 -17523940.17747  20883416.492    20883428.3974
  22926852.433    12536044.929 8   9763704.98946  22926851.421    22926864.0794
 00  4 11 18 36 30.0000000  0  6 09 05 02 04 24 07
  21127669.635    -9887623.258 9  -7671055.69047  21127669.139    21127679.4234
  22049749.779   -17894495.722 8 -13922600.42846  22049748.947    22049760.2284
  23884241.425    12670264.527 8   9868923.30345  23884240.603    23884260.5714
  20430395.149   -11778133.627 9  -9159622.29547  20430394.952    20430404.3134
  20871731.461   -22564739.352 9 -17571789.95547  20871730.992    20871742.8484
  22939650.677    12603299.545 8   9816111.01846  22939649.710    22939662.3724
 00  4 11 18 37  0.0000000  0  7 09 05 02 04 16 24 07
  21132511.351    -9862179.943 9  -7651229.80147  21132510.847    21132521.1924
  22035370.321   -17970059.973 8 -13981481.59046  22035369.481    22035380.7414
  23899714.676    12751575.175 8   9932281.83845  23899713.822    23899733.9454
  20434527.785   -11756416.411 9  -9142699.80547  20434527.601    20434536.9544
  24544721.643     -510455.085 7   -394225.00645  24544720.933    24544739.2494
  20860125.651   -22625727.986 9 -17619313.47347  20860125.196    20860137.0284
  22952450.862    12670564.074 8   9868524.77646  22952449.849    22952462.5764
 00  4 11 18 37 30.0000000  0  7 09 05 02 04 16 24 07
  21137450.529    -9836224.278 9  -7631004.68547  21137450.068    21137460.4364
  22021017.461   -18045484.351 8 -14040253.75846  22021016.657    22021027.8204
  23915226.322    12833087.328 8   9995797.36945  23915225.443    23915245.4664
  20438762.382   -11734163.633 9  -9125360.00047  20438762.199    20438771.5074
  24542314.796     -523099.683 7   -404077.84645  24542312.611    24542333.8384
  20848604.986   -22686269.091 9 -17666488.27547  20848604.532    20848616.3494
  22965253.003    12737838.999 8   9920946.62046  22965251.966    22965264.7084
 00  4 11 18 38  0.0000000  0  7 09 05 02 04 16 24 07
  21142488.854    -9809748.240 9  -7610374.08447  21142488.380    21142498.6954
  22006689.011   -18120780.567 8 -14098926.05346  22006688.177    22006699.3414
  23930780.214    12914821.769 8  10059486.11445  23930779.265    23930799.2424
  20443102.044   -11711358.874 9  -9107590.07847  20443101.845    20443111.0894
  24539998.275     -535273.014 7   -413563.47745  24539997.393    24540016.6914
  20837173.356   -22746342.312 9 -17713298.49047  20837172.886    20837184.7034
  22978057.989    12805129.477 8   9973380.59246  22978057.002    22978069.7084
 00  4 11 18 38 30.0000000  0  7 09 05 02 04 16 24 07
  21147629.293    -9782735.743 9  -7589325.46747  21147628.801    21147639.0924
  21992384.118   -18195953.064 8 -14157501.94946  21992383.270    21992394.4014
  23946376.695    12996780.230 8  10123349.41845  23946375.658    23946395.7804
  20447551.394   -11687977.487 9  -9089370.84048  20447551.195    20447560.4354
  24537776.755     -546947.042 7   -422660.03145  24537776.062    24537794.7894
  20825833.970   -22805930.352 9 -17759730.64647  20825833.506    20825845.3264
  22990868.489    12872448.653 8  10025836.92746  22990867.464    22990880.3014
 00  4 11 18 39  0.0000000  0  7 09 05 02 04 16 24 07
  21152871.994    -9755185.120 9  -7567857.53147  21152871.522    21152881.8204
  21978103.025   -18271000.284 8 -14215980.22546  21978102.217    21978113.3394
  23962014.236    13078954.703 8  10187381.02345  23962013.282    23962033.5124
  20452111.636   -11664013.234 9  -9070697.42748  20452111.468    20452120.7104
  24535652.793     -558107.373 7   -431356.30745  24535651.782    24535670.9524
  20814589.336   -22865020.704 9 -17805775.00147  20814588.880    20814600.6614
  23003686.474    12939806.935 8  10078323.72546  23003685.420    23003698.3584
 00  4 11 18 39 30.0000000  0  7 09 05 02 04 16 24 07
  21158216.153    -9727101.725 9  -7545974.44647  21158215.692    21158225.9434
  21963847.358   -18345913.907 8 -14274354.40046  21963846.545    21963857.6874
  23977693.580    13161348.548 8  10251583.56245  23977692.648    23977712.9394
  20456782.566   -11639467.620 9  -9051570.99848  20456782.374    20456791.6064
  24533631.173     -568730.283 7   -439633.79145  24533630.142    24533649.6354
  20803439.369   -22923613.957 9 -17851431.99947  20803438.919    20803450.6804
  23016514.459    13007217.904 8  10130851.58446  23016513.419    23016526.4074
 00  4 11 18 40  0.0000000  0  7 09 05 02 04 16 24 07
  21163664.175    -9698472.812 9  -7523666.29147  21163663.700    21163673.8904
  21949619.610   -18420681.173 8 -14332614.53046  21949618.765    21949629.9304
  23993413.670    13243956.059 8  10315952.59145  23993412.666    23993433.0424
  20461565.580   -11614332.850 9  -9031985.49048  20461565.373    20461574.5774
  24531712.497     -578812.874 7   -447490.28144  24531711.549    24531730.8764
  20792381.780   -22981721.860 9 -17896710.80147  20792381.344    20792393.0494
  23029353.475    13074686.900 8  10183424.65346  23029352.411    23029365.4704
 00  4 11 18 40 30.0000000  0  7 09 05 02 04 16 24 07
  21169216.638    -9669294.971 9  -7500930.39347  21169216.166    21169226.3094
  21935423.498   -18495281.795 8 -14390744.80346  21935422.673    21935433.8364
  24009174.274    13326776.652 8  10380487.65445  24009173.284    24009193.6684
  20466462.585   -11588598.972 9  -9011933.14448  20466462.373    20466471.6034
  24529893.682     -588370.640 7   -454937.82844  24529892.769    24529911.9764
  20781417.973   -23039336.925 9 -17941605.57547  20781417.524    20781429.1284
  23042204.391    13142218.205 8  10236046.28046  23042203.324    23042216.4454
 00  4 11 18 41  0.0000000  0  7 09 05 02 04 16 24 07
  21174874.401    -9639563.631 9  -7477763.20447  21174873.930    21174884.0444
  21921261.934   -18569701.111 8 -14448733.82246  21921261.107    21921272.1904
  24024977.286    13409820.732 8  10445196.85945  24024976.355    24024996.8554
  20471473.259   -11562267.676 9  -8991415.28148  20471473.044    20471482.2844
  24528174.401     -597405.331 7   -461977.78744  24528173.528    24528192.7554
  20770550.504   -23096445.737 9 -17986105.87847  20770550.058    20770561.5514
  23055066.239    13209806.510 8  10288712.30746  23055065.140    23055078.2544
 00  4 11 18 41 30.0000000  0  7 09 05 02 04 16 24 07
  21180637.511    -9609278.635 9  -7454164.58847  21180637.030    21180647.1524
  21907135.052   -18643937.865 8 -14506580.57846  21907134.227    21907145.2924
  24040824.731    13493098.297 8  10510087.99645  24040823.824    24040844.4934
  20476597.729   -11535338.394 9  -8970431.44748  20476597.517    20476606.7934
  24526554.629     -605916.691 7   -468609.97544  24526553.800    24526573.1894
  20759778.625   -23153052.120 9 -18030214.66847  20759778.165    20759789.6374
  23067935.698    13277435.664 8  10341410.17546  23067934.661    23067947.8344
 00  4 11 18 42  0.0000000  0  7 09 05 02 04 16 24 07
  21186508.148    -9578428.290 9  -7430125.44447  21186507.696    21186517.8404
  21893042.205   -18717996.056 8 -14564288.19947  21893041.393    21893052.4724
  24056717.900    13576615.951 8  10575166.22345  24056716.991    24056737.8064
  20481836.814   -11507806.791 9  -8948978.27748  20481836.620    20481845.9144
  24525032.251     -613915.713 7   -474842.88844  24525031.375    24525050.9854
  20749103.395   -23209150.242 9 -18073927.41847  20749102.955    20749114.4804
  23080809.286    13345086.329 8  10394124.79246  23080808.229    23080821.5014
 00  4 11 18 42 30.0000000  0  7 09 05 02 04 16 24 07
  21192485.440    -9547017.522 9  -7405649.60947  21192484.998    21192495.1374
  21878983.229   -18791876.084 8 -14621856.98447  21878982.406    21878993.5414
  24072659.816    13660388.941 8  10640443.41145  24072658.773    24072679.7534
  20487190.594   -11479672.636 9  -8927055.58948  20487190.403    20487199.7104
  24523608.201     -621399.076 7   -480674.00844  24523607.140    24523626.9904
  20738527.846   -23264724.760 9 -18117232.16947  20738527.406    20738538.9554
  23093687.927    13412763.572 8  10446860.12246  23093686.873    23093700.2344
 00  4 11 18 43  0.0000000  0  7 09 05 02 04 16 24 07
  21198567.519    -9515056.828 9  -7380745.25947  21198567.047    21198577.1994
  21864958.049   -18865578.637 8 -14679287.47747  21864957.225    21864968.3464
  24088652.324    13744428.034 8  10705927.92945  24088651.393    24088672.3134
  20492653.667   -11450964.022 9  -8904685.26948  20492653.491    20492662.7744
  24522285.901     -628347.584 7   -486088.32544  24522284.855    24522304.5934
  20728048.409   -23319794.326 9 -18160143.44847  20728047.961    20728059.5044
  23106572.453    13480471.762 8  10499619.57246  23106571.443    23106584.8414
 00  4 11 18 43 30.0000000  0  7 09 05 02 04 16 24 07
  21204749.233    -9482572.144 9  -7355432.60347  21204748.758    21204758.9664
  21850963.232   -18939121.935 8 -14736593.88947  21850962.404    21850973.4434
  24104691.444    13828712.284 7  10771603.47445  24104690.558    24104711.5944
  20498222.842   -11421698.002 9  -8881880.60848  20498222.676    20498231.9584
  24521062.732     -634775.029 7   -491096.62344  24521061.513    24521081.4884
  20717659.538   -23374387.889 9 -18202683.81947  20717659.083    20717670.5714
  23119462.959    13548211.361 8  10552403.48846  23119461.970    23119475.4594
 00  4 11 18 44  0.0000000  0  7 09 05 02 04 16 24 07
  21211030.601    -9449563.650 9  -7329711.78747  21211030.129    21211040.3744
  21836997.586   -19012511.513 8 -14793780.51447  21836996.742    21837007.7874
  24120772.125    13913215.247 7  10837449.45145  24120771.218    24120792.4034
  20503895.287   -11391889.409 9  -8858653.16848  20503895.099    20503904.3784
  24519935.595     -640697.074 7   -495711.13244  24519934.363    24519954.1104
  20707362.448   -23428499.321 9 -18244848.50647  20707361.982    20707373.4154
  23132361.488    13615992.834 8  10605220.03146  23132360.510    23132374.0024
 00  4 11 18 44 30.0000000  0  7 09 05 02 04 16 24 07
  21217409.792    -9416041.200 9  -7303590.49047  21217409.313    21217419.5724
  21823062.780   -19085738.898 8 -14850840.75947  21823061.919    21823073.0444
  24136891.754    13997923.017 7  10903455.00745  24136890.887    24136912.2244
  20509666.076   -11361564.005 9  -8835023.01647  20509665.874    20509675.1604
  24518903.810     -646119.480 7   -499936.28044  24518902.737    24518922.1644
  20697153.715   -23482146.236 9 -18286651.23547  20697153.239    20697164.6804
  23145270.395    13683828.826 8  10658079.05546  23145269.403    23145282.9824
 00  4 11 18 45  0.0000000  0  7 09 05 02 04 16 24 07
  21223882.086    -9382029.375 9  -7277087.85947  21223881.612    21223891.9234
  21809154.545   -19158826.440 8 -14907792.03447  21809153.687    21809164.8354
  24153043.709    14082800.159 7  10969592.55545  24153042.736    24153064.3784
  20515529.134   -11330753.529 9  -8811014.88747  20515528.915    20515538.2374
  24517961.648     -651070.277 7   -503793.92344  24517960.250    24517979.9634
  20687026.319   -23535365.591 9 -18328120.79747  20687025.830    20687037.3004
  23158185.316    13751696.736 8  10710962.95646  23158184.342    23158197.9814
 00  4 11 18 45 30.0000000  0  7 09 05 02 04 16 24 07
  21230449.643    -9347517.260 9  -7250195.40347  21230449.156    21230459.4844
  21795272.416   -19231777.297 8 -14964636.80747  21795271.557    21795282.7204
  24169226.114    14167836.826 7  11035854.36545  24169225.092    24169246.8684
  20521491.452   -11299421.553 9  -8786600.40047  20521491.237    20521500.5254
  24517106.356     -655563.787 7   -507295.27044  24517105.262    24517124.6854
  20676985.818   -23588128.499 9 -18369234.69247  20676985.341    20676996.7774
  23171105.194    13819590.526 8  10763867.01246  23171104.228    23171117.9584
 00  4 11 18 46  0.0000000  0  7 09 05 02 04 16 24 07
  21237116.906    -9312481.013 9  -7222894.52747  21237116.400    21237126.7784
  21781420.654   -19304568.451 8 -15021357.13547  21781419.807    21781430.9544
  24185445.738    14253068.834 7  11102268.40645  24185444.654    24185466.5384
  20527557.309   -11267545.860 9  -8761762.23647  20527557.058    20527566.3164
  24516342.286     -659579.610 7   -510424.36544  24516341.000    24516360.8654
  20667038.791   -23640400.212 9 -18409965.83047  20667038.307    20667049.6864
  23184031.134    13887516.041 8  10816795.80746  23184030.140    23184043.9164
 00  4 11 18 46 30.0000000  0  7 09 05 02 04 16 24 07
  21243882.325    -9276928.529 9  -7195191.39947  21243881.857    21243892.2604
  21767599.999   -19377196.473 8 -15077950.35647  21767599.135    21767610.2624
  24201708.225    14338526.567 7  11168858.32545  24201707.027    24201728.9794
  20533730.237   -11235106.932 9  -8736485.20347  20533730.004    20533739.2704
  24515670.237     -663112.361 7   -513177.03744  24515669.187    24515688.6974
  20657184.318   -23692185.628 9 -18450318.04347  20657183.869    20657195.1974
  23196961.372    13955463.936 8  10869742.01646  23196960.398    23196974.2234
 00  4 11 18 47  0.0000000  0  7 09 05 02 04 16 24 07
  21250750.331    -9240837.304 9  -7167068.46947  21250749.852    21250760.2604
  21753812.241   -19449651.207 8 -15134408.54547  21753811.400    21753822.5434
  24218018.268    14424234.799 7  11235643.43745  24218017.096    24218039.2404
  20540018.919   -11202059.326 9  -8710733.86747  20540018.701    20540028.0254
  24515094.170     -666139.346 7   -515535.68744  24515092.646    24515112.5654
  20647429.729   -23743446.201 9 -18490261.28447  20647429.282    20647440.5634
  23209896.990    14023439.806 8  10922710.03946  23209895.943    23209909.8104
 00  4 11 18 47 30.0000000  0  7 09 05 02 04 16 24 07
  21257724.201    -9204189.808 9  -7138512.08247  21257723.714    21257734.1304
  21740061.191   -19521912.924 8 -15190716.32647  21740060.369    21740071.5274
  24234379.703    14510213.643 7  11302639.39745  24234378.468    24234400.8604
  20546424.757   -11168396.516 9  -8684503.15447  20546424.546    20546433.8804
  24514618.185     -668640.718 7   -517484.74644  24514616.855    24514636.2164
  20637780.345   -23794153.933 9 -18529773.73348  20637779.912    20637791.1364
  23222837.931    14091443.980 8  10975700.11246  23222836.854    23222850.7324
 00  4 11 18 48  0.0000000  0  7 09 05 02 04 16 24 07
  21264804.734    -9166981.872 9  -7109518.97947  21264804.222    21264814.6704
  21726350.612   -19593962.343 8 -15246858.68047  21726349.781    21726360.9094
  24250792.631    14596463.225 7  11369846.31545  24250791.496    24250814.3404
  20552942.479   -11134145.798 9  -8657814.32447  20552942.284    20552951.6244
  24514245.017     -670600.789 7   -519011.97244  24514243.696    24514262.9994
  20628234.289   -23844318.626 9 -18568863.03248  20628233.851    20628245.0314
  23235786.256    14159487.223 8  11028720.64646  23235785.180    23235799.1294
 00  4 11 18 48 30.0000000  0  7 09 05 02 04 16 24 07
  21271988.604    -9129230.589 9  -7080102.49747  21271988.089    21271998.5464
  21712677.941   -19665812.392 8 -15302845.68347  21712677.136    21712688.2624
  24267247.819    14682933.865 7  11437225.48345  24267246.773    24267269.6724
  20559566.286   -11099337.586 9  -8630691.09447  20559566.088    20559575.4224
  24513973.282     -672025.848 7   -520122.34744  24513971.771    24513991.6144
  20618785.457   -23893972.188 9 -18607554.05648  20618785.012    20618796.1784
  23248738.082    14227549.118 8  11081755.69446  23248737.104    23248751.0734
 00  4 11 18 49  0.0000000  0  7 09 05 02 04 16 24 07
  21279275.438    -9090938.265 9  -7050264.41947  21279274.934    21279285.4114
  21699044.736   -19737455.370 8 -15358671.32147  21699043.934    21699054.9934
  24283739.639    14769596.177 7  11504754.00645  24283738.646    24283761.4504
  20566292.128   -11063993.262 9  -8603150.10647  20566291.922    20566301.2584
  24513805.369     -672907.338 7   -520809.15944  24513803.797    24513823.8684
  20609434.360   -23943112.196 9 -18645844.90048  20609433.936    20609445.1424
  23261692.269    14295622.917 8  11134800.03246  23261691.256    23261705.2634
 00  4 11 18 49 30.0000000  0  7 09 05 02 04 16 24 07
  21286661.000    -9052127.080 9  -7020022.03747  21286660.521    21286671.0474
  21685448.808   -19808902.511 8 -15414344.37047  21685447.987    21685459.0084
  24300265.743    14856439.330 7  11572423.43845  24300264.886    24300287.8664
  20573114.611   -11028140.842 9  -8575213.20547  20573114.419    20573123.7714
  24513739.189     -673255.162 7   -521080.12444  24513737.442    24513757.4654
  20600177.529   -23991756.972 9 -18683749.85948  20600177.114    20600188.3464
  23274647.094    14363700.814 8  11187847.56146  23274646.117    23274660.1864
 00  4 11 18 50  0.0000000  0  7 09 05 02 04 16 24 07
  21294141.678    -9012816.228 9  -6989390.31147  21294141.203    21294151.7404
  21671887.736   -19880166.356 8 -15469874.58347  21671886.915    21671897.9004
  24316822.351    14943443.146 7  11640218.06545  24316821.434    24316844.7894
  20580034.609   -10991776.306 9  -8546877.24747  20580034.418    20580043.7544
  24513772.485     -673080.725 7   -520944.13144  24513771.119    24513790.8944
  20591010.724   -24039928.834 9 -18721286.31548  20591010.270    20591021.4864
  23287602.868    14431783.625 8  11240898.92646  23287601.949    23287616.1334
 00  4 11 18 50 30.0000000  0  7 09 05 02 04 16 24 07
  21301716.571    -8973010.460 9  -6958372.93447  21301716.099    21301726.6274
  21658360.573   -19951252.125 9 -15525266.03447  21658359.740    21658370.7214
  24333412.468    15030623.000 7  11708149.84145  24333411.588    24333435.1884
  20587056.394   -10954877.046 9  -8518124.62047  20587056.217    20587065.4894
  24513905.986     -672379.061 7   -520397.33644  24513904.646    24513924.0624
  20581936.784   -24087612.381 9 -18758442.26748  20581936.302    20581947.5184
  23300560.251    14499874.399 8  11293956.49845  23300559.239    23300573.5444
 00  4 11 18 51  0.0000000  0  7 09 05 02 04 16 24 07
  21309386.846    -8932703.384 9  -6926964.93647  21309386.359    21309396.8794
  21644869.518   -20022147.696 8 -15580509.29047  21644868.689    21644879.7184
  24350046.912    15118035.157 7  11776262.63445  24350046.043    24350069.7634
  20594185.205   -10917415.409 9  -8488933.78447  20594185.012    20594194.2394
  24514138.982     -671154.630 7   -519443.19344  24514138.224    24514156.9334
  20572962.888   -24134770.036 9 -18795188.44848  20572962.425    20572973.6324
  23313526.709    14568012.772 8  11347051.14345  23313525.731    23313539.9974
 00  4 11 18 51 30.0000000  0  7 09 05 02 04 16 24 07
  21317151.612    -8891899.420 9  -6895169.73947  21317151.113    21317161.7054
  21631412.564   -20092864.181 9 -15635612.98847  21631411.735    21631422.7804
  24366726.139    15205682.021 7  11844558.29545  24366725.166    24366748.9164
  20601421.049   -10879390.777 9  -8459304.24747  20601420.853    20601430.1304
  24514467.389     -669428.353 7   -518097.99144  24514466.599    24514485.3464
  20564089.475   -24181399.927 9 -18831523.37048  20564088.997    20564100.1794
  23326504.717    14636212.185 8  11400193.36245  23326503.797    23326518.0324
 00  4 11 18 52  0.0000000  0  6 09 05 04 16 24 07
  21325014.319    -8850580.886 9  -6862973.59047  21325013.840    21325024.4754
  21617995.967   -20163368.546 8 -15690551.41147  21617995.154    21618006.1754
  20608768.556   -10840779.264 9  -8429217.40247  20608768.377    20608777.6874
  24514895.790     -667176.451 7   -516343.24744  24514895.149    24514914.1024
  20555322.339   -24227471.130 9 -18867422.96148  20555321.837    20555333.0164
  23339500.878    14704507.009 8  11453409.92145  23339499.960    23339514.2634
 00  4 11 18 52 30.0000000  0  6 09 05 04 16 24 07
  21332984.990    -8808694.986 9  -6830335.34147  21332984.502    21332995.2134
  21604628.169   -20233616.551 8 -15745290.07847  21604627.378    21604638.3734
  20616234.808   -10801544.069 9  -8398644.56747  20616234.608    20616243.9644
  24515433.506     -664350.852 7   -514141.45744  24515432.989    24515451.7384
  20546672.931   -24272923.490 9 -18902840.33148  20546672.455    20546683.6454
  23352522.959    14772938.002 8  11506732.57545  23352522.105    23352536.3524
 00  4 11 18 53  0.0000000  0  6 09 05 04 16 24 07
  21341052.450    -8766300.326 9  -6797300.65247  21341051.967    21341062.7394
  21591297.897   -20303666.918 8 -15799874.74347  21591297.116    21591308.1124
  20623805.058   -10761762.194 9  -8367645.74247  20623804.847    20623814.2644
  24516068.965     -661011.146 7   -511539.11644  24516068.240    24516086.7794
  20538126.932   -24317832.766 9 -18937834.51448  20538126.461    20538137.6244
  23365556.036    14841427.059 8  11560100.48845  23365555.123    23365569.6134
 00  4 11 18 53 30.0000000  0  6 09 05 04 16 24 07
  21349216.789    -8723397.153 9  -6763869.72547  21349216.285    21349227.0884
  21578006.658   -20373512.731 8 -15854300.01847  21578005.847    21578016.8204
  20631476.320   -10721449.477 9  -8336233.26947  20631476.136    20631485.5954
  24516806.578     -657135.195 7   -508518.87744  24516805.709    24516824.4294
  20529681.944   -24362211.576 9 -18972415.34348  20529681.477    20529692.5454
  23378594.226    14909943.121 8  11613489.43445  23378593.377    23378608.0764
 00  4 11 18 54  0.0000000  0  6 09 05 04 16 24 07
  21357476.637    -8679991.494 9  -6730047.25947  21357476.117    21357487.0184
  21564754.134   -20443155.026 8 -15908566.71547  21564753.322    21564764.2884
  20639246.864   -10680614.868 9  -8304414.13947  20639246.697    20639256.1794
  24517648.432     -652711.045 7   -505071.51744  24517647.465    24517666.4854
  20521336.484   -24406067.322 9 -19006588.59648  20521336.005    20521346.9764
  23391633.392    14978463.644 8  11666881.84245  23391632.500    23391647.3184
 00  4 11 18 54 30.0000000  0  6 09 05 04 16 24 07
  21365834.851    -8636068.783 9  -6695821.88747  21365834.370    21365845.3814
  21551539.578   -20512597.777 8 -15962677.91247  21551538.740    21551549.7784
  20647116.624   -10639259.086 9  -8272188.89047  20647116.469    20647125.9034
  24518595.599     -647733.162 7   -501192.66944  24518594.761    24518613.6914
  20513089.579   -24449405.102 9 -19040358.23648  20513089.084    20513100.0024
  23404669.456    15046966.941 8  11720260.82745  23404668.444    23404683.2484
 00  4 11 18 55  0.0000000  0  6 09 05 04 16 24 07
  21374288.910    -8591642.973 9  -6661204.48947  21374288.418    21374299.4824
  21538364.346   -20581834.064 9 -16016628.22847  21538363.511    21538374.5304
  20655083.763   -10597391.401 9  -8239564.75947  20655083.593    20655093.0464
  24519646.930     -642208.475 7   -496887.72344  24519646.181    24519664.9754
  20504940.453   -24492228.940 9 -19073727.40248  20504939.946    20504950.8424
  23417702.793    15115456.581 8  11773629.17145  23417701.782    23417716.6224
 00  4 11 18 55 30.0000000  0  7 09 05 30 04 16 24 07
  21382829.575    -8546761.923 9  -6626232.35947  21382829.075    21382840.1374
  21525221.948   -20650898.052 9 -16070444.28647  21525221.100    21525232.0844
  24555784.557    -5669286.345 7  -4392343.16445  24555784.234    24555799.8824
  20663140.341   -10555053.662 9  -8206574.35147  20663140.186    20663149.6954
  24520793.333     -636184.315 7   -492193.57244  24520792.738    24520810.9644
  20496881.592   -24534578.135 9 -19106726.71448  20496881.085    20496891.9964
  23430730.041    15183914.953 8  11826973.15545  23430729.153    23430744.0914
 00  4 11 18 56  0.0000000  0  7 09 05 30 04 16 24 07
  21391465.256    -8501381.416 9  -6590871.04147  21391464.747    21391475.8344
  21512118.955   -20719754.832 9 -16124098.88447  21512118.081    21512128.9894
  24537071.648    -5767623.081 8  -4468969.15545  24537071.449    24537086.9524
  20671296.541   -10512192.683 9  -8173176.22447  20671296.389    20671305.8644
  24522039.258     -629637.498 7   -487092.16844  24522038.855    24522056.7154
  20488917.470   -24576429.569 9 -19139338.16448  20488916.968    20488927.8884
  23443762.118    15252398.346 8  11880336.62845  23443761.241    23443776.1704
 00  4 11 18 56 30.0000000  0  7 09 05 30 04 16 24 07
  21400196.544    -8455498.560 9  -6555118.28647  21400196.042    21400207.1524
  21499058.067   -20788390.168 9 -16177580.91247  21499057.182    21499068.0284
  24518359.088    -5865958.292 7  -4545593.94645  24518358.883    24518374.3384
  20679556.004   -10468789.266 9  -8139355.41247  20679555.841    20679565.3054
  24523385.444     -622564.132 7   -481580.43544  24523385.105    24523403.1544
  20481048.473   -24617781.137 9 -19171560.10448  20481047.986    20481058.8914
  23456803.254    15320928.237 8  11933736.33445  23456802.203    23456817.1334
 00  4 11 18 57  0.0000000  0  7 09 05 30 04 16 24 07
  21409022.484    -8409118.617 9  -6518978.19247  21409021.962    21409033.0554
  21486042.999   -20856784.845 9 -16230875.41947  21486042.113    21486052.8674
  24499645.126    -5964300.715 8  -4622224.36145  24499644.829    24499660.4484
  20687919.447   -10424839.228 9  -8105108.66847  20687919.281    20687928.7344
  24524830.195     -614971.502 7   -475664.07044  24524829.703    24524848.1374
  20473274.336   -24658634.181 9 -19203393.58548  20473273.847    20473284.7684
  23469857.951    15389530.064 8  11987192.10745  23469856.905    23469871.8504
 00  4 11 18 57 30.0000000  0  7 09 05 30 04 16 24 07
  21417945.521    -8362228.317 9  -6482440.41847  21417944.995    21417956.0384
  21473072.430   -20924945.628 9 -16283987.67247  21473071.562    21473082.2154
  24480930.808    -6062644.878 8  -4698856.11145  24480930.614    24480946.3904
  20696387.895   -10380337.539 9  -8070432.07047  20696387.699    20696397.2304
  24526374.673     -606855.200 7   -469339.61144  24526374.085    24526392.2874
  20465596.089   -24698983.328 9 -19234834.42248  20465595.593    20465606.5424
  23482924.714    15458196.304 8  12040698.07046  23482923.770    23482938.7724
 00  4 11 18 58  0.0000000  0  7 09 05 30 04 16 24 07
  21426966.036    -8314825.589 9  -6445503.36547  21426965.520    21426976.5564
  21460144.190   -20992883.670 9 -16336926.36047  21460143.352    21460153.9514
  24462217.208    -6160985.874 8  -4775485.40845  24462217.050    24462232.8604
  20704959.205   -10335294.962 9  -8035334.00647  20704959.005    20704968.6004
  24528016.841     -598225.396 7   -462615.05344  24528016.317    24528034.5664
  20458016.797   -24738812.615 9 -19265870.17748  20458016.300    20458027.2464
  23495997.979    15526896.304 8  12094230.33746  23495997.009    23496012.1514
 00  4 11 18 58 30.0000000  0  7 09 05 30 04 16 24 07
  21436083.160    -8266915.354 9  -6408170.84247  21436082.638    21436093.7124
  21447258.726   -21060597.038 9 -16389689.97447  21447257.882    21447268.4434
  24443501.862    -6259335.912 8  -4852121.73545  24443501.666    24443517.5374
  20713628.053   -10289739.809 9  -7999836.53247  20713627.864    20713637.5094
  24529757.486     -589077.098 7   -455486.45944  24529756.915    24529775.6124
  20450541.333   -24778096.212 9 -19296480.71648  20450540.845    20450551.7754
  23509074.541    15595613.405 8  12147775.93146  23509073.447    23509088.6534
 00  4 11 18 59  0.0000000  0  7 09 05 30 04 16 24 07
  21445295.549    -8218504.801 9  -6370448.46847  21445295.031    21445306.1224
  21434413.603   -21128098.506 9 -16442288.46847  21434412.755    21434423.2684
  24424783.732    -6357700.253 8  -4928769.21445  24424783.564    24424799.3214
  20722388.374   -10243704.181 9  -7963964.66647  20722388.169    20722397.8774
  24531595.885     -579415.670 7   -447958.03744  24531595.211    24531614.0394
  20443171.112   -24816826.711 9 -19326660.27348  20443170.618    20443181.5204
  23522149.176    15664320.731 8  12201313.91246  23522148.185    23522163.3454
 00  4 11 18 59 30.0000000  0  7 09 05 30 04 16 24 07
  21454601.115    -8169604.246 9  -6332344.26647  21454600.619    21454611.7284
  21421605.296   -21195406.510 9 -16494736.21547  21421604.442    21421614.8944
  24406063.285    -6456077.105 8  -5005426.42745  24406063.164    24406078.7784
  20731238.401   -10197197.300 9  -7927725.59247  20731238.192    20731247.9464
  24533533.061     -569235.676 7   -440025.54444  24533532.509    24533551.0204
  20435907.343   -24854997.918 9 -19356404.01548  20435906.836    20435917.7374
  23535217.356    15732993.626 8  12254825.06346  23535216.408    23535231.5704
 00  4 11 19  0  0.0000000  0  7 09 05 30 04 16 24 07
  21463996.297    -8120232.700 9  -6293873.07147  21463995.805    21464006.9154
  21408836.934   -21262504.635 9 -16547020.42147  21408836.051    21408846.4484
  24387339.033    -6554473.308 8  -5082098.72745  24387338.916    24387354.5474
  20740178.508   -10150217.140 9  -7891117.73347  20740178.283    20740188.0374
  24535570.173     -558530.181 7   -431683.56644  24535569.449    24535588.3194
  20428746.906   -24892625.910 9 -19385724.48448  20428746.413    20428757.3184
  23548281.219    15801643.205 8  12308318.02346  23548280.244    23548295.3934
 00  4 11 19  0 30.0000000  0  7 09 05 30 04 16 24 07
  21473480.226    -8070395.296 9  -6255038.86147  21473479.709    21473490.8154
  21396111.696   -21329376.065 9 -16599127.98547  21396110.821    21396121.1714
  24368610.020    -6652895.007 7  -5158790.87245  24368609.862    24368625.3504
  20749212.801   -10102741.771 9  -7854123.99147  20749212.579    20749222.2944
  24537710.824     -547281.728 7   -422918.51245  24537709.937    24537728.9134
  20421687.697   -24929722.178 9 -19414630.62048  20421687.220    20421698.0984
  23561347.759    15870307.208 8  12361822.23446  23561346.759    23561361.9284
 00  4 11 19  1  0.0000000  0  7 09 05 30 04 16 24 07
  21483051.425    -8020098.770 9  -6215846.89547  21483050.893    21483062.0424
  21383432.308   -21396006.532 9 -16651047.79347  21383431.448    21383441.7214
  24349878.741    -6751328.624 7  -5235492.33045  24349878.560    24349893.6544
  20758345.680   -10054748.206 9  -7816726.46247  20758345.476    20758355.1654
  24539956.932     -535478.421 7   -413721.09745  24539956.193    24539974.9414
  20414727.978   -24966295.818 9 -19443129.51648  20414727.478    20414738.3214
  23574423.305    15939018.913 8  12415363.60746  23574422.356    23574437.5744
 00  4 11 19  1 30.0000000  0  7 09 05 30 04 16 24 07
  21492709.227    -7969346.849 9  -6176300.06647  21492708.737    21492719.9424
  21370800.437   -21462387.231 9 -16702772.97447  21370799.563    21370809.8474
  24331146.380    -6849766.840 7  -5312197.35245  24331146.179    24331161.2354
  20767580.049   -10006221.379 9  -7778913.40047  20767579.844    20767589.5154
  24542309.643     -523114.824 7   -404087.11845  24542308.603    24542327.7064
  20407867.461   -25002347.753 9 -19471221.89148  20407866.958    20407877.7614
  23587513.815    16007809.173 8  12468966.18746  23587512.934    23587528.1804
 00  4 11 19  2  0.0000000  0  7 09 05 30 04 16 24 07
  21502453.697    -7918139.702 9  -6136398.51647  21502453.181    21502464.4414
  21358215.532   -21528521.308 9 -16754305.98647  21358214.656    21358224.9474
  24312412.004    -6948216.094 7  -5388910.97545  24312411.778    24312426.8674
  20776914.566    -9957168.307 9  -7740690.28347  20776914.351    20776924.0064
  24544767.838     -510197.119 7   -394021.35245  24544766.752    24544785.8164
  20401107.290   -25037872.468 9 -19498903.45348  20401106.808    20401117.5754
  23600621.345    16076688.554 8  12522638.20646  23600620.420    23600635.7004
 00  4 11 19  2 30.0000000  0  7 09 05 30 04 16 24 07
  21512286.391    -7866469.023 9  -6096135.77347  21512285.884    21512297.1654
  21345673.957   -21594427.314 9 -16805661.28047  21345673.078    21345683.4374
  24293677.149    -7046667.945 7  -5465626.63345  24293677.028    24293692.0394
  20786347.002    -9907600.825 9  -7702066.33347  20786346.792    20786356.4554
  24547328.884     -496738.042 7   -383533.77445  24547327.669    24547346.8524
  20394449.446   -25072859.472 9 -19526166.01948  20394448.957    20394459.7394
  23613742.154    16145637.297 8  12576364.27746  23613741.097    23613756.4384
 00  4 11 19  3  0.0000000  0  7 09 05 30 04 16 24 07
  21522206.810    -7814337.499 9  -6055513.94447  21522206.287    21522217.5814
  21333174.553   -21660111.786 9 -16856843.94347  21333173.671    21333184.0754
  24274942.886    -7145116.757 7  -5542339.91445  24274942.627    24274957.9044
  20795873.548    -9857538.817 9  -7663057.03747  20795873.326    20795882.9944
  24549991.847     -482743.772 7   -372629.11244  24549990.615    24550009.8914
  20387894.980   -25107302.916 9 -19553005.03048  20387894.505    20387905.3064
  23626867.966    16214612.851 8  12630111.22446  23626866.970    23626882.2694
 00  4 11 19  3 30.0000000  0  7 09 05 30 04 16 24 07
  21532216.355    -7761737.406 9  -6014526.99847  21532215.837    21532227.1604
  21320715.999   -21725581.797 8 -16907859.49947  21320715.106    21320725.5404
  24256208.138    -7243567.758 8  -5619054.91345  24256207.947    24256223.3874
  20805491.406    -9806996.989 9  -7623673.86447  20805491.178    20805500.8804
  24552753.706     -468229.959 7   -361319.62944  24552752.783    24552771.6584
  20381444.414   -25141200.650 9 -19579418.81248  20381443.930    20381454.7424
  23639991.341    16283576.255 8  12683848.72146  23639990.395    23640005.7934
 00  4 11 19  4  0.0000000  0  7 09 05 30 04 16 24 07
  21542318.302    -7708651.820 9  -5973161.75047  21542317.774    21542329.1124
  21308301.860   -21790818.152 9 -16958692.98647  21308300.990    21308311.4084
  24237474.625    -7342012.696 8  -5695765.20145  24237474.405    24237489.9614
  20815201.844    -9755968.479 9  -7583911.46447  20815201.626    20815211.3454
  24555616.352     -453186.738 7   -349597.60044  24555615.632    24555634.1784
  20375097.705   -25174552.991 9 -19605407.61548  20375097.204    20375107.9904
  23653110.130    16352515.220 8  12737567.17546  23653109.223    23653124.6924
 00  4 11 19  4 30.0000000  0  7 09 05 30 04 16 24 07
  21552512.436    -7655081.775 9  -5931418.99747  21552511.896    21552523.2594
  21295937.726   -21855791.922 8 -17009321.87047  21295936.840    21295947.2724
  24218746.433    -7440429.720 8  -5772453.74145  24218746.151    24218761.6354
  20825005.610    -9704449.499 9  -7543766.88647  20825005.409    20825015.1754
  24558580.243     -437611.037 7   -337460.67744  24558579.340    24558598.3954
  20368853.599   -25207365.969 9 -19630976.14148  20368853.096    20368863.8434
  23666225.302    16421434.846 8  12791270.55146  23666224.313    23666239.8614
 00  4 11 19  5  0.0000000  0  7 09 05 30 04 16 24 07
  21562797.906    -7601031.738 9  -5889302.22647  21562797.366    21562808.7674
  21283627.365   -21920482.898 9 -17059730.38547  21283626.472    21283636.9904
  24200024.178    -7538815.737 8  -5849118.10445  24200024.041    24200039.4514
  20834902.679    -9652440.023 9  -7503240.09947  20834902.477    20834912.3224
  24561648.092     -421489.578 7   -324898.44844  24561647.275    24561666.3354
  20362713.840   -25239630.210 9 -19656117.07748  20362713.337    20362724.0824
  23679341.391    16490359.499 8  12844977.83845  23679340.403    23679355.9154
 00  4 11 19  5 30.0000000  0  6 09 05 30 04 24 07
  21573174.447    -7546502.860 9  -5846812.33147  21573173.932    21573185.3744
  21271371.483   -21984887.660 9 -17109915.88147  21271370.577    21271381.1644
  24181308.661    -7637166.866 8  -5925755.28045  24181308.499    24181323.7594
  20844892.725    -9599942.259 9  -7462332.82747  20844892.521    20844902.3794
  20356677.550   -25271350.937 9 -19680834.49748  20356677.076    20356687.7664
  23692463.967    16559318.160 8  12898711.63645  23692462.980    23692478.4984
 00  4 11 19  6  0.0000000  0  6 09 05 30 04 24 07
  21583638.646    -7491513.563 9  -5803963.66947  21583638.128    21583649.6344
  21259169.662   -22049008.475 9 -17159880.11747  21259168.774    21259179.4014
  24162601.273    -7735475.454 8  -6002359.28145  24162601.029    24162616.0954
  20854975.826    -9546955.702 9  -7421044.67548  20854975.591    20854985.4664
  20350744.452   -25302529.427 9 -19705129.39348  20350743.963    20350754.6364
  23705596.427    16628328.893 8  12952486.01845  23705595.447    23705611.0084
 00  4 11 19  6 30.0000000  0  6 09 05 30 04 24 07
  21594186.609    -7436083.916 9  -5760771.88647  21594186.096    21594197.6744
  21247017.940   -22112865.589 9 -17209638.87647  21247017.076    21247027.7644
  24143900.373    -7833749.417 8  -6078936.29245  24143900.196    24143915.0624
  20865147.470    -9493503.547 9  -7379393.72148  20865147.249    20865157.1184
  20344913.188   -25333172.918 9 -19729007.41348  20344912.700    20344923.3794
  23718737.602    16697385.341 8  13006296.00845  23718736.620    23718752.2224
 00  4 11 19  7  0.0000000  0  6 09 05 30 04 24 07
  21604818.816    -7380211.604 9  -5717235.16647  21604818.315    21604829.9854
  21234912.824   -22176478.523 9 -17259207.36547  21234911.976    21234922.6654
  24125202.041    -7932009.151 8  -6155502.20745  24125201.821    24125216.7574
  20875407.024    -9439589.557 9  -7337382.89248  20875406.806    20875416.6624
  20339182.468   -25363287.675 9 -19752473.42648  20339181.967    20339192.6734
  23731885.301    16766476.155 8  13060132.77545  23731884.278    23731899.9684
 00  4 11 19  7 30.0000000  0  6 09 05 30 04 24 07
  21615533.252    -7323907.406 9  -5673361.90847  21615532.738    21615544.4764
  21222852.119   -22239857.902 9 -17308593.85947  21222851.236    21222861.9254
  24106505.296    -8030259.862 7  -6232061.09045  24106505.154    24106520.1694
  20885754.148    -9385215.363 9  -7295013.46348  20885753.933    20885763.7574
  20333549.528   -25392888.766 9 -19775539.17948  20333549.027    20333559.7374
  23745036.583    16835586.385 8  13113984.68245  23745035.623    23745051.3904
 00  4 11 19  8  0.0000000  0  6 09 05 30 04 24 07
  21626330.340    -7267169.054 9  -5629150.35147  21626329.813    21626341.5504
  21210835.880   -22303003.698 9 -17357798.34347  21210834.985    21210845.6754
  24087809.577    -8128504.513 7  -6308615.25445  24087809.497    24087824.7394
  20896188.962    -9330380.591 9  -7252285.14048  20896188.739    20896198.5304
  20328015.789   -25421968.472 9 -19798198.66148  20328015.268    20328026.0024
  23758191.547    16904715.895 8  13167851.60245  23758190.637    23758206.5134
 00  4 11 19  8 30.0000000  0  6 09 05 30 04 24 07
  21637211.763    -7209987.570 9  -5584593.50247  21637211.230    21637222.9724
  21198864.572   -22365913.115 9 -17406818.63947  21198863.702    21198874.3844
  24069113.070    -8226753.678 7  -6385172.94645  24069113.090    24069128.5084
  20906711.001    -9275087.353 9  -7209199.56348  20906710.765    20906720.5554
  20322579.569   -25450535.785 9 -19820458.87848  20322579.051    20322589.7914
  23771348.053    16973852.880 8  13221724.34845  23771347.168    23771363.0954
 00  4 11 19  9  0.0000000  0  6 09 05 30 04 24 07
  21648176.854    -7152366.069 9  -5539693.77647  21648176.339    21648188.1404
  21186938.579   -22428584.658 9 -17455653.57447  21186937.698    21186948.3674
  24050415.846    -8325007.936 8  -6461734.59645  24050415.834    24050431.3024
  20917321.370    -9219329.438 9  -7165751.89948  20917321.150    20917331.0004
  20317240.814   -25478590.775 9 -19842319.87348  20317240.327    20317251.0374
  23784507.809    17043006.915 8  13275610.37845  23784506.868    23784522.9804
 00  4 11 19  9 30.0000000  0  6 09 05 30 04 24 07
  21659222.695    -7094320.158 9  -5494463.34347  21659222.192    21659234.0194
  21175059.502   -22491009.360 9 -17504296.16547  21175058.632    21175069.2734
  24031718.744    -8423262.137 8  -6538296.21845  24031718.608    24031734.0414
  20928018.879    -9163113.838 9  -7121947.59748  20928018.664    20928028.5764
  20312000.428   -25506129.018 9 -19863778.20948  20311999.955    20312010.6164
  23797670.726    17112178.030 8  13329509.71645  23797669.716    23797686.0164
 00  4 11 19 10  0.0000000  0  6 09 05 30 04 24 07
  21670351.721    -7035837.745 9  -5448892.78747  21670351.208    21670363.0024
  21163229.006   -22553178.959 9 -17552739.97747  21163228.132    21163238.7084
  24013024.337    -8521502.769 8  -6614847.25745  24013024.208    24013039.3234
  20938803.558    -9106439.983 9  -7077786.21748  20938803.348    20938813.2844
  20306858.899   -25533148.004 9 -19884831.93348  20306858.405    20306869.0354
  23810835.222    17181357.737 8  13383415.76145  23810834.361    23810850.7134
 00  4 11 19 10 30.0000000  0  6 09 05 30 04 24 07
  21681563.609    -6976919.860 9  -5402982.90547  21681563.066    21681574.8654
  21151448.462   -22615086.297 9 -17600979.42747  21151447.567    21151458.0634
  23994333.475    -8619725.006 8  -6691383.97445  23994333.218    23994348.1394
  20949675.995    -9049305.126 9  -7033265.61248  20949675.771    20949685.7064
  20301817.570   -25559640.302 9 -19905475.24948  20301817.065    20301827.6734
  23824000.194    17250539.435 8  13437323.33645  23823999.299    23824015.8184
 00  4 11 19 11  0.0000000  0  6 09 05 30 04 24 07
  21692857.710    -6917569.605 9  -5356736.11547  21692857.167    21692869.0124
  21139719.349   -22676723.309 9 -17649008.22647  21139718.467    21139728.8944
  23975648.283    -8717916.680 8  -6767896.87345  23975648.014    23975662.7734
  20960634.878    -8991715.807 9  -6988390.88348  20960634.665    20960644.6184
  20296880.688   -25585583.648 9 -19925690.80648  20296880.202    20296890.7914
  23837167.096    17319730.952 8  13491238.56845  23837166.203    23837182.7084
 00  4 11 19 11 30.0000000  0  6 09 05 30 04 24 07
  21704235.904    -6857777.481 9  -5310145.00847  21704235.380    21704247.2244
  21128045.306   -22738070.876 9 -17696811.48647  21128044.409    21128054.7824
  23956970.400    -8816069.079 8  -6844379.15745  23956970.146    23956984.8924
  20971680.985    -8933668.220 9  -6943159.06548  20971680.797    20971690.7504
  20292051.926   -25610958.626 9 -19945463.47848  20292051.465    20292062.0294
  23850334.733    17388925.795 8  13545156.40945  23850333.748    23850350.2184
 00  4 11 19 12  0.0000000  0  6 09 05 30 04 24 07
  21715700.501    -6797531.196 9  -5263200.01347  21715699.983    21715711.7864
  21116426.502   -22799127.841 9 -17744388.30447  21116425.613    21116435.9564
  23938301.464    -8914173.656 8  -6920824.18545  23938301.239    23938316.1004
  20982815.465    -8875156.635 9  -6897565.68948  20982815.269    20982825.2274
  20287334.610   -25635748.402 9 -19964780.14848  20287334.141    20287344.6574
  23863504.516    17458132.288 7  13599083.32845  23863503.520    23863520.0764
 00  4 11 19 12 30.0000000  0  6 09 05 30 04 24 07
  21727251.929    -6736828.741 9  -5215899.55947  21727251.397    21727263.1524
  21104865.405   -22859881.688 9 -17791728.92947  21104864.516    21104874.8224
  23919639.538    -9012240.891 8  -6997240.11445  23919639.428    23919654.3334
  20994036.999    -8816187.373 9  -6851615.68548  20994036.791    20994046.7564
  20282731.617   -25659937.508 9 -19983628.76948  20282731.108    20282741.5954
  23876679.106    17527364.745 7  13653030.48545  23876678.120    23876694.8254
 00  4 11 19 13  0.0000000  0  7 09 05 30 10 04 24 07
  21738894.497    -6675647.532 9  -5168226.05447  21738893.947    21738905.6794
  21093368.872   -22920296.135 9 -17838805.08047  21093367.965    21093378.2934
  23900991.234    -9110236.693 7  -7073600.37145  23900991.149    23901006.1224
  24576238.710    -4638075.887 7  -3587458.29745  24576237.615    24576265.7794
  21005351.753    -8756728.387 9  -6805284.07548  21005351.538    21005361.5014
  20278244.711   -25683516.095 9 -20002001.65548  20278244.214    20278254.6714
  23889864.780    17596655.437 7  13707023.01545  23889863.811    23889880.7514
 00  4 11 19 13 30.0000000  0  7 09 05 30 10 04 24 07
  21750624.523    -6614006.398 9  -5120194.17147  21750623.976    21750635.6954
  21081933.197   -22980390.394 9 -17885631.74447  21081932.312    21081942.7084
  23882354.649    -9208171.510 7  -7149913.09845  23882354.650    23882369.6244
  24557848.041    -4734718.082 7  -3662763.50845  24557847.047    24557875.0954
  21016758.403    -8696786.436 9  -6758576.13748  21016758.191    21016768.1384
  20273867.301   -25706519.337 9 -20019926.22948  20273866.794    20273877.2494
  23903059.778    17665995.102 7  13761053.69845  23903058.805    23903075.8994
 00  4 11 19 14  0.0000000  0  7 09 05 30 10 04 24 07
  21762437.123    -6551931.196 9  -5071824.04847  21762436.549    21762448.3424
  21070553.766   -23040189.319 9 -17932228.27547  21070552.890    21070563.3524
  23863727.485    -9306057.587 8  -7226187.84945  23863727.456    23863742.4014
  24539446.023    -4831420.543 7  -3738115.65345  24539444.946    24539472.9244
  21028252.801    -8636383.382 9  -6711508.89148  21028252.583    21028262.5164
  20269592.242   -25728984.692 9 -20037431.67048  20269591.744    20269602.2144
  23916261.297    17735368.844 7  13815110.94345  23916260.227    23916277.4024
 00  4 11 19 14 30.0000000  0  7 09 05 30 10 04 24 07
  21774327.992    -6489444.549 9  -5023133.32747  21774327.456    21774339.3414
  21059230.215   -23099694.354 9 -17978595.79747  21059229.359    21059239.9334
  23845109.908    -9403893.515 8  -7302423.53745  23845109.774    23845124.7604
  24521031.816    -4928187.207 7  -3813517.79945  24521030.654    24521058.4564
  21039834.350    -8575522.268 9  -6664084.71748  21039834.126    21039844.0524
  20265414.032   -25750941.067 9 -20054540.50648  20265413.546    20265424.0424
  23929467.296    17804766.656 7  13869186.91945  23929466.235    23929483.6084
 00  4 11 19 15  0.0000000  0  7 09 05 30 10 04 24 07
  21786291.716    -6426575.454 9  -4974144.59047  21786291.164    21786303.1654
  21047959.664   -23158921.108 9 -18024746.47747  21047958.802    21047969.4484
  23826502.936    -9501673.386 8  -7378615.53045  23826502.835    23826517.9054
  24502602.693    -5025031.508 7  -3888980.44245  24502601.374    24502629.1244
  21051503.674    -8514199.721 9  -6616300.98848  21051503.437    21051513.3814
  20261329.989   -25772402.758 9 -20071263.87548  20261329.474    20261339.9904
  23942676.427    17874180.537 7  13923275.42245  23942675.580    23942692.8124
 00  4 11 19 15 30.0000000  0  7 09 05 30 10 04 24 07
  21798327.640    -6363326.772 9  -4924860.06747  21798327.092    21798339.1674
  21036740.825   -23217876.227 9 -18070685.49547  21036739.958    21036750.5964
  23807904.949    -9599406.170 8  -7454770.82245  23807904.890    23807919.9714
  24484156.236    -5121965.740 7  -3964513.13745  24484154.983    24484182.7904
  21063257.378    -8452433.583 9  -6568171.60048  21063257.150    21063267.1034
  20257343.110   -25793353.885 9 -20087589.40648  20257342.594    20257353.0934
  23955887.353    17943603.413 7  13977370.92145  23955886.475    23955903.5994
 00  4 11 19 16  0.0000000  0  7 09 05 30 10 04 24 07
  21810436.933    -6299692.326 9  -4875274.95747  21810436.379    21810448.5234
  21025577.332   -23276540.495 9 -18116397.88347  21025576.466    21025587.0594
  23789314.951    -9697097.057 8  -7530893.47445  23789314.790    23789330.0084
  24465694.239    -5218981.026 7  -4040108.97845  24465693.104    24465720.9014
  21075095.465    -8390224.031 9  -6519696.69748  21075095.225    21075105.2194
  20253456.982   -25813775.302 9 -20103502.17948  20253456.444    20253466.9314
  23969100.551    18013036.854 7  14031474.66445  23969099.497    23969116.7294
 00  4 11 19 16 30.0000000  0  7 09 05 30 10 04 24 07
  21822619.943    -6235670.680 9  -4825388.13347  21822619.385    21822631.6054
  21014470.630   -23334906.492 9 -18161877.84847  21014469.755    21014480.3124
  23770731.352    -9794754.268 8  -7606989.87045  23770731.186    23770746.4464
  24447216.818    -5316078.343 7  -4115768.71845  24447215.776    24447243.3134
  21087018.134    -8327570.078 9  -6470875.50348  21087017.871    21087027.9224
  20249674.845   -25833650.121 9 -20118989.03248  20249674.332    20249684.8224
  23982316.110    18082482.926 7  14085588.25145  23982315.019    23982332.0354
 00  4 11 19 17  0.0000000  0  7 09 05 30 10 04 24 07
  21834882.629    -6171230.902 9  -4775175.49447  21834882.055    21834894.2904
  21003421.378   -23392970.609 9 -18207122.58247  21003420.485    21003431.0264
  23752156.000    -9892368.242 8  -7683052.59345  23752155.795    23752171.0184
  24428729.469    -5413228.611 7  -4191469.70445  24428728.294    24428755.7984
  21099026.146    -8264467.550 9  -6421704.77748  21099025.918    21099035.9634
  20246000.942   -25852956.457 9 -20134032.91448  20246000.426    20246010.9124
  23995537.462    18151960.025 7  14139725.98745  23995536.216    23995553.2304
 00  4 11 19 17 30.0000000  0  7 09 05 30 10 04 24 07
  21847227.271    -6106360.680 9  -4724627.44547  21847226.649    21847238.9174
  20992429.530   -23450733.119 9 -18252132.30547  20992428.624    20992439.1104
  23733587.925    -9989944.015 8  -7759085.54945  23733587.749    23733602.7454
  24410234.454    -5510419.339 7  -4267202.21445  24410233.248    24410260.6254
  21111116.409    -8200933.065 9  -6372197.45848  21111116.178    21111126.2254
  20242434.411   -25871698.606 9 -20148637.16348  20242433.885    20242444.3764
  24008765.092    18221470.587 7  14193889.80445  24008763.877    24008780.9144
 00  4 11 19 18  0.0000000  0  7 09 05 30 10 04 24 07
  21859651.583    -6041071.201 9  -4673752.70847  21859650.968    21859663.3154
  20981494.036   -23508199.477 9 -18296911.26247  20981493.135    20981503.5724
  23715029.954   -10087467.050 8  -7835077.41245  23715029.736    23715044.5124
  24391733.989    -5607638.450 7  -4342956.84345  24391732.736    24391760.0294
  21123290.169    -8136959.840 9  -6322348.26848  21123289.931    21123299.9794
  20238974.005   -25889882.927 9 -20162806.74748  20238973.490    20238983.9874
  24021998.802    18291013.609 7  14248078.91945  24021997.937    24022014.7534
 00  4 11 19 18 30.0000000  0  7 09 05 30 10 04 24 07
  21872154.073    -5975370.591 9  -4622557.61047  21872153.473    21872165.9054
  20970610.258   -23565393.847 9 -18341478.27747  20970609.339    20970619.7794
  23696483.760   -10184928.045 8  -7911020.92345  23696483.556    23696498.0504
  24373230.369    -5704873.789 7  -4418724.12745  24373229.086    24373256.4144
  21135543.694    -8072567.439 9  -6272172.44548  21135543.438    21135553.5184
  20235618.391   -25907516.751 9 -20176547.37648  20235617.873    20235628.3874
  24035236.160    18360576.047 7  14302283.14345  24035235.293    24035252.4254
 00  4 11 19 19  0.0000000  0  7 09 05 30 10 04 24 07
  21884733.302    -5909266.680 9  -4571048.25647  21884732.715    21884745.2014
  20959775.630   -23622329.835 9 -18385843.96647  20959774.720    20959785.1664
  23677950.472   -10282320.656 8  -7986911.13845  23677950.247    23677964.6374
  24354723.598    -5802125.331 7  -4494504.04145  24354722.288    24354749.6454
  21147872.342    -8007780.271 9  -6221689.01448  21147872.103    21147882.1784
  20232365.875   -25924608.994 9 -20189865.99448  20232365.325    20232375.8454
  24048476.346    18430152.172 7  14356498.05045  24048475.117    24048492.3824
 00  4 11 19 19 30.0000000  0  7 09 05 30 10 04 24 07
  21897385.668    -5842778.401 9  -4519239.40147  21897385.095    21897397.6104
  20948993.050   -23678992.505 9 -18429996.67647  20948992.125    20949002.5554
  23659429.869   -10379646.348 8  -8062749.21045  23659429.698    23659444.0744
  24336210.009    -5899413.336 7  -4570312.36845  24336208.564    24336235.8844
  21160273.595    -7942611.821 9  -6170908.48048  21160273.337    21160283.4234
  20229217.185   -25941155.133 9 -20202759.07448  20229216.665    20229227.1694
  24061716.158    18499726.321 7  14410711.41845  24061714.801    24061732.3074
 00  4 11 19 20  0.0000000  0  7 09 05 30 10 04 24 07
  21910111.840    -5775902.302 9  -4467128.34647  21910111.265    21910123.8084
  20938265.340   -23735366.643 9 -18473924.54947  20938264.421    20938274.8584
  23640924.657   -10476891.242 8  -8138524.32745  23640924.449    23640938.9054
  24317687.950    -5996745.757 7  -4646155.30845  24317686.467    24317713.5694
  21172748.280    -7877057.292 9  -6119827.10448  21172747.991    21172758.1054
  20226173.857   -25957147.821 9 -20215220.89248  20226173.352    20226183.8164
  24074953.719    18569289.339 7  14464916.10645  24074952.567    24074970.1344
 00  4 11 19 20 30.0000000  0  7 09 05 30 10 04 24 07
  21922914.593    -5708623.776 9  -4414703.71247  21922914.012    21922926.6234
  20927596.389   -23791432.361 9 -18517612.10447  20927595.487    20927605.8634
  23622433.814   -10574060.427 8  -8214240.43845  23622433.610    23622448.1534
  24299156.360    -6094128.012 7  -4722037.07245  24299154.876    24299181.6524
  21185298.187    -7811107.514 9  -6068437.74348  21185297.893    21185308.0374
  20223235.056   -25972591.314 9 -20227254.76448  20223234.526    20223244.9684
  24088191.255    18638852.630 7  14519121.02345  24088190.282    24088207.7004
 00  4 11 19 21  0.0000000  0  7 09 05 30 10 04 24 07
  21935792.698    -5640949.335 9  -4361970.58047  21935792.127    21935804.8214
  20916990.060   -23847169.005 9 -18561043.22847  20916989.140    20916999.4614
  23603956.272   -10671159.737 8  -8289902.11145  23603956.061    23603970.7194
  24280613.263    -6191570.592 7  -4797965.85445  24280611.843    24280638.1694
  21197925.416    -7744751.022 9  -6016731.46148  21197925.112    21197935.3184
  20220398.622   -25987496.830 9 -20238869.43248  20220398.080    20220408.5014
  24101432.438    18708434.457 7  14573340.39445  24101431.326    24101449.0524
 00  4 11 19 21 30.0000000  0  7 09 05 30 10 04 24 07
  21948743.662    -5572892.184 9  -4308939.22947  21948743.091    21948755.8604
  20906448.521   -23902564.663 9 -18604208.64347  20906447.628    20906457.9624
  23585491.552   -10768191.630 8  -8365511.23845  23585491.355    23585505.9764
  24262062.349    -6289053.567 7  -4873926.11045  24262061.046    24262087.0314
  21210634.253    -7677965.741 9  -5964691.05248  21210633.973    21210644.2044
  20217662.242   -26001876.361 9 -20250074.24548  20217661.684    20217672.0954
  24114677.703    18778037.791 7  14627576.51144  24114676.507    24114694.0934
 00  4 11 19 22  0.0000000  0  7 09 05 30 10 04 24 07
  21961765.269    -5504463.933 9  -4255618.71747  21961764.706    21961777.5124
  20895969.297   -23957633.209 9 -18647119.17047  20895968.422    20895978.7044
  23567037.851   -10865165.590 8  -8441075.22745  23567037.680    23567052.3234
  24243507.018    -6386559.495 7  -4949904.25945  24243505.772    24243531.7444
  21223424.818    -7610751.413 9  -5912316.31948  21223424.529    21223434.7544
  20215022.656   -26015747.148 9 -20260882.63348  20215022.102    20215032.5224
  24127928.942    18847673.019 7  14681837.49044  24127927.824    24127945.2394
 00  4 11 19 22 30.0000000  0  7 09 05 30 10 04 24 07
  21974853.549    -5435685.050 9  -4202024.98047  21974853.015    21974865.8154
  20885549.971   -24012387.159 9 -18689784.54747  20885549.075    20885559.2744
  23548592.554   -10962095.471 8  -8516604.86245  23548592.349    23548606.9824
  24224948.213    -6484084.140 7  -5025897.02045  24224946.979    24224973.0044
  21236295.051    -7543118.119 9  -5859615.11648  21236294.749    21236304.9954
  20212478.088   -26029118.598 9 -20271301.92448  20212477.553    20212488.0044
  24141187.887    18917348.981 7  14736130.22044  24141186.963    24141204.3084
 00  4 11 19 23  0.0000000  0  7 09 05 30 10 04 24 07
  21988004.904    -5366575.073 9  -4148173.24847  21988004.361    21988017.2054
  20875189.870   -24066829.869 9 -18732207.40347  20875188.957    20875199.0854
  23530155.712   -11058980.897 8  -8592099.85645  23530155.533    23530170.1384
  24206386.130    -6581627.378 7  -5101904.27645  24206384.899    24206410.7594
  21249241.466    -7475084.277 9  -5806601.81048  21249241.186    21249251.4644
  20210029.441   -26041986.250 9 -20281328.64648  20210028.908    20210039.3804
  24154452.326    18987053.407 7  14790445.11444  24154451.451    24154469.2164
 00  4 11 19 23 30.0000000  0  7 09 05 30 10 04 24 07
  22001221.105    -5297124.230 9  -4094055.89747  22001220.552    22001233.4364
  20864891.062   -24120950.332 9 -18774379.14947  20864890.147    20864900.2314
  23511727.832   -11155819.367 8  -8667558.25545  23511727.610    23511742.1854
  24187820.708    -6679188.081 7  -5177925.16345  24187819.452    24187845.2554
  21262262.214    -7406659.980 9  -5753284.24647  21262261.952    21262272.2364
  20207678.373   -26054341.055 9 -20290955.74748  20207677.866    20207688.3244
  24167719.509    19056771.215 7  14844770.43444  24167718.438    24167736.2074
 00  4 11 19 24  0.0000000  0  7 09 05 30 10 04 24 07
  22014506.520    -5227309.572 9  -4039655.06247  22014505.954    22014518.9124
  20854656.047   -24174735.391 9 -18816289.54547  20854655.123    20854665.2094
  23493310.099   -11252604.536 8  -8742975.12245  23493309.880    23493324.5434
  24169247.226    -6776790.067 7  -5253978.20745  24169245.990    24169271.8384
  21275354.766    -7337858.319 9  -5699672.63947  21275354.499    21275364.8174
  20205428.581   -26066163.815 9 -20300168.26948  20205428.073    20205438.4954
  24180988.822    19126501.486 6  14899105.45744  24180987.192    24181005.3804
 00  4 11 19 24 30.0000000  0  7 09 05 30 10 04 24 07
  22027865.100    -5157110.519 9  -3984954.69647  22027864.527    22027877.5464
  20844488.122   -24228168.174 9 -18857925.44047  20844487.212    20844497.2874
  23474906.468   -11349315.655 8  -8818334.30345  23474906.261    23474920.9954
  24150665.934    -6874433.768 7  -5330063.78245  24150664.683    24150690.4064
  21288520.535    -7268671.724 9  -5645761.08547  21288520.274    21288530.6284
  20203282.944   -26077439.330 9 -20308954.36748  20203282.399    20203292.8314
  24194260.599    19196244.808 6  14953450.65244  24194258.684    24194277.7434
 00  4 11 19 25  0.0000000  0  7 09 05 30 10 04 24 07
  22041298.551    -5086518.244 9  -3929947.92547  22041297.956    22041311.0084
  20834388.382   -24281242.587 9 -18899282.08947  20834387.474    20834397.5484
  23456520.093   -11445936.118 8  -8893622.84445  23456519.899    23456534.6234
  24132079.788    -6972102.679 7  -5406168.99345  24132078.481    24132104.0474
  21301758.469    -7199106.229 9  -5591554.28147  21301758.200    21301768.5894
  20201243.280   -26088157.824 9 -20317306.42048  20201242.721    20201253.1694
  24207534.776    19266000.457 6  15007805.48544  24207532.369    24207552.1524
 00  4 11 19 25 30.0000000  0  7 09 05 30 10 04 24 07
  22054808.385    -5015524.870 9  -3874628.61847  22054807.754    22054820.7964
  20824355.106   -24333967.655 9 -18940366.52547  20824354.200    20824364.2644
  23438153.035   -11542455.295 8  -8968832.48245  23438152.844    23438167.5344
  24113490.338    -7069788.803 7  -5482287.64445  24113489.030    24113514.3544
  21315067.785    -7129165.480 9  -5537055.07947  21315067.506    21315077.9304
  20199309.234   -26098320.936 9 -20325225.71648  20199308.690    20199319.1364
  24220812.940    19335776.688 6                  24220810.071    24220830.5654
 00  4 11 19 26  0.0000000  0  7 09 05 30 10 04 24 07
  22068392.530    -4944141.065 9  -3819005.07347  22068391.860    22068404.9324
  20814383.324   -24386369.601 9 -18981199.17247  20814382.413    20814392.5134
  23419806.767   -11638865.448 8  -9043957.15546  23419806.545    23419821.1434
  24094899.010    -7167485.065 8  -5558414.16245  24094897.710    24094922.8314
  21328449.372    -7058845.155 9  -5482260.10047  21328449.092    21328459.5464
  20197481.631   -26107924.727 9 -20332709.16548  20197481.105    20197491.5254
  24234094.526    19405570.209 7  15116560.64154  24234091.916    24234112.0384
 00  4 11 19 26 30.0000000  0  7 09 05 30 10 04 24 07
  22082046.802    -4872388.304 9  -3763094.02847  22082046.117    22082059.2324
  20804470.316   -24438462.302 9 -19021790.85247  20804469.426    20804479.5614
  23401481.538   -11735165.382 8  -9118995.93246  23401481.341    23401495.7544
  24076311.463    -7265161.651 8  -5634525.36145  24076310.268    24076335.0294
  21341903.509    -6988143.372 9  -5427167.88347  21341903.228    21341913.6794
  20195758.452   -26116980.246 9 -20339765.38948  20195757.898    20195768.3334
  24247379.950    19475383.077 7                  24247377.538    24247397.2404
 00  4 11 19 27  0.0000000  0  7 09 05 30 10 04 24 07
  22095767.862    -4800284.541 9  -3706909.47347  22095767.178    22095780.3264
  20794615.940   -24490247.166 9 -19062142.65947  20794615.048    20794625.2024
  23383173.880   -11831372.858 8  -9193962.67446  23383173.625    23383187.9354
  24057727.786    -7362818.237 8  -5710620.98045  24057726.494    24057751.1164
  21355429.177    -6917066.027 9  -5371783.02347  21355428.884    21355439.3084
  20194137.921   -26125496.082 9 -20346401.08048  20194137.340    20194147.8174
  24260667.450    19545207.756 6                  24260665.343    24260684.3014
 00  4 11 19 27 30.0000000  0  7 09 05 30 10 04 24 07
  22109555.842    -4727829.029 9  -3650450.82847  22109555.163    22109568.3184
  20784821.026   -24541719.639 9 -19102251.04547  20784820.119    20784830.3234
  23364881.273   -11927501.154 8  -9268867.70746  23364881.060    23364895.1764
  24039146.330    -7460463.605 8  -5786707.85045  24039144.977    24039169.4304
  21369028.949    -6845599.279 9  -5316094.73447  21369028.639    21369039.0184
  20192619.972   -26133472.492 9 -20352616.44248  20192619.411    20192629.9184
  24273954.430    19615032.593 7                  24273952.562    24273971.3594
 00  4 11 19 28  0.0000000  0  7 09 05 30 10 04 24 07
  22123410.787    -4655021.074 9  -3593717.55247  22123410.142    22123423.3274
  20775088.423   -24592864.769 9 -19142104.35947  20775087.516    20775097.7464
  23346603.964   -12023549.000 8  -9343710.05246  23346603.743    23346617.6584
  24020569.526    -7558084.246 8  -5862775.44545  24020568.077    24020592.4274
  21382702.866    -6773742.651 9  -5260102.64447  21382702.553    21382712.9454
  20191206.098   -26140902.143 9 -20358405.75848  20191205.539    20191216.0394
  24287241.496                                    24287239.594    24287259.5984
 00  4 11 19 28 30.0000000  0  8 09 05 30 10 04 24 06 07
  22137333.299    -4581858.111 9  -3536707.64647  22137332.693    22137345.9324
  20765423.270   -24643655.245 9 -19181681.32647  20765422.357    20765432.5814
  23328343.527   -12119507.966 8  -9418483.14346  23328343.195    23328357.0444
  24001999.489    -7655668.448 8  -5938814.64345  24001998.113    24002022.4184
  21396451.394    -6701494.096 9  -5203805.16047  21396451.075    21396461.4774
  20189896.121   -26147786.214 9 -20363769.95048  20189895.586    20189906.0274
  24856099.645    -5676598.360 7  -4392222.22145  24856098.641    24856120.3844
  24300534.914                                    24300528.831    24300653.0344
 00  4 11 19 29  0.0000000  0  8 09 05 30 10 04 24 06 07
  22151322.207    -4508346.601 9  -3479426.14047  22151321.579    22151334.8994
  20755824.867   -24694095.288 9 -19220985.22947  20755823.952    20755834.1394
  23310098.766   -12215383.746 8  -9493191.40846  23310098.505    23310112.2334
  23983430.713    -7753244.989 8  -6014847.86645  23983429.459    23983453.9434
  21410271.291    -6628870.152 9  -5147215.16147  21410270.958    21410281.4064
  20188688.657   -26154131.549 9 -20368714.34548  20188688.092    20188698.5144
  24842311.922    -5749053.633 7  -4448680.62445  24842310.946    24842332.3724
  24313833.743                                    24313827.115    24313765.3834
 00  4 11 19 29 30.0000000  0  8 09 05 30 10 04 24 06 07
  22165377.975    -4434483.743 8  -3421870.86247  22165377.318    22165390.7224
  20746292.572   -24744188.025 9 -19260018.50347  20746291.671    20746301.8284
  23291872.665   -12311161.399 8  -9567823.21046  23291872.462    23291886.2404
  23964863.753    -7850812.538 7  -6090874.07545  23964862.612    23964887.0604
  21424160.922    -6555879.663 9  -5090339.53747  21424160.602    21424171.0944
  20187582.894   -26159942.091 9 -20373242.01348  20187582.318    20187592.7644
  24828533.292    -5821460.104 7  -4505101.00545  24828532.125    24828553.5624
  24327138.793                                    24327131.664    24327057.0754
 00  4 11 19 30  0.0000000  0  8 09 05 30 10 04 24 06 07
  22179496.510    -4360291.090 8  -3364058.60347  22179495.834    22179509.3294
  20736827.572   -24793926.948 9 -19298776.08247  20736826.654    20736836.7844
  23273666.659   -12406833.407 8  -9642372.69546  23273666.466    23273680.3134
  23946300.555    -7948360.816 7  -6166885.26445  23946299.393    23946323.8824
  21438118.605    -6482531.453 9  -5033185.17447  21438118.299    21438128.8934
  20186576.632   -26165229.885 9 -20377362.35448  20186576.074    20186586.4804
  24814762.801    -5893823.059 7  -4561487.46745  24814761.668    24814783.2374
  24340453.573                                    24340448.175    24340543.0824
 00  4 11 19 30 30.0000000  0  8 09 05 30 10 04 24 06 07
  22193675.516    -4285780.332 8  -3305998.46447  22193674.859    22193688.4684
  20727430.569   -24843308.503 9 -19337255.19247  20727429.649    20727439.7784
  23255478.813   -12502410.452 8  -9716848.17046  23255478.567    23255492.4424
  23927738.120    -8045904.765 7  -6242893.06545  23927736.944    23927761.4714
  21452144.480    -6408824.891 9  -4975751.57647  21452144.190    21452154.9164
  20185667.169   -26170009.141 9 -20381086.42748  20185666.594    20185676.9674
  24801000.444    -5966142.918 7  -4617840.36045  24800999.566    24801021.1614
  24353776.665                                    24353771.072    24353879.2344
 00  4 11 19 31  0.0000000  0  8 09 05 30 10 04 24 06 07
  22207915.620    -4210948.849 8  -3247688.42047  22207914.940    22207928.6514
  20718103.765   -24892321.247 9 -19375446.91447  20718102.806    20718112.9464
  23237309.025   -12597892.518 8  -9791249.64346  23237308.816    23237322.5694
  23909177.065    -8143441.290 8  -6318895.09845  23909175.903    23909200.5424
  21466238.487    -6334760.401 9  -4918039.07247  21466238.222    21466249.0294
  20184856.178   -26174270.951 9 -20384407.29648  20184855.595    20184865.9544
  24787246.763    -6038416.731 7  -4674157.38945  24787246.127    24787267.6214
  24367102.925                                    24367097.446    24367193.1294
 00  4 11 19 31 30.0000000  0  8 09 05 30 10 04 24 06 07
  22222216.837    -4135796.389 8  -3189128.26447  22222216.150    22222229.9044
  20708848.802   -24940956.306 9 -19413344.33547  20708847.833    20708857.9754
  23219157.951   -12693276.527 8  -9865574.69346  23219157.782    23219171.4674
  23890621.886    -8240946.840 8  -6394872.98645  23890620.709    23890645.3794
  21480400.421    -6260339.329 9  -4860048.71747  21480400.158    21480411.0274
  20184143.560   -26178015.492 9 -20387325.10048  20184142.989    20184153.3354
  24773502.756    -6110640.225 7  -4730435.21745  24773502.042    24773523.4714
  24380431.370                                    24380424.870    24380387.9124
 00  4 11 19 32  0.0000000  0  8 09 05 30 10 04 24 06 07
  22236577.801    -4060329.455 8  -3130323.06447  22236577.137    22236590.9794
  20699666.685   -24989208.348 9 -19450943.30247  20699665.730    20699675.8034
  23201025.881   -12788560.751 8  -9939821.98746  23201025.735    23201039.3594
  23872074.109    -8338413.332 7  -6470820.43645  23872073.009    23872097.4594
  21494630.244    -6185561.432 9  -4801780.31647  21494629.977    21494640.8944
  20183530.828   -26181235.385 9 -20389834.08948  20183530.263    20183540.6024
  24759769.486    -6182806.751 7  -4786668.68345  24759769.059    24759790.4084
  24393761.853                                    24393755.232    24393774.3164
 00  4 11 19 32 30.0000000  0  8 09 05 30 10 04 24 06 07
  22251001.936    -3984530.621 8  -3071259.24847  22251001.312    22251015.1984
  20690556.017   -25037085.036 9 -19488249.78247  20690555.057    20690565.0864
  23182914.014   -12883738.810 8 -10013986.56646  23182913.863    23182927.4384
  23853533.611    -8435842.305 8  -6546738.63045  23853532.504    23853556.7414
  21508926.803    -6110432.859 9  -4743238.66047  21508926.530    21508937.4584
  20183019.934   -26183919.984 9 -20391925.96648  20183019.367    20183029.6984
  24746050.704    -6254896.764 7  -4842842.54345  24746050.458    24746071.9034
  24407091.922                                    24407085.113    24407087.9774
 00  4 11 19 33  0.0000000  0  8 09 05 30 10 04 24 06 07
  22265488.199    -3908405.361 8  -3011941.07047  22265487.593    22265501.4514
  20681514.474   -25084598.609 9 -19525273.31747  20681513.526    20681523.5004
  23164825.453   -12978794.265 8 -10088055.58346  23164825.275    23164838.8774
  23835003.762    -8533216.049 8  -6622613.78345  23835002.662    23835026.5884
  21523290.245    -6034953.018 9  -4684423.29147  21523289.976    21523300.8724
  20182612.052   -26186063.266 9 -20393596.04148  20182611.479    20182621.8044
  24732348.123    -6326902.383 7  -4898950.64445  24732347.832    24732369.4924
  24420421.954                                    24420416.225    24420393.9184
 00  4 11 19 33 30.0000000  0  8 09 05 30 10 04 24 06 07
  22280035.484    -3831960.140 9  -2952373.57647  22280034.862    22280048.6954
  20672537.869   -25131770.814 9 -19562030.85147  20672536.911    20672546.8324
  23146761.408   -13073720.783 8 -10162024.14346  23146761.211    23146774.8404
  23816485.257    -8630530.706 8  -6698442.89645  23816484.151    23816507.6844
  21537719.520    -5959127.178 9  -4625338.31047  21537719.227    21537730.0994
  20182303.708   -26187683.345 9 -20394858.42748  20182303.152    20182313.4734
  24718660.902    -6398828.353 8  -4954996.67345  24718660.628    24718682.4224
  24433753.598                                    24433747.725    24433765.4964
 00  4 11 19 34  0.0000000  0  8 09 05 30 10 04 24 06 07
  22294640.848    -3755209.683 9  -2892568.23047  22294640.231    22294654.0724
  20663624.035   -25178613.077 9 -19598531.28247  20663623.082    20663633.0024
  23128721.021   -13168522.630 8 -10235895.54746  23128720.840    23128734.6144
  23797975.328    -8727800.026 8  -6774236.68045  23797974.156    23797997.5274
  21552213.599    -5882960.630 9  -4565987.83847  21552213.303    21552224.1474
  20182094.246   -26188784.109 9 -20395716.14648  20182093.687    20182104.0064
  24704984.892    -6470695.908 7  -5010997.19145  24704984.495    24705006.2794
  24447087.024                                    24447080.935    24447088.2264
 00  4 11 19 34 30.0000000  0  8 09 05 30 10 04 24 06 07
  22309302.501    -3678163.357 8  -2832532.34947  22309301.881    22309315.7834
  20654773.024   -25225125.168 9 -19634774.44247  20654772.079    20654782.0664
  23110703.568   -13263203.454 8 -10309672.64946  23110703.414    23110717.4254
  23779472.554    -8825031.073 8  -6850000.63145  23779471.416    23779494.6764
  21566772.002    -5806456.117 9  -4506374.02047  21566771.724    21566782.4884
  20181982.676   -26189370.330 9 -20396172.92948  20181982.115    20181992.4584
  24691317.706    -6542517.229 7  -5066961.66245  24691317.337    24691339.0394
  24460422.344                                    24460417.142    24460438.7994
 00  4 11 19 35  0.0000000  0  8 09 05 30 10 04 24 06 07
  22324019.655    -3600825.226 8  -2772269.09047  22324019.023    22324032.9884
  20645987.108   -25271295.236 9 -19670751.09747  20645986.161    20645996.1584
  23092708.447   -13357767.368 8 -10383358.65446  23092708.291    23092722.3814
  23760978.483    -8922216.195 8  -6925728.81945  23760977.349    23761000.5944
  21581394.993    -5729612.782 9  -4446496.18047  21581394.701    21581405.3524
  20181967.775   -26189448.396 9 -20396233.74948  20181967.195    20181977.5904
  24677655.278    -6614313.042 7  -5122906.23645  24677654.866    24677676.5624
  24473759.811                                    24473754.189    24473767.8414
 00  4 11 19 35 30.0000000  0  8 09 05 30 10 04 24 06 07
  22338793.963    -3523186.062 8  -2711771.26347  22338793.345    22338807.4054
  20637268.404   -25317112.067 9 -19706452.50047  20637267.457    20637277.5364
  23074733.786   -13452223.759 8 -10456960.87846  23074733.655    23074747.7704
  23742492.372    -9019359.170 8  -7001424.14745  23742491.196    23742514.4954
  21596079.782    -5652444.636 9  -4386365.24147  21596079.435    21596090.0184
  20182051.408   -26189008.653 9 -20395891.08248  20182050.857    20182061.2534
  24663996.504    -6686089.886 7  -5178836.04545  24663996.011    24664017.6724
  24487100.940                                    24487095.104    24487109.5544
 00  4 11 19 36  0.0000000  0  8 09 05 30 10 04 24 06 07
  22353626.467    -3445240.708 8  -2651034.84347  22353625.877    22353640.1044
  20628621.065   -25362553.760 9 -19741861.58247  20628620.114    20628630.2774
  23056778.280   -13546579.913 8 -10530484.97246  23056778.105    23056792.2484
  23724015.037    -9116455.688 8  -7077083.27845  23724013.819    23724037.1874
  21610825.943    -5574953.539 9  -4325982.65247  21610825.586    21610836.1704
  20182238.148   -26188027.500 9 -20395126.53248  20182237.598    20182247.9414
  24650345.611    -6757825.161 7  -5234733.44245  24650345.082    24650366.7254
                        72.289
 00  4 11 19 36 30.0000000  0  8 09 05 30 10 04 24 06 07
  22368520.174    -3366973.866 8  -2590047.92747  22368519.616    22368534.0034
  20620047.656   -25407607.036 9 -19776968.01647  20620046.699    20620056.9004
  23038844.494   -13640822.624 8 -10603920.71146  23038844.261    23038858.2674
  23705548.868    -9213493.005 8  -7152696.31545  23705547.662    23705571.0944
  21625634.364    -5497134.882 9  -4265344.83147  21625634.005    21625644.6094
  20182529.011   -26186499.050 9 -20393935.53248  20182528.476    20182538.7774
  24636705.757    -6829502.058 7  -5290585.33545  24636705.074    24636726.8764
  24513803.292    24513796.689                                    24513815.5144
 00  4 11 19 37  0.0000000  0  8 09 05 30 10 04 24 06 07
  22383477.096    -3288375.401 8  -2528802.58947  22383476.531    22383491.0304
  20611547.639   -25452274.512 9 -19811773.81847  20611546.693    20611556.9464
  23020935.378   -13734935.791 8 -10677255.49746  23020935.128    23020948.9334
  23687096.064    -9310460.102 8  -7228254.58245  23687094.986    23687118.4034
  21640504.776    -5418990.275 9  -4204453.01247  21640504.440    21640515.1084
  20182924.772   -26184419.364 9 -20392314.98648  20182924.222    20182934.4874
  24623076.835    -6901121.861 7  -5346392.72345  24623076.050    24623097.9424
  24527164.243    24527157.539                                    24527183.4404
 00  4 11 19 37 30.0000000  0  8 09 05 30 10 04 24 06 07
  22398494.541    -3209458.758 8  -2467309.32847  22398493.965    22398508.5214
  20603118.728   -25496568.473 9 -19846288.57247  20603117.808    20603128.0984
  23003053.382   -13828906.023 8 -10750478.91346  23003053.158    23003066.7384
  23668656.976    -9407356.447 8  -7303757.75645  23668655.871    23668679.0364
  21655436.355    -5340524.098 9  -4143310.62647  21655436.044    21655446.8114
  20183426.677   -26181781.961 9 -20390259.86748  20183426.105    20183436.3334
  24609462.188    -6972665.979 7  -5402141.13445  24609461.435    24609483.2974
  24540533.510    24540526.604                                    24540571.1254
 00  4 11 19 38  0.0000000  0  8 09 05 30 10 04 24 06 07
  22413570.337    -3130235.752 8  -2405577.33647  22413569.778    22413584.3144
  20594762.075   -25540482.935 9 -19880507.60747  20594761.153    20594771.4064
  22985201.293   -13922718.951 8 -10823579.75046  22985201.026    22985214.4164
  23650232.582    -9504176.401 8  -7379201.43645  23650231.406    23650254.2284
  21670430.237    -5261730.539 9  -4081913.13147  21670429.934    21670440.7734
  20184031.217   -26178605.051 9 -20387784.35048  20184030.656    20184040.8564
  24595860.623    -7044141.469 7  -5457836.07245  24595859.901    24595881.9684
  24553907.876    24553901.694                                    24553920.9474
 00  4 11 19 38 30.0000000  0  8 09 05 30 10 04 24 06 07
  22428701.907    -3050720.203 8  -2343617.39347  22428701.332    22428715.8274
  20586476.718   -25584022.912 9 -19914434.83947  20586475.789    20586485.9834
  22967381.700   -14016360.909 8 -10896547.37246  22967381.473    22967394.6994
  23631823.404    -9600916.280 8  -7454582.70645  23631822.171    23631844.7084
  21685486.695    -5182608.505 9  -4020259.68647  21685486.410    21685497.2614
  20184734.985   -26174906.844 9 -20384902.63448  20184734.409    20184744.5794
  24582267.236    -7115574.281 7  -5513497.77245  24582266.671    24582288.4734
  24567283.716    24567277.235                                    24567241.4864
 00  4 11 19 39  0.0000000  0  8 09 05 30 10 04 24 06 07
  22443885.489    -2970931.459 8  -2281444.57947  22443884.891    22443899.3504
  20578263.785   -25627182.309 9 -19948065.51247  20578262.835    20578272.9574
  22949591.077   -14109850.355 8 -10969396.15846  22949590.860    22949603.9594
  23613428.718    -9697579.529 8  -7529904.26245  23613427.435    23613449.7114
  21700603.524    -5103169.886 9  -3958359.54647  21700603.205    21700614.0844
  20185536.495   -26170694.911 9 -20381620.60948  20185535.894    20185546.0514
  24568681.703    -7186966.519 7  -5569127.84145  24568681.117    24568702.8644
  24580662.284    24580655.473                                    24580670.9804
 00  4 11 19 39 30.0000000  0  8 09 05 30 10 04 24 06 07
  22459120.702    -2890871.240 8  -2219060.22647  22459120.084    22459134.6004
  20570127.993   -25669936.288 9 -19981380.26847  20570127.057    20570137.0984
  22931826.695   -14203201.623 8 -11042137.27746  22931826.507    22931839.5354
  23595049.544    -9794161.143 8  -7605162.21445  23595048.229    23595070.3814
  21715779.527    -5023419.961 9  -3896216.83147  21715779.199    21715790.0944
  20186434.336   -26165976.602 9 -20377944.00148  20186433.753    20186443.9234
  24555105.173    -7258310.236 8  -5624720.09445  24555104.526    24555126.2294
  24594043.760    24594038.089                                    24594057.9984
 00  4 11 19 40  0.0000000  0  8 09 05 30 10 04 24 06 07
  22474408.715    -2810533.167 8  -2156459.36847  22474408.111    22474422.6924
  20562073.624   -25712262.335 9 -20014361.57647  20562072.703    20562082.6344
  22914087.204   -14296421.937 8 -11114776.34046  22914087.068    22914100.0874
  23576686.244    -9890659.082 8  -7680354.99845  23576684.912    23576706.9894
  21731015.782    -4943353.287 9  -3833827.29847  21731015.421    21731026.4014
  20187427.703   -26160756.378 9 -20373876.29348  20187427.105    20187437.2804
  24541536.156    -7329614.441 7  -5680281.56145  24541535.509    24541556.9934
  24607427.592    24607421.663                                    24607379.5754
 00  4 11 19 40 30.0000000  0  8 09 05 30 10 04 24 06 07
  22489751.164    -2729909.135 8  -2093635.69047  22489750.550    22489765.1394
  20554100.309   -25754162.346 9 -20047010.90947  20554099.353    20554109.2634
  22896370.865   -14389520.754 8 -11187320.73746  22896370.723    22896383.7384
  23558339.480    -9987069.989 8  -7755479.95245  23558338.203    23558360.2014
  21746312.450    -4862968.691 9  -3771190.04447  21746312.131    21746323.2024
  20188519.045   -26155021.409 9 -20369407.48448  20188518.469    20188528.6574
  24527976.255    -7400870.712 8  -5735805.69445  24527975.716    24527996.7734
  24620816.793    24620810.694                                    24620833.1514
 00  4 11 19 41  0.0000000  0  8 09 05 30 10 04 24 06 07
  22505150.063    -2648988.453 8  -2030580.85447  22505149.449    22505164.0124
  20546208.564   -25795633.585 9 -20079326.12847  20546207.617    20546217.5564
  22878677.346   -14482500.460 8 -11259772.31146  22878677.142    22878690.2164
  23540010.076   -10083389.569 8  -7830533.76445  23540008.852    23540030.8614
  21761669.824    -4782265.223 9  -3708304.31147  21761669.539    21761680.6814
  20189710.441   -26148760.536 9 -20364528.87448  20189709.845    20189720.0904
  24514428.766    -7472062.822 8  -5791279.82145  24514428.074    24514448.9304
  24634213.526    24634207.160                                    24634256.3744
 00  4 11 19 41 30.0000000  0  8 09 05 30 10 04 24 06 07
  22520606.502    -2567765.305 8  -1967290.33547  22520605.868    22520620.4644
  20538394.716   -25836695.600 9 -20111322.47947  20538393.766    20538403.6774
  22861009.552   -14575345.034 8 -11332118.59046  22861009.303    22861022.4724
  23521699.435   -10179610.987 8  -7905511.08445  23521698.208    23521720.0444
  21777088.461    -4701239.865 9  -3645167.75247  21777088.196    21777099.3244
  20191001.031   -26141978.216 9 -20359243.94648  20191000.431    20191010.7314
  24500893.452    -7543191.246 8  -5846704.33745  24500892.715    24500913.2984
  24647618.252    24647611.900                                    24647666.0944
 00  4 11 19 42  0.0000000  0  8 09 05 30 10 04 24 06 07
  22536118.441    -2486250.300 8  -1903772.38947  22536117.850    22536132.4414
  20530653.333   -25877376.528 9 -20143021.87947  20530652.385    20530662.3054
  22843369.717   -14668042.899 8 -11404350.55946  22843369.445    22843382.6024
  23503408.009   -10275731.854 8  -7980410.06545  23503406.780    23503428.4434
  21792569.112    -4619888.978 9  -3581777.52447  21792568.868    21792579.9474
  20192388.593   -26134686.227 9 -20353561.86848  20192388.011    20192398.3224
  24487368.707    -7614264.008 8  -5902085.47345  24487368.138    24487388.2624
  24661029.614    24661023.116                                    24661092.5854
 00  4 11 19 42 30.0000000  0  7 09 05 30 10 04 24 06
  22551690.604    -2404419.238 8  -1840008.17746  22551689.999    22551704.5594
  20522988.210   -25917656.826 9 -20174409.10047  20522987.272    20522997.2354
  22825765.884   -14760551.102 8 -11476434.73446  22825765.661    22825778.7864
  23485142.691   -10371715.084 8  -8055201.81545  23485141.465    23485163.0494
  21808114.047    -4538200.145 9  -3518123.96547  21808113.807    21808124.8764
  20193877.858   -26126859.656 9 -20347463.23248  20193877.290    20193887.6184
  24473860.935    -7685247.423 8  -5957396.98845  24473860.370    24473880.0614
 00  4 11 19 43  0.0000000  0  7 09 05 30 10 04 24 06
  22567309.884    -2322340.469 8  -1776050.94046  22567309.236    22567323.8274
  20515389.097   -25957589.935 9 -20205525.78447  20515388.162    20515398.1514
  22808190.397   -14852910.184 8 -11548402.70046  22808190.218    22808203.4044
  23466893.184   -10467614.996 8  -8129928.63545  23466892.040    23466913.5104
  21823710.860    -4456238.930 9  -3454258.16347  21823710.569    21823721.6854
  20195455.180   -26118570.518 9 -20341004.14948  20195454.647    20195464.9654
  24460357.967    -7756204.330 7  -6012687.84945  24460357.417    24460377.0304
 00  4 11 19 43 30.0000000  0  7 09 05 30 10 04 24 06
  22582972.237    -2240034.881 8  -1711916.96746  22582971.624    22582986.2484
  20507856.422   -25997174.172 9 -20236370.62047  20507855.507    20507865.4834
  22790644.443   -14945114.286 8 -11620249.91446  22790644.256    22790657.5184
  23448659.459   -10563432.503 8  -8204591.26045  23448658.292    23448679.6894
  21839357.622    -4374014.985 9  -3390187.64347  21839357.317    21839368.4814
  20197118.343   -26109830.946 9 -20334194.08048  20197117.786    20197128.0564
  24446856.315    -7827153.223 7  -6067972.44245  24446855.845    24446875.5214
 00  4 11 19 44  0.0000000  0  7 09 05 30 10 04 24 06
  22598675.540    -2157514.265 8  -1647615.44446  22598674.922    22598689.5904
  20500391.224   -26036404.111 9 -20266939.38047  20500390.295    20500400.2604
  22773127.704   -15037165.183 8 -11691977.74246  22773127.542    22773140.6574
  23430440.807   -10659170.836 8  -8279192.19445  23430439.625    23430460.9454
  21855051.509    -4291543.071 9  -3325923.89947  21855051.173    21855062.4694
  20198867.907   -26100636.914 9 -20327029.88348  20198867.315    20198877.6134
  24433353.756    -7898107.319 7  -6123261.11145  24433353.372    24433373.1484
 00  4 11 19 44 30.0000000  0  7 09 05 30 10 04 24 06
  22614422.345    -2074765.626 8  -1583136.24946  22614421.691    22614436.3594
  20492998.965   -26075250.611 9 -20297209.35348  20492998.033    20493008.0144
  22755641.357   -15129056.222 8 -11763581.00046  22755641.178    22755654.2104
  23412239.386   -10754818.228 8  -8353722.27245  23412238.116    23412259.4854
  21870792.088    -4208825.771 9  -3261468.95047  21870791.766    21870803.1264
  20200711.082   -26090950.784 9 -20319482.23648  20200710.509    20200720.8464
  24419852.106    -7969057.523 7  -6178546.69945  24419851.689    24419871.5684
 00  4 11 19 45  0.0000000  0  7 09 05 30 10 04 24 06
  22630214.923    -1991776.444 8  -1518469.61846  22630214.238    22630228.9344
  20485682.098   -26113701.108 9 -20327170.76048  20485681.178    20485691.1484
  22738185.811   -15220785.474 8 -11835058.20246  22738185.602    22738198.5444
  23394058.974   -10850355.145 8  -8428166.27945  23394057.722    23394079.0604
  21886585.763    -4125829.737 9  -3196796.80847  21886585.452    21886596.7914
  20202653.490   -26080743.225 9 -20311528.27648  20202652.915    20202663.2404
  24406355.436    -8039982.174 7  -6233812.37545  24406355.052    24406374.9564
 00  4 11 19 45 30.0000000  0  7 09 05 30 10 04 24 06
  22646053.908    -1908542.435 8  -1453612.22446  22646053.263    22646068.0884
  20478440.589   -26151755.442 9 -20356823.46248  20478439.641    20478449.6194
  22720759.988   -15312358.745 8 -11906413.84546  22720759.805    22720772.5724
  23375901.593   -10945770.943 8  -8502515.90245  23375900.331    23375921.6174
  21902434.687    -4042543.571 9  -3131898.57647  21902434.380    21902445.6344
  20204698.659   -26069995.905 9 -20303153.72048  20204698.069    20204708.3664
  24392868.017    -8110859.232 7  -6289040.95945  24392867.469    24392887.4354
 00  4 11 19 46  0.0000000  0  7 09 05 30 10 04 24 06
  22661943.527    -1825042.432 8  -1388547.56046  22661942.923    22661957.9324
  20471274.620   -26189412.608 9 -20386166.68848  20471273.662    20471283.6904
  22703364.806   -15403771.067 8 -11977644.07846  22703364.618    22703377.2084
  23357769.138   -11041056.089 8  -8576763.70945  23357767.885    23357789.0294
  21918338.367    -3958969.890 9  -3066776.31147  21918338.050    21918349.2244
  20206847.326   -26058704.322 9 -20294355.07148  20206846.741    20206857.0444
  24379393.708    -8181667.453 7  -6344215.89145  24379393.108    24379413.1104
 00  4 11 19 46 30.0000000  0  7 09 05 30 10 04 24 06
  22677882.138    -1741285.707 8  -1323282.84446  22677881.509    22677896.6434
  20464187.241   -26226656.984 9 -20415188.25448  20464186.279    20464196.3254
  22685998.346   -15495032.004 8 -12048756.35146  22685998.180    22686010.6284
  23339662.259   -11136207.125 8  -8650907.02246  23339660.969    23339682.0484
  21934298.674    -3875098.419 9  -3001422.01047  21934298.341    21934309.4364
  20209096.397   -26046885.157 9 -20285145.31948  20209095.824    20209106.1264
  24365934.799    -8252393.688 8  -6399326.96145  24365934.166    24365954.2714
 00  4 11 19 47  0.0000000  0  7 09 05 30 10 04 24 06
  22693867.186    -1657284.998 8  -1257828.01246  22693866.513    22693881.8294
  20457178.266   -26263489.317 9 -20443888.75248  20457177.301    20457187.3534
  22668661.987   -15586134.382 8 -12119745.07146  22668661.813    22668674.1764
  23321579.426   -11231231.784 8  -8724951.84746  23321578.198    23321599.0684
  21950315.871    -3790927.816 9  -2935834.61247  21950315.523    21950326.6034
  20211439.504   -26034572.001 9 -20275550.63548  20211438.922    20211449.2114
  24352490.589    -8323042.059 7  -6454377.37045  24352489.963    24352510.1184
 00  4 11 19 47 30.0000000  0  7 09 05 30 10 04 24 06
  22709896.866    -1573049.346 8  -1192190.12446  22709896.216    22709911.7264
  20450250.512   -26299894.772 9 -20472256.62148  20450249.557    20450259.6184
  22651358.393   -15677064.297 8 -12190599.41446  22651358.212    22651370.6574
  23303520.129   -11326132.644 8  -8798900.20546  23303518.930    23303539.6994
  21966383.146    -3706494.177 9  -2870042.26247  21966382.810    21966393.9014
  20213871.044   -26021794.155 9 -20265593.86048  20213870.469    20213880.7454
  24339057.412    -8393632.566 8  -6509382.68445  24339056.782    24339076.9574
 00  4 11 19 48  0.0000000  0  7 09 05 30 10 04 24 06
  22725969.855    -1488585.637 8  -1126374.50946  22725969.209    22725984.9844
  20443408.294   -26335850.461 9 -20500274.01648  20443407.354    20443417.4444
  22634088.822   -15767815.186 8 -12261314.24946  22634088.637    22634101.1674
  23285484.546   -11420908.957 8  -8872751.52046  23285483.326    23285504.0314
  21982498.389    -3621808.587 9  -2804053.58147  21982498.023    21982509.1824
  20216390.810   -26008552.715 9 -20255275.84548  20216390.244    20216400.4874
  24325632.701    -8464179.084 8  -6564353.71145  24325632.185    24325652.1944
 00  4 11 19 48 30.0000000  0  7 09 05 30 10 04 24 06
  22742082.695    -1403912.438 8  -1060395.67746  22742082.114    22742098.0164
  20436653.212   -26371348.561 9 -20527934.85248  20436652.290    20436662.3584
  22616854.987   -15858378.566 8 -12331882.98546  22616854.818    22616867.4574
  23267473.593   -11515555.878 8  -8946502.01046  23267472.384    23267492.8564
  21998664.201    -3536857.042 9  -2737857.66447  21998663.852    21998675.0714
  20219000.145   -25994840.705 9 -20244591.15348  20218999.588    20219009.7874
  24312216.347    -8534682.448 8  -6619291.12245  24312215.794    24312235.4744
 00  4 11 19 49  0.0000000  0  7 09 05 30 10 04 24 06
  22758236.869    -1319023.036 8   -994248.37246  22758236.260    22758252.1994
  20429984.691   -26406392.001 9 -20555241.40748  20429983.757    20429993.7924
  22599659.713   -15948739.457 8 -12402293.94346  22599659.551    22599672.2584
  23249488.849   -11610065.603 8  -9020145.59446  23249487.575    23249507.8324
  22014878.741    -3451649.303 9  -2671462.12047  22014878.417    22014889.7094
  20221703.644   -25980633.839 9 -20233520.85648  20221703.046    20221713.2444
  24298809.023    -8605138.715 8  -6674191.84345  24298808.325    24298827.7924
 00  4 11 19 49 30.0000000  0  7 09 05 30 10 04 24 06
  22774435.337    -1233901.217 8   -927919.96846  22774434.666    22774450.5904
  20423401.365   -26440987.632 9 -20582199.02048  20423400.414    20423410.4674
  22582502.990   -16038897.916 8 -12472547.16046  22582502.859    22582515.5704
  23231532.610   -11704424.820 8  -9093671.91046  23231531.306    23231551.4904
  22031142.782    -3366181.603 9  -2604864.00947  22031142.437    22031153.8254
  20224506.056   -25965906.885 9 -20222045.30748  20224505.486    20224515.6834
  24285413.262    -8675533.507 8  -6729044.67245  24285412.619    24285431.9104
 00  4 11 19 50  0.0000000  0  7 09 05 30 10 04 24 06
  22790680.096    -1148535.077 8   -861401.18646  22790679.461    22790695.3824
  20416899.501   -26475155.058 9 -20608822.97048  20416898.555    20416908.5774
  22565385.130   -16128852.603 8 -12542641.60346  22565384.989    22565397.6774
  23213604.584   -11798634.873 8  -9167081.98246  23213603.338    23213623.5054
  22047459.460    -3280437.103 9  -2538050.21247  22047459.131    22047470.5134
  20227410.575   -25950643.354 9 -20210151.64748  20227409.995    20227420.2234
  24272030.330    -8745860.120 8  -6783844.38745  24272029.714    24272048.9674
 00  4 11 19 50 30.0000000  0  7 09 05 30 10 04 24 06
  22806973.306    -1062914.276 8   -794683.96346  22806972.711    22806988.6614
  20410476.656   -26508907.288 9 -20635123.39148  20410475.702    20410485.7064
  22548306.055   -16218603.857 8 -12612577.52746  22548305.893    22548318.4954
  23195704.313   -11892699.071 8  -9240378.39546  23195703.099    23195723.3304
  22063827.485    -3194423.201 9  -2471026.49347  22063827.140    22063838.5094
  20230415.274   -25934853.835 9 -20197848.12748  20230414.685    20230424.9044
  24258659.754    -8816121.690 8  -6838593.42345  24258659.190    24258678.4774
 00  4 11 19 51  0.0000000  0  7 09 05 30 10 04 24 06
  22823316.919     -977029.220 8   -727760.84946  22823316.326    22823332.2634
  20404134.031   -26542237.960 9 -20661095.32648  20404133.083    20404143.0724
  22531265.553   -16308152.226 8 -12682355.36346  22531265.370    22531277.9324
  23177833.841   -11986607.439 8  -9313553.38946  23177832.641    23177852.8654
  22080243.621    -3108156.268 9  -2403805.60947  22080243.276    22080254.6004
  20233519.073   -25918543.361 9 -20185138.67248  20233518.467    20233528.7034
  24245298.856    -8886332.717 8  -6893303.07945  24245298.229    24245317.6664
 00  4 11 19 51 30.0000000  0  7 09 05 30 10 04 24 06
  22839709.805     -890885.777 8   -660636.39746  22839709.167    22839725.0414
  20397871.891   -26575145.520 9 -20686737.56448  20397870.928    20397880.9014
  22514262.925   -16397501.464 8 -12751978.04046  22514262.690    22514275.1744
  23159995.004   -12080349.870 8  -9386599.06946  23159993.761    23160013.9294
  22096708.090    -3021635.514 9  -2336386.94247  22096707.737    22096719.0094
  20236718.280   -25901731.137 9 -20172038.24248  20236717.702    20236728.0024
  24231946.705    -8956497.654 8  -6947976.83545  24231946.123    24231965.5094
 00  4 11 19 52  0.0000000  0  7 09 05 30 10 04 24 06
  22856147.147     -804508.512 8   -593329.74546  22856146.498    22856162.3214
  20391692.882   -26607616.284 9 -20712039.44048  20391691.935    20391701.9094
  22497297.270   -16486656.485 8 -12821449.37646  22497297.036    22497309.3794
  23142188.333   -12173923.134 8  -9459512.94146  23142187.118    23142207.1904
  22113219.070    -2934870.100 9  -2268777.63847  22113218.737    22113230.0004
  20240010.273   -25884431.514 9 -20158558.02248  20240009.693    20240020.0624
  24218601.986    -9026623.550 8  -7002620.17745  24218601.402    24218620.9124
 00  4 11 19 52 30.0000000  0  7 09 05 30 10 04 24 06
  22872624.029     -717923.074 8   -525860.87546  22872623.362    22872639.2474
  20385601.081   -26639628.859 9 -20736984.28648  20385600.123    20385610.0944
  22480366.216   -16575629.560 8 -12890778.93846  22480365.997    22480378.2084
  23124418.042   -12267305.511 8  -9532278.06546  23124416.850    23124436.8044
  22129777.357    -2847855.870 9  -2200974.44647  22129777.024    22129788.3124
  20243395.099   -25866644.088 9 -20144697.69548  20243394.510    20243404.9334
  24205264.852    -9096709.432 7  -7057232.34445  24205264.155    24205283.8904
 00  4 11 19 53  0.0000000  0  7 09 05 30 10 04 24 06
  22889136.535     -631149.938 8   -458245.75346  22889135.891    22889151.8964
  20379595.360   -26671189.142 9 -20761576.70748  20379594.390    20379604.2964
  22463469.370   -16664422.536 8 -12959968.17446  22463469.154    22463481.3474
  23106688.048   -12360476.005 8  -9604878.11046  23106686.895    23106706.6654
  22146384.519    -2760584.737 9  -2132971.07246  22146384.187    22146395.4974
  20246873.677   -25848363.720 9 -20130453.26648  20246873.091    20246883.5144
  24191937.676    -9166742.466 8  -7111803.34045  24191937.031    24191956.9124
 00  4 11 19 53 30.0000000  0  7 09 05 30 10 04 24 06
  22905684.155     -544192.463 8   -390486.98846  22905683.505    22905699.6764
  20373673.619   -26702307.938 9 -20785825.10548  20373672.650    20373682.5414
  22446605.776   -16753040.644 8 -13029021.13546  22446605.588    22446617.7374
  23088996.101   -12453446.541 8  -9677322.33346  23088994.882    23089014.5964
  22163039.346    -2673063.084 9  -2064772.47646  22163039.017    22163050.3734
  20250445.256   -25829595.104 9 -20115828.37848  20250444.669    20250455.0314
  24178622.317    -9236714.910 8  -7166327.12445  24178621.569    24178641.3584
 00  4 11 19 54  0.0000000  0  7 09 05 30 10 04 24 06
  22922266.299     -457053.838 8   -322587.06846  22922265.635    22922281.9974
  20367835.335   -26732988.257 9 -20809731.83748  20367834.382    20367844.3034
  22429777.872   -16841471.414 8 -13097928.11846  22429777.708    22429789.8144
  23071341.451   -12546221.065 8  -9749613.80746  23071340.234    23071359.8154
  22179742.168    -2585289.525 9  -1996377.59946  22179741.854    22179753.2384
  20254110.210   -25810335.890 9 -20100821.21148  20254109.612    20254119.9204
  24165317.946    -9306629.319 7  -7220805.67845  24165317.259    24165336.6624
 00  4 11 19 54 30.0000000  0  7 09 05 30 10 04 24 06
  22938882.734     -369734.585 8   -254546.40746  22938882.092    22938898.6434
  20362077.663   -26763245.042 9 -20833308.53848  20362076.688    20362086.6324
  22412986.849   -16929708.289 8 -13166684.01146  22412986.663    22412998.8004
  23053722.702   -12638806.919 8  -9821758.26846  23053721.441    23053740.9334
  22196490.889    -2497275.033 9  -1927794.97846  22196490.529    22196502.0084
  20257865.753   -25790600.588 9 -20085443.06348  20257865.132    20257875.4304
  24152023.471    -9376491.442 7  -7275243.50445  24152022.773    24152041.9424
 00  4 11 19 55  0.0000000  0  7 09 05 30 10 04 24 06
  22955536.804     -282217.575 8   -186351.64146  22955536.203    22955552.9734
  20356399.722   -26793082.580 9 -20856558.55448  20356398.749    20356408.7144
  22396235.782   -17017735.466 8 -13235276.50846  22396235.579    22396247.6974
  23036136.631   -12731221.161 8  -9893769.01146  23036135.266    23036154.7224
  22213281.221    -2409041.925 9  -1859042.00546  22213280.825    22213292.3704
  20261708.408   -25770407.321 9 -20069708.06148  20261707.812    20261718.0994
  24138739.233    -9446299.372 8  -7329639.10145  24138738.559    24138757.4574
 00  4 11 19 55 30.0000000  0  7 09 05 30 10 04 24 06
  22972229.039     -194499.935 8   -118000.55346  22972228.487    22972245.3994
  20350802.612   -26822495.403 9 -20879477.62548  20350801.653    20350811.6904
  22379525.519   -17105548.045 8 -13303701.78346  22379525.297    22379537.3744
  23018579.413   -12823483.730 8  -9965661.55846  23018578.041    23018597.4324
  22230111.428    -2320599.323 9  -1790125.79946  22230111.004    22230122.5784
  20265635.800   -25749768.721 9 -20053626.04748  20265635.183    20265645.4574
  24125464.633    -9516057.339 8  -7383995.75145  24125463.809    24125482.5784
 00  4 11 19 56  0.0000000  0  7 09 05 30 10 04 24 06
  22988958.154     -106589.202 8    -49498.99746  22988957.555    22988974.5154
  20345287.178   -26851478.974 9 -20902062.20948  20345286.241    20345296.2854
  22362857.954   -17193136.484 8 -13371952.40546  22362857.696    22362869.7664
  23001051.850   -12915590.237 8 -10037432.51446  23001050.495    23001069.8164
  22246980.779    -2231951.112 9  -1721049.37846  22246980.356    22246991.9114
  20269646.394   -25728692.982 9 -20037203.40048  20269645.766    20269656.0684
  24112197.897    -9585773.637 8  -7438319.91245  24112197.144    24112215.7294
 00  4 11 19 56 30.0000000  0  7 09 05 30 10 04 24 06
  23005724.936      -18480.989 8     19156.42746  23005724.288    23005741.1974
  20339855.753   -26880021.416 9 -20924303.05848  20339854.811    20339864.7974
  22346231.969   -17280506.073 8 -13440032.49646  22346231.706    22346243.8474
  22983554.085   -13007540.882 8 -10109082.01946  22983552.648    22983571.8704
  22263887.537    -2143105.984 9  -1651819.51546  22263887.131    22263898.6754
  20273742.237   -25707169.095 9 -20020431.54148  20273741.651    20273751.9374
  24098937.114    -9655457.928 8  -7492619.13045  24098936.405    24098954.9754
 00  4 11 19 57  0.0000000  0  7 09 05 30 10 04 24 06
  23022529.027       69823.495 8     87964.79246  23022528.365    23022545.2444
  20334510.916   -26908108.793 9 -20946189.30848  20334509.952    20334519.9004
  22329649.010   -17367649.211 8 -13507936.12146  22329648.766    22329661.0484
  22966090.402   -13099312.198 8 -10180591.80546  22966088.978    22966108.0754
  22280834.221    -2054051.028 9  -1582426.14646  22280833.820    22280845.3804
  20277927.330   -25685176.503 9 -20003294.45548  20277926.733    20277936.9824
  24085682.855    -9725107.963 8  -7546891.63945  24085682.160    24085700.7814
 00  4 11 19 57 30.0000000  0  7 09 05 30 10 04 24 06
  23039368.541      158314.258 8    156918.31046  23039367.857    23039384.7954
  20329251.647   -26935746.464 9 -20967725.13748  20329250.703    20329260.5764
  22313111.244   -17454554.969 8 -13575654.78446  22313111.025    22313123.3694
  22948662.712   -13190893.792 8 -10251953.75546  22948661.323    22948680.3234
  22297823.276    -1964772.927 9  -1512858.91046  22297822.918    22297834.5874
  20282203.813   -25662703.407 9 -19985782.95148  20282203.193    20282213.4144
  24072433.537    -9794732.100 8  -7601143.99345  24072432.802    24072451.5724
 00  4 11 19 58  0.0000000  0  7 09 05 30 10 04 24 06
  23056240.824      246977.108 8    226005.90846  23056240.176    23056257.1044
  20324080.362   -26962921.990 9 -20988900.85948  20324079.403    20324089.2024
  22296619.066   -17541220.924 8 -13643186.59546  22296618.852    22296631.2484
  22931274.735   -13282266.766 8 -10323153.15246  22931273.321    22931292.2864
  22314855.061    -1875270.100 9  -1443116.56646  22314854.728    22314866.4824
  20286574.461   -25639735.335 9 -19967885.75848  20286573.867    20286584.0414
  24059186.579    -9864344.674 8  -7655387.32745  24059185.923    24059204.5834
 00  4 11 19 58 30.0000000  0  7 09 05 30 10 04 24 06
  23073144.708      335805.979 8    295222.86346  23073144.024    23073160.9544
  20318998.544   -26989627.021 9 -21009709.95748  20318997.591    20319007.3924
  22280172.859   -17627645.247 8 -13710530.10446  22280172.658    22280185.0844
  22913929.740   -13373413.220 8 -10394176.05546  22913928.339    22913947.3174
  22331932.210    -1785528.886 8  -1373188.46846  22331931.925    22331943.7334
  20291040.570   -25616265.804 9 -19949597.80848  20291039.975    20291050.1244
  24045945.941    -9933924.146 8  -7709604.84945  24045945.259    24045963.8574
 00  4 11 19 59  0.0000000  0  7 09 05 30 10 04 24 06
  23090078.986      424794.457 8    364564.19446  23090078.291    23090095.2404
  20314003.462   -27015876.435 9 -21030164.02848  20314002.509    20314012.2734
  22263772.272   -17713830.294 8 -13777687.17946  22263772.091    22263784.4724
  22896627.911   -13464332.397 8 -10465021.84646  22896626.616    22896645.5754
  22349055.284    -1695546.689 8  -1303072.58546  22349055.011    22349066.8914
  20295598.481   -25592313.865 9 -19930933.95548  20295597.870    20295608.0644
  24032714.126   -10003457.264 8  -7763786.25345  24032713.469    24032732.0134
 00  4 11 19 59 30.0000000  0  7 09 05 30 10 04 24 06
  23107044.386      513946.750 8    434033.18046  23107043.666    23107060.6284
  20309094.984   -27041670.870 9 -21050263.57448  20309093.997    20309103.7524
  22247414.618   -17799790.174 8 -13844668.79246  22247414.416    22247426.7174
  22879365.114   -13555047.125 8 -10535708.32546  22879363.947    22879382.8104
  22366222.028    -1605335.150 8  -1232777.99246  22366221.747    22366233.6394
  20300245.536   -25567893.122 9 -19911904.80248  20300244.943    20300255.2114
  24019491.468   -10072942.537 8  -7817930.36745  24019490.823    24019509.2644
 00  4 11 20  0  0.0000000  0  7 09 05 30 10 04 24 06
  23124040.747      603261.717 8    503628.93046  23124040.039    23124057.0544
  20304272.776   -27067011.511 9 -21070009.51748  20304271.795    20304281.5534
  22231097.053   -17885539.442 8 -13911486.29246  22231096.842    22231109.0794
  22862142.899   -13645549.675 8 -10606229.46546  22862141.709    22862160.3754
  22383430.970    -1514901.998 8  -1162310.72846  22383430.683    22383442.5574
  20304980.335   -25543011.202 9 -19892516.29148  20304979.745    20304990.0794
  24006280.987   -10142363.520 8  -7872024.36245  24006280.259    24006298.8584
 00  4 11 20  0 30.0000000  0  7 09 05 30 10 04 24 06
  23141071.020      692754.828 8    573363.48946  23141070.329    23141087.4614
  20299534.284   -27091912.266 9 -21089412.69048  20299533.306    20299543.1134
  22214818.804   -17971081.872 8 -13978142.61446  22214818.611    22214830.7804
  22844958.757   -13735852.344 8 -10676594.85646  22844957.516    22844976.0214
  22400679.913    -1424258.431 8  -1091679.49846  22400679.612    22400691.4574
  20309799.049   -25517688.714 9 -19872784.48248  20309798.469    20309808.8094
  23993083.917   -10211713.252 8  -7926062.84545  23993083.235    23993101.9494
 00  4 11 20  1  0.0000000  0  7 09 05 30 10 04 24 06
  23158134.773      782424.045 8    643235.27946  23158134.097    23158151.3164
  20294879.160   -27116374.659 9 -21108474.28348  20294878.178    20294888.0774
  22198578.638   -18056424.361 8 -14044643.13446  22198578.424    22198590.4934
  22827811.916   -13825958.502 8 -10746807.12346  22827810.646    22827829.0214
  22417965.072    -1333424.664 8  -1020900.06046  22417964.786    22417976.6494
  20314701.950   -25491923.865 9 -19852707.97748  20314701.375    20314711.6964
  23979898.833   -10280999.538 8  -7980051.90045  23979898.143    23979917.0994
 00  4 11 20  1 30.0000000  0  7 09 05 30 10 04 24 06
  23175230.427      872260.859 8    713237.66446  23175229.752    23175247.0144
  20290308.523   -27140393.124 9 -21127189.96048  20290307.572    20290317.5224
  22182379.534   -18141551.266 8 -14110975.66946  22182379.278    22182391.2784
  22810704.635   -13915856.639 8 -10816857.28946  22810703.369    22810721.6364
  22435283.458    -1242416.386 8   -949984.65446  22435283.186    22435295.0534
  20319688.594   -25465718.845 9 -19832288.47948  20319688.003    20319698.3504
  23966725.237   -10350224.745 8  -8033993.36445  23966724.582    23966743.7344
 00  4 11 20  2  0.0000000  0  7 09 05 30 10 04 24 06
  23192356.829      962259.943 8    783366.50046  23192356.195    23192373.5944
  20285823.164   -27163963.707 9 -21145556.63748  20285822.227    20285832.1864
  22166224.386   -18226446.892 8 -14177127.98746  22166224.143    22166236.0434
  22793640.290   -14005529.323 8 -10886731.77946  22793638.992    22793657.0874
  22452633.366    -1151242.650 8   -878940.31146  22452633.075    22452644.9654
  20324760.111   -25439067.647 9 -19811521.30848  20324759.532    20324769.8854
  23953560.645   -10419403.916 8  -8087898.95545  23953560.066    23953579.0534
 00  4 11 20  2 30.0000000  0  7 09 05 30 10 04 24 06
  23209512.392     1052412.170 8    853614.65246  23209511.768    23209529.3464
  20281426.034   -27187070.944 9 -21163562.26248  20281425.092    20281435.0574
  22150117.030   -18311091.383 8 -14243084.61446  22150116.763    22150128.5914
  22776620.743   -14094966.578 8 -10956422.81846  22776619.445    22776637.3364
  22470015.125    -1059901.555 8   -807765.55746  22470014.812    22470026.7724
  20329917.507   -25411965.650 9 -19790402.86848  20329916.931    20329927.2264
  23940402.517   -10488549.792 8  -8141778.58245  23940401.935    23940420.6814
 00  4 11 20  3  0.0000000  0  7 09 05 30 10 04 24 06
  23226693.897     1142700.850 8    923969.14046  23226693.325    23226711.0684
  20277118.741   -27209706.218 9 -21181200.11848  20277117.783    20277127.7304
  22134060.455   -18395468.707 8 -14308833.06746  22134060.199    22134071.9494
  22759649.648   -14184148.985 8 -11025915.27646  22759648.364    22759666.1414
  22487429.430     -968389.512 8   -736457.60346  22487429.107    22487441.1044
  20335162.179   -25384404.913 9 -19768926.96848  20335161.571    20335171.8164
  23927251.208   -10557660.169 8  -8195630.54545  23927250.539    23927269.0554
 00  4 11 20  3 30.0000000  0  7 09 05 30 10 04 24 06
  23243902.546     1233131.913 8    994434.56446  23243901.951    23243919.8594
  20272902.638   -27231862.052 9 -21198464.38848  20272901.682    20272911.5774
  22118056.862   -18479567.540 8 -14374364.51446  22118056.628    22118068.2924
  22742726.434   -14273079.673 8 -11095211.59146  22742725.119    22742742.8484
  22504878.513     -876694.601 8   -665007.15446  22504878.197    22504890.2464
  20340493.707   -25356387.661 9 -19747095.34248  20340493.120    20340503.3164
  23914104.071   -10626748.387 8  -8249465.25845  23914103.491    23914121.5594
 00  4 11 20  4  0.0000000  0  7 09 05 30 10 04 24 06
  23261136.905     1323697.330 8   1065004.66546  23261136.260    23261154.2674
  20268778.295   -27253535.830 9 -21215353.02848  20268777.317    20268787.1884
  22102103.870   -18563400.595 8 -14439688.86546  22102103.642    22102115.2364
  22725852.154   -14361753.761 8 -11164307.97246  22725850.792    22725868.4634
  22522365.852     -784798.547 8   -593399.96946  22522365.531    22522377.6264
  20345913.609   -25327906.194 9 -19724901.99248  20345912.988    20345923.1434
  23900961.957   -10695810.448 8  -8303279.56745  23900961.339    23900979.0264
 00  4 11 20  4 30.0000000  0  7 09 05 30 10 04 24 06
  23278394.261     1414383.482 8   1135668.84946  23278393.593    23278411.5984
  20264743.364   -27274739.363 9 -21231875.23948  20264742.401    20264752.2944
  22086201.500   -18646967.559 8 -14504805.86946  22086201.301    22086212.8494
  22709025.127   -14450179.103 8 -11233210.53146  22709023.751    22709041.4374
  22539893.399     -692691.217 8   -521628.15246  22539893.057    22539905.2184
  20351418.468   -25298977.829 9 -19702360.41148  20351417.847    20351428.0484
  23887829.265   -10764823.146 8  -8357055.42845  23887828.491    23887845.8824
 00  4 11 20  5  0.0000000  0  7 09 05 30 10 04 24 06
  23295675.626     1505196.248 8   1206431.68346  23295674.929    23295692.9464
  20260794.930   -27295488.268 9 -21248043.20548  20260793.964    20260803.8694
  22070347.041   -18730282.850 8 -14569726.77246  22070346.817    22070358.3874
  22692240.965   -14538378.927 8 -11301937.37546  22692239.610    22692257.2944
  22557459.115     -600383.087 8   -449699.87446  22557458.786    22557471.0074
  20357007.127   -25269609.046 9 -19679475.65548  20357006.528    20357016.8024
  23874706.070   -10833784.957 8  -8410791.64645  23874705.237    23874722.5814
 00  4 11 20  5 30.0000000  0  7 09 05 30 10 04 24 06
  23312980.736     1596133.940 8   1277291.86346  23312980.050    23312998.0904
  20256932.405   -27315785.749 9 -21263859.40748  20256931.458    20256941.3514
  22054538.657   -18813355.852 8 -14634458.87146  22054538.401    22054550.0224
  22675498.824   -14626357.917 8 -11370492.13846  22675497.500    22675515.2074
  22575061.596     -507881.959 8   -377621.20946  22575061.250    22575073.5094
  20362677.025   -25239813.486 9 -19656258.34548  20362676.413    20362686.7264
  23861591.741   -10902698.996 8  -8464490.64045  23861590.906    23861608.5154
 00  4 11 20  6  0.0000000  0  7 09 05 30 10 04 24 06
  23330307.075     1687183.007 8   1348238.82046  23330306.374    23330324.4324
  20253155.290   -27335634.624 9 -21279326.05348  20253154.353    20253164.2464
  22038777.474   -18896180.984 8 -14698997.84046  22038777.222    22038788.7974
  22658798.817   -14714115.852 8 -11438874.66846  22658797.471    22658815.2364
  22592698.300     -415200.944 8   -305402.36646  22592697.970    22592710.2404
  20368426.283   -25209600.573 9 -19632715.84048  20368425.692    20368435.9744
  23848488.030   -10971557.198 8  -8518146.15845  23848487.247    23848505.1004
 00  4 11 20  6 30.0000000  0  7 09 05 30 10 04 24 06
  23347656.332     1778352.552 8   1419279.67446  23347655.654    23347673.6924
  20249465.880   -27355022.499 9 -21294433.47548  20249464.917    20249474.8274
  22023066.005   -18978744.959 8 -14763333.30346  22023065.749    22023077.3174
  22642138.980   -14801662.704 8 -11507092.71146  22642137.655    22642155.4264
  22610364.441     -322365.464 8   -233063.15546  22610364.110    22610376.3654
  20374252.858   -25178981.837 9 -19608857.10348  20374252.259    20374262.5424
  23835392.354   -11040374.643 8  -8571769.92345  23835391.581    23835409.5344
 00  4 11 20  7  0.0000000  0  7 09 05 30 10 04 24 06
  23365030.736     1869654.323 8   1490423.53946  23365030.096    23365048.1584
  20245870.409   -27373916.837 9 -21309156.33048  20245869.446    20245879.3474
  22007405.249   -19061042.189 8 -14827460.91346  22007405.011    22007416.6014
  22625524.215   -14888972.808 8 -11575126.27846  22625522.917    22625540.6394
  22628057.186     -229390.034 8   -160614.90046  22628056.862    22628069.0734
  20380160.190   -25147938.583 9 -19584667.57848  20380159.599    20380169.9344
  23822302.783   -11109160.078 8  -8625368.76545  23822301.974    23822319.9504
 00  4 11 20  7 30.0000000  0  7 09 05 30 10 04 24 06
  23382431.927     1961096.742 8   1561677.01646  23382431.300    23382449.4444
  20242374.223   -27392289.361 9 -21323472.58448  20242373.277    20242383.1274
  21991800.253   -19143046.556 8 -14891360.32646  21991800.004    21991811.6384
  22608960.988   -14976012.069 8 -11642948.80746  22608959.693    22608977.3024
  22645779.001     -136261.958 8    -88047.68946  22645778.663    22645790.8174
  20386151.720   -25116452.699 9 -19560133.14948  20386151.161    20386161.5084
  23809220.579   -11177905.864 8  -8678936.70745  23809219.820    23809237.8684
 00  4 11 20  8  0.0000000  0  7 09 05 30 10 04 24 06
  23399861.903     2052690.465 8   1633048.37446  23399861.212    23399879.5444
  20238979.959   -27410126.141 9 -21337371.37248  20238979.006    20238988.8904
  21976254.488   -19224739.633 8 -14955017.16747  21976254.246    21976265.8604
  22592452.201   -15062765.499 8 -11710548.62446  22592450.892    22592468.3284
  22663530.163      -42980.137 8    -15360.68646  22663529.814    22663541.8884
  20392230.594   -25084508.271 9 -19535241.41148  20392230.013    20392240.3414
  23796147.206   -11246605.263 8  -8732468.51445  23796146.541    23796164.4524
 00  4 11 20  8 30.0000000  0  7 09 05 30 10 04 24 06
  23417321.703     2144441.262 8   1704542.14746  23417321.025    23417339.5144
  20235688.860   -27427421.074 9 -21350847.94348  20235687.895    20235697.7894
  21960769.792   -19306111.957 9 -15018424.07047  21960769.556    21960781.1144
  22576002.541   -15149208.292 8 -11777906.37946  22576001.180    22576018.4444
  22681312.717       50466.853 8     57455.02646  22681312.353    22681324.4024
  20398399.668   -25052089.565 9 -19509980.10348  20398399.082    20398409.3684
  23783084.375   -11315250.347 8  -8785957.99045  23783083.734    23783101.4344
 00  4 11 20  9  0.0000000  0  7 09 05 30 10 04 24 06
  23434809.874     2236340.786 8   1776151.78946  23434809.198    23434827.8044
  20232497.851   -27444189.808 9 -21363914.48948  20232496.884    20232506.7684
  21945343.984   -19387174.653 9 -15081589.70147  21945343.745    21945355.2994
  22559614.414   -15235327.188 8 -11845011.75946  22559613.066    22559630.1374
  22699129.068      144092.011 8    130409.56946  22699128.700    22699140.7894
  20404660.111   -25019190.747 9 -19484344.68048  20404659.538    20404669.7864
  23770032.867   -11383836.429 8  -8839401.48245  23770032.239    23770049.6314
 00  4 11 20  9 30.0000000  0  7 09 05 30 10 04 24 06
  23452323.067     2328372.227 8   1847864.21946  23452322.444    23452341.2024
  20229401.921   -27460458.807 9 -21376591.62748  20229400.967    20229410.8744
  21929976.207   -19467932.519 9 -15144517.79947  21929975.974    21929987.5074
  22543286.282   -15321131.222 8 -11911871.78346  22543284.919    22543301.8404
  22716981.218      237905.190 8    203510.61446  22716980.881    22716993.0034
  20411008.255   -24985831.369 9 -19458350.37348  20411007.673    20411017.9264
  23756992.893   -11452362.184 8  -8892797.95645  23756992.236    23757009.3284
 00  4 11 20 10  0.0000000  0  7 09 05 30 10 04 24 06
  23469856.831     2420511.438 8   1919660.65446  23469856.275    23469875.1434
  20226397.948   -27476244.757 9 -21388892.36448  20226396.977    20226406.8784
  21914662.558   -19548405.981 9 -15207224.28747  21914662.325    21914673.8304
  22527015.753   -15406632.595 8 -11978495.97646  22527014.383    22527031.1574
  22734867.732      331899.004 8    276752.41246  22734867.408    22734879.6024
  20417438.817   -24952038.667 9 -19432018.41248  20417438.242    20417448.5084
  23743963.862   -11520830.210 8  -8946149.44845  23743963.176    23743980.0384
 00  4 11 20 10 30.0000000  0  7 09 05 30 10 04 24 06
  23487408.952     2512746.956 8   1991532.10646  23487408.405    23487427.4274
  20223482.671   -27491564.687 9 -21400829.97148  20223481.715    20223491.5754
  21899398.132   -19628620.611 9 -15269729.08947  21899397.882    21899409.3644
  22510799.647   -15491847.860 8 -12044897.22846  22510798.269    22510815.0104
  22752787.740      426069.014 8    350131.50446  22752787.443    22752799.6844
  20423949.111   -24917827.046 9 -19405360.02848  20423948.505    20423958.8054
  23730943.392   -11589252.620 8  -8999465.40245  23730942.641    23730959.4404
 00  4 11 20 11  0.0000000  0  7 09 05 30 10 04 24 06
  23504978.178     2605072.039 8   2063473.34846  23504977.572    23504996.8084
  20220654.645   -27506426.350 9 -21412410.48648  20220653.693    20220663.4894
  21884180.529   -19708589.114 9 -15332042.10247  21884180.298    21884191.7484
  22494636.803   -15576783.092 8 -12111080.28246  22494635.448    22494652.1784
  22770740.222      520409.310 8    423643.28246  22770739.925    22770752.2064
  20430536.169   -24883211.790 9 -19378387.12348  20430535.565    20430545.8864
  23717929.843   -11657637.772 8  -9052752.30645  23717929.130    23717945.9524
 00  4 11 20 11 30.0000000  0  7 09 05 30 10 04 24 06
  23522562.328     2697475.566 8   2135475.72146  23522561.699    23522581.0414
  20217912.924   -27520834.440 9 -21423637.56748  20217911.971    20217921.7574
  21869011.077   -19788304.560 9 -15394157.92147  21869010.859    21869022.2724
  22478525.365   -15661447.786 8 -12177052.51246  22478524.092    22478540.8404
  22788722.575      614906.642 8    497277.44146  22788722.275    22788734.6374
  20437195.963   -24848214.481 9 -19351116.51048  20437195.364    20437205.6874
  23704922.322   -11725990.718 8  -9106014.11745  23704921.705    23704938.6814
 00  4 11 20 12  0.0000000  0  7 09 05 30 10 04 24 06
  23540163.236     2789967.262 8   2207546.78646  23540162.624    23540182.0414
  20215255.536   -27534799.018 9 -21434519.05248  20215254.581    20215264.3964
  21853888.957   -19867771.307 9 -15456079.95547  21853888.758    21853900.1304
  22462465.297   -15745842.587 8 -12242814.44046  22462464.060    22462480.8364
  22806731.481      709543.627 8    571020.41346  22806731.178    22806743.6544
  20443929.708   -24812828.594 9 -19323543.10948  20443929.102    20443939.4104
  23691919.842   -11794317.614 8  -9159255.63945  23691919.276    23691936.3294
 00  4 11 20 12 30.0000000  0  7 09 05 30 10 04 24 06
  23557779.657     2882540.454 8   2279681.36046  23557779.039    23557798.4484
  20212682.047   -27548322.483 9 -21445056.81748  20212681.102    20212690.9414
  21838815.403   -19946982.988 9 -15517803.23747  21838815.193    21838826.5464
  22446456.918   -15829966.125 8 -12308364.98246  22446455.643    22446472.4474
  22824763.678      804303.474 8    644859.10646  22824763.405    22824775.9854
  20450739.463   -24777043.374 9 -19295658.53848  20450738.868    20450749.1694
  23678920.093   -11862630.791 8  -9212486.47645  23678919.515    23678936.5514
 00  4 11 20 13  0.0000000  0  7 09 05 30 10 04 24 06
  23575409.320     2975183.062 8   2351870.01646  23575408.744    23575428.1134
  20210192.861   -27561403.280 9 -21455249.64248  20210191.915    20210201.7784
  21823794.364   -20025918.432 9 -15579311.26047  21823794.172    21823805.5274
  22430502.209   -15913807.653 8 -12373695.78546  22430500.898    22430517.6404
  22842819.357      899186.572 8    718793.84746  22842819.085    22842831.7764
  20457624.917   -24740860.034 9 -19267463.73848  20457624.301    20457634.6234
  23665924.387   -11930922.850 8  -9265700.84945  23665923.742    23665940.9154
 00  4 11 20 13 30.0000000  0  7 09 05 30 10 04 24 06
  23593051.357     3067890.606 8   2424109.26046  23593050.740    23593070.0794
  20207789.871   -27574031.299 9 -21465089.65948  20207788.919    20207798.7734
  21808827.540   -20104569.260 9 -15640597.51547  21808827.353    21808838.6714
  22414600.582   -15997370.151 8 -12438809.14846  22414599.286    22414615.8914
  22860894.470      994171.487 8    792807.92646  22860894.192    22860906.9464
  20464587.059   -24704273.783 9 -19238954.98948  20464586.462    20464596.7754
  23652934.907   -11999181.912 8  -9318889.51645  23652934.225    23652951.3934
 00  4 11 20 14  0.0000000  0  7 09 05 30 10 04 24 06
  23610705.506     3160661.956 8   2496398.23546  23610704.888    23610724.2424
  20205477.294   -27586184.003 9 -21474559.30248  20205476.320    20205486.1724
  21793916.754   -20182925.954 9 -15701654.57747  21793916.546    21793927.7794
  22398754.503   -16080641.205 8 -12503695.42446  22398753.196    22398769.6224
  22878988.954     1089258.333 8    866901.42946  22878988.685    22879001.4984
  20471630.357   -24667261.087 9 -19210113.94648  20471629.766    20471640.0764
  23639952.468   -12067403.958 8  -9372049.32745  23639951.832    23639968.8604
 00  4 11 20 14 30.0000000  0  7 09 05 30 10 04 24 06
  23628371.894     3253497.862 8   2568737.51846  23628371.298    23628390.6874
  20203262.992   -27597820.059 9 -21483626.35648  20203262.043    20203271.8764
  21779064.832   -20260972.962 9 -15762470.31747  21779064.598    21779075.7994
  22382966.233   -16163608.465 8 -12568344.96546  22382964.897    22382981.1594
  22897107.821     1184473.167 8    941094.66346  22897107.532    22897120.3574
  20478754.652   -24629822.852 9 -19180941.30348  20478754.034    20478764.3384
  23626978.452   -12135582.741 8  -9425175.42845  23626977.853    23626994.6414
 00  4 11 20 15  0.0000000  0  7 09 05 30 10 04 24 06
  23646053.912     3346416.258 8   2641141.07646  23646053.298    23646072.8124
  20201149.272   -27608927.852 9 -21492281.79048  20201148.306    20201158.1034
  21764273.496   -20338701.264 9 -15823037.72547  21764273.277    21764284.4634
  22367239.238   -16246253.379 8 -12632743.34446  22367237.914    22367254.0624
  22915254.088     1279832.110 8   1015400.18946  22915253.800    22915266.6504
  20485958.486   -24591966.219 9 -19151442.64848  20485957.877    20485968.1814
  23614016.683   -12203697.667 8  -9478251.76946  23614015.997    23614032.6244
 00  4 11 20 15 30.0000000  0  7 09 05 30 10 04 24 06
  23663752.530     3439421.887 8   2713612.60546  23663751.955    23663771.5584
  20199138.429   -27619494.860 9 -21500515.82148  20199137.448    20199147.2494
  21749543.021   -20416109.944 9 -15883356.06647  21749542.805    21749553.9964
  22351575.909   -16328563.520 8 -12696880.86046  22351574.568    22351590.7004
  22933426.437     1375327.914 8   1089812.36346  22933426.139    22933439.0394
  20493242.336   -24553689.299 9 -19121616.48748  20493241.754    20493252.0674
  23601064.796   -12271759.853 8  -9531286.99846  23601064.133    23601080.7164
 00  4 11 20 16  0.0000000  0  7 09 05 30 10 04 24 06
  23681468.578     3532518.946 8   2786155.37546  23681467.980    23681487.7384
  20197229.558   -27629525.946 9 -21508332.25748  20197228.600    20197238.3884
  21734873.622   -20493197.896 9 -15943424.50247  21734873.400    21734884.5834
  22335976.114   -16410539.626 8 -12760758.09146  22335974.767    22335990.9414
  22951630.581     1470991.092 8   1164354.95246  22951630.297    22951643.2764
  20500604.488   -24515001.199 9 -19091469.93348  20500603.887    20500614.2074
  23588122.852   -12339768.836 8  -9584280.77946  23588122.204    23588138.8994
 00  4 11 20 16 30.0000000  0  7 09 05 30 10 04 24 06
  23699200.787     3625700.635 8   2858764.07246  23699200.134    23699219.9164
  20195419.685   -27639037.051 9 -21515743.50848  20195418.703    20195428.4764
  21720264.170   -20569970.600 9 -16003247.28147  21720263.934    21720275.1534
  22320439.382   -16492184.260 8 -12824377.02046  22320438.053    22320454.2824
  22969865.346     1566815.211 8   1239022.95246  22969865.103    22969878.1604
  20508039.931   -24475927.435 9 -19061022.85448  20508039.330    20508049.6884
  23575192.084   -12407718.445 8  -9637228.29646  23575191.415    23575208.3334
 00  4 11 20 17  0.0000000  0  7 09 05 30 10 04 24 06
  23716944.369     3718942.123 8   2931419.36846  23716943.691    23716963.5154
  20193702.446   -27648061.080 9 -21522775.22348  20193701.461    20193711.2714
  21705714.577   -20646428.968 9 -16062825.13047  21705714.327    21705725.5134
  22304964.085   -16573506.432 8 -12887744.69446  22304962.756    22304979.0104
  22988124.621     1662768.174 8   1313791.35046  22988124.372    22988137.5104
  20515546.715   -24436478.891 9 -19030283.73948  20515546.133    20515556.5264
  23562272.828   -12475608.055 8  -9690129.06945  23562272.179    23562289.0864
 00  4 11 20 17 30.0000000  0  7 09 05 30 10 04 24 06
  23734696.839     3812230.396 8   3004111.12046  23734696.201    23734715.9854
  20192077.951   -27656597.530 9 -21529427.00748  20192076.966    20192086.8284
  21691223.671   -20722578.552 9 -16122162.37447  21691223.429    21691234.6334
  22289546.570   -16654524.900 8 -12950875.72046  22289545.239    22289561.5254
  23006406.649     1758840.613 8   1388652.84846  23006406.425    23006419.6204
  20523124.295   -24396658.728 9 -18999255.05148  20523123.717    20523134.1064
  23549364.838   -12543439.059 8  -9742984.17546  23549364.204    23549381.0064
 00  4 11 20 18  0.0000000  0  7 09 05 30 10 04 24 06
  23752457.546     3905561.385 8   3076836.15446  23752456.836    23752476.6614
  20190546.320   -27664646.199 9 -21535698.70148  20190545.346    20190555.2664
  21676791.400   -20798420.343 9 -16181259.77947  21676791.160    21676802.3164
  22274184.336   -16735253.019 8 -13013780.50146  22274183.014    22274199.2794
  23024710.310     1855026.502 8   1463602.72846  23024710.074    23024723.3524
  20530773.006   -24356464.598 9 -18967934.95948  20530772.402    20530782.7724
  23536468.676   -12611208.542 8  -9795791.34146  23536468.003    23536484.5784
 00  4 11 20 18 30.0000000  0  7 09 05 30 10 04 24 06
  23770226.845     3998937.658 8   3149596.46646  23770225.994    23770245.9194
  20189110.284   -27672192.385 9 -21541578.85148  20189109.330    20189119.2394
  21662419.483   -20873944.953 9 -16240110.03047  21662419.239    21662430.3794
  22258882.160   -16815665.650 8 -13076439.45446  22258880.838    22258896.9744
  23043031.188     1951302.479 8   1538622.80846  23043030.941    23043044.2684
  20538496.945   -24315875.250 9 -18936306.90748  20538496.345    20538506.7214
  23523581.479   -12678931.096 8  -9848561.95346  23523580.793    23523597.0794
 00  4 11 20 19  0.0000000  0  7 09 05 30 10 04 24 06
  23788008.919     4092381.683 8   3222409.56946  23788008.114    23788028.1564
  20187774.081   -27679214.418 9 -21547050.57348  20187773.125    20187782.9844
  21648111.044   -20949135.834 9 -16298700.24047  21648110.815    21648121.8704
  22243643.305   -16895745.517 8 -13138839.11446  22243642.017    22243657.9544
  23061370.503     2047675.076 8   1613718.18146  23061370.215    23061383.5874
  20546300.735   -24274865.981 9 -18904351.64448  20546300.132    20546310.5134
  23510701.702   -12746614.533 8  -9901302.09246  23510701.060    23510717.0434
 00  4 11 20 19 30.0000000  0  7 09 05 30 10 04 24 06
  23805808.791     4185919.306 8   3295295.61046  23805808.042    23805828.2034
  20186541.253   -27685693.290 9 -21552099.04948  20186540.309    20186550.1244
  21633869.109   -21023977.475 9 -16357018.31747  21633868.864    21633879.8344
  22228470.798   -16975476.877 8 -13200967.19846  22228469.451    22228485.3014
  23079730.567     2144156.672 8   1688898.48446  23079730.285    23079743.6444
  20554189.130   -24233412.137 9 -18872049.96448  20554188.521    20554198.9384
  23497827.205   -12814269.940 8  -9954020.38346  23497826.544    23497842.3354
 00  4 11 20 20  0.0000000  0  7 09 05 30 10 04 24 06
  23823627.741     4279557.177 8   3368259.76545  23823627.066    23823647.3904
  20185412.477   -27691625.317 9 -21556721.41348  20185411.530    20185421.2774
  21619698.181   -21098445.855 9 -16415045.53847  21619697.945    21619708.8524
  22213369.979   -17054830.990 8 -13262801.33246  22213368.655    22213384.4434
  23098112.806     2240754.833 8   1764169.62546  23098112.499    23098125.8294
  20562163.987   -24191503.796 9 -18839394.12547  20562163.390    20562173.8284
  23484956.769   -12881903.767 8 -10006721.87945  23484956.084    23484971.7884
 00  4 11 20 20 30.0000000  0  7 09 05 30 10 04 24 06
  23841464.543     4373288.867 8   3441297.01345  23841463.847    23841484.3714
  20184386.123   -27697019.212 9 -21560924.45348  20184385.161    20184394.8714
  21605599.941   -21172532.220 9 -16472775.08747  21605599.695    21605610.5714
  22198344.541   -17133788.988 8 -13324326.81446  22198343.257    22198359.0104
  23116520.622     2337487.368 8   1839545.47246  23116520.275    23116533.5714
  20570220.334   -24149167.552 9 -18806404.86347  20570219.723    20570230.1904
  23472091.163   -12949511.497 8 -10059403.02645  23472090.510    23472106.3274
 00  4 11 20 21  0.0000000  0  7 09 05 30 10 04 24 06
  23859314.654     4467090.569 8   3514388.81645  23859313.990    23859334.6234
  20183457.561   -27701899.060 9 -21564726.93648  20183456.594    20183466.2864
  21591572.330   -21246247.773 9 -16530215.69447  21591572.096    21591582.9254
  22183391.408   -17212367.666 8 -13385556.70846  22183390.139    22183405.7664
  23134953.906     2434353.626 8   1915025.53146  23134953.534    23134966.7914
  20578350.247   -24106444.627 9 -18773114.28847  20578349.655    20578360.1274
  23459230.658   -13017092.360 8 -10112063.25946  23459230.003    23459246.0674
 00  4 11 20 21 30.0000000  0  7 09 05 30 10 04 24 06
  23877169.969     4560919.537 8   3587501.86545  23877169.329    23877190.0204
  20182623.933   -27706279.970 9 -21568140.63748  20182622.951    20182632.6494
  21577613.104   -21319603.749 9 -16587376.10847  21577612.859    21577623.6814
  22168506.714   -17290587.005 8 -13446506.59546  22168505.393    22168520.8714
  23153411.583     2531348.254 8   1990605.60446  23153411.256    23153424.3964
  20586550.158   -24063354.087 9 -18739537.26047  20586549.558    20586559.9814
  23446375.336   -13084646.429 8 -10164702.60646  23446374.703    23446390.9754
 00  4 11 20 22  0.0000000  0  7 09 05 30 10 04 24 06
  23895026.517     4654754.769 8   3660619.78045  23895025.837    23895046.6124
  20181886.285   -27710156.141 9 -21571161.03248  20181885.302    20181895.0204
  21563720.433   -21392610.087 9 -16644264.07947  21563720.147    21563730.9704
  22153688.795   -17368455.334 8 -13507182.96846  22153687.432    22153702.7834
  23171892.538     2628465.421 8   2066281.16146  23171892.192    23171905.2804
  20594813.523   -24019930.362 9 -18705700.60947  20594812.898    20594823.2814
  23433527.141   -13152163.557 8 -10217313.17046  23433526.527    23433542.8644
 00  4 11 20 22 30.0000000  0  7 09 05 30 10 04 24 06
  23912884.347     4748596.690 8   3733742.92045  23912883.684    23912904.5204
  20181245.914   -27713521.398 9 -21573783.32048  20181244.935    20181254.6774
  21549890.679   -21465285.668 9 -16700894.31847  21549890.421    21549901.1994
  22138935.519   -17445983.527 8 -13567594.31046  22138934.145    22138949.3914
  23190393.635     2725688.366 8   2142039.14946  23190393.254    23190406.3964
  20603140.193   -23976173.604 9 -18671604.46247  20603139.573    20603149.9004
  23420688.126   -13219632.911 8 -10269886.50046  23420687.475    23420703.7524
 00  4 11 20 23  0.0000000  0  7 09 05 30 10 04 24 06
  23930745.067     4842453.940 8   3806877.99145  23930744.400    23930765.3644
  20180706.276   -27716357.106 9 -21575992.96448  20180705.299    20180715.0854
  21536122.944   -21537635.533 9 -16757270.74947  21536122.673    21536133.4114
  22124245.587   -17523178.416 8 -13627745.93046  22124244.225    22124259.4674
  23208912.295     2823004.069 8   2217869.41146  23208911.914    23208925.1624
  20611537.776   -23932043.847 9 -18637217.66347  20611537.150    20611547.4664
  23407860.454   -13287042.239 8 -10322413.06246  23407859.786    23407875.9014
 00  4 11 20 23 30.0000000  0  7 09 05 30 10 04 24 06
  23948611.572     4936341.917 8   3880036.99545  23948610.971    23948632.1114
  20180269.967   -27718649.682 9 -21577779.39148  20180268.991    20180278.8484
  21522420.224   -21609643.377 9 -16813380.66947  21522419.989    21522430.7484
  22109622.301   -17600022.902 8 -13687624.51646  22109620.929    22109636.2004
  23227449.255     2920416.130 8   2293774.74746  23227448.881    23227462.2224
  20620011.755   -23887512.722 9 -18602518.11147  20620011.133    20620021.4814
  23395047.802   -13354372.515 8 -10374878.02246  23395047.156    23395063.1214
 00  4 11 20 24  0.0000000  0  7 09 05 30 10 04 24 06
  23966490.063     5030293.306 8   3953245.40845  23966489.484    23966510.8714
  20179934.675   -27720411.349 9 -21579152.12148  20179933.703    20179943.5984
  21508782.739   -21681308.361 9 -16869223.42247  21508782.510    21508793.2664
  22095071.277   -17676487.646 8 -13747207.20546  22095069.912    22095085.2264
  23246003.368     3017918.236 8   2369750.25046  23246002.967    23246016.4464
  20628562.397   -23842578.921 9 -18567504.78547  20628561.784    20628572.1234
  23382250.785   -13421620.588 8 -10427278.92246  23382250.116    23382265.9524
 00  4 11 20 24 30.0000000  0  7 09 05 30 10 04 24 06
  23984378.113     5124294.593 8   4026492.70045  23984377.590    23984399.1774
  20179694.173   -27721675.106 9 -21580136.87048  20179693.209    20179703.1474
  21495208.636   -21752640.853 9 -16924807.09747  21495208.407    21495219.0784
  22080593.358   -17752568.279 8 -13806490.60046  22080592.025    22080607.3384
  23264574.208     3115508.530 8   2445794.44746  23264573.861    23264587.4134
  20637190.116   -23797240.139 9 -18532175.88347  20637189.501    20637199.8624
  23369467.160   -13488798.057 8 -10479624.80846  23369466.495    23369482.2344
 00  4 11 20 25  0.0000000  0  7 09 05 30 10 04 24 06
  24002270.244     5218316.688 8   4099756.21245  24002269.724    24002291.5664
  20179544.052   -27722464.015 9 -21580751.60648  20179543.083    20179553.0414
  21481698.869   -21823635.109 9 -16980127.21247  21481698.629    21481709.2314
  22066188.920   -17828263.554 8 -13865473.70947  22066187.576    22066202.8464
  23283160.795     3213181.413 8   2521903.02446  23283160.463    23283174.1214
  20645890.294   -23751520.310 9 -18496550.06647  20645889.668    20645900.0954
  23356692.033   -13555930.652 8 -10531935.73346  23356691.369    23356707.0514
 00  4 11 20 25 30.0000000  0  7 09 05 30 10 04 24 06
  24020164.493     5312349.417 8   4173028.01945  24020163.905    24020185.9624
  20179480.091   -27722799.854 9 -21581013.30348  20179479.137    20179489.1234
  21468254.329   -21894286.168 9 -17035179.90347  21468254.097    21468264.7144
  22051857.804   -17903573.674 8 -13924156.69847  22051856.428    22051871.6374
  23301759.194     3310916.203 8   2598059.83446  23301758.848    23301772.6244
  20654655.751   -23705457.274 9 -18460656.82247  20654655.160    20654665.6654
  23343922.705   -13623032.606 8 -10584222.79346  23343922.079    23343937.7654
 00  4 11 20 26  0.0000000  0  7 09 05 30 10 04 24 06
  24038058.858     5406382.565 8   4246300.13845  24038058.198    24038080.3894
  20179502.990   -27722679.543 9 -21580919.56348  20179502.051    20179512.0174
  21454873.734   -21964601.153 9 -17089970.71647  21454873.510    21454884.1764
  22037596.631   -17978515.427 8 -13982552.65447  22037595.301    22037610.4444
  23320366.492     3408697.706 8   2674253.03346  23320366.166    23320380.0034
  20663480.958   -23659080.742 9 -18424519.29547  20663480.370    20663490.9194
  23331156.497   -13690118.716 8 -10636497.53046  23331155.887    23331171.5174
 00  4 11 20 26 30.0000000  0  7 09 05 30 10 04 24 06
  24055949.352     5500395.733 8   4319556.68545  24055948.732    24055970.9104
  20179618.867   -27722071.036 9 -21580445.40748  20179617.911    20179627.7954
  21441558.579   -22034572.378 9 -17144493.67247  21441558.358    21441569.0344
  22023401.694   -18053109.279 8 -14040677.51147  22023400.378    22023415.4454
  23338982.690     3506526.107 8   2750482.78646  23338982.408    23338996.2914
  20672365.204   -23612393.793 9 -18388139.88547  20672364.610    20672375.1514
  23318394.359   -13757183.873 8 -10688755.93246  23318393.742    23318409.2784
 00  4 11 20 27  0.0000000  0  7 09 05 30 10 04 24 06
  24073841.079     5594415.514 8   4392818.38045  24073840.536    24073862.7054
  20179834.799   -27720936.475 9 -21579561.34448  20179833.842    20179843.6874
  21428311.426   -22104186.222 9 -17198738.15547  21428311.199    21428321.8744
  22009275.417   -18127342.775 8 -14098521.57247  22009274.097    22009289.0314
  23357607.970     3604402.172 8   2826749.66346  23357607.704    23357621.6284
  20681312.024   -23565378.183 9 -18351504.37847  20681311.426    20681321.9294
  23305639.647   -13824210.194 8 -10740984.07246  23305638.961    23305654.4954
 00  4 11 20 27 30.0000000  0  7 09 05 30 10 04 24 06
  24091738.902     5688467.273 8   4466104.98445  24091738.355    24091760.6244
  20180156.204   -27719247.812 9 -21578245.51248  20180155.229    20180165.0214
  21415133.818   -22173434.397 9 -17252697.69247  21415133.592    21415144.3224
  21995219.862   -18201204.709 8 -14156076.11647  21995218.537    21995233.3154
  23376243.920     3702334.188 8   2903060.14946  23376243.663    23376257.6374
  20690323.712   -23518021.797 9 -18314603.33047  20690323.117    20690333.5634
  23292894.804   -13891184.231 8 -10793171.47746  23292894.155    23292909.6384
 00  4 11 20 28  0.0000000  0  7 09 05 30 10 04 24 06
  24109643.433     5782554.061 8   4539418.89945  24109642.850    24109665.2304
  20180587.312   -27716982.385 9 -21576480.26048  20180586.351    20180596.1154
  21402026.952   -22242310.688 9 -17306367.45847  21402026.746    21402037.5504
  21981238.905   -18274674.209 8 -14213324.87147  21981237.596    21981252.2954
  23394896.702     3800354.547 8   2979439.46446  23394896.420    23394910.4594
  20699405.190   -23470298.487 9 -18277416.37047  20699404.590    20699415.0424
  23280158.839   -13958111.564 8 -10845322.49146  23280158.202    23280173.6804
 00  4 11 20 28 30.0000000  0  7 09 05 30 10 04 24 06
  24127552.731     5876666.138 8   4612752.51045  24127552.152    24127574.6324
  20181126.330   -27714150.058 9 -21574273.26248  20181125.368    20181135.1054
  21388991.853   -22310810.170 9 -17359743.59847  21388991.639    21389002.4404
  21967337.826   -18347723.731 8 -14270246.36347  21967336.560    21967351.2114
  23413569.973     3898482.958 8   3055902.98746  23413569.713    23413583.7804
  20708561.327   -23422182.791 9 -18239923.65247  20708560.712    20708571.2214
  23267431.313   -14024995.136 8 -10897439.39246  23267430.643    23267446.0544
 00  4 11 20 29  0.0000000  0  7 09 05 30 10 04 24 06
  24145467.823     5970808.040 8   4686109.36645  24145467.190    24145489.7634
  20181767.641   -27710780.150 9 -21571647.36848  20181766.654    20181776.3924
  21376030.552   -22378921.877 9 -17412817.58147  21376030.332    21376041.0964
  21953521.095   -18420330.156 8 -14326822.59147  21953519.825    21953534.4584
  23432262.908     3996714.632 8   3132446.96246  23432262.712    23432276.8104
  20717789.704   -23373687.242 9 -18202134.94947  20717789.103    20717799.6614
  23254710.721   -14091841.991 8 -10949527.68646  23254710.069    23254725.4224
 00  4 11 20 29 30.0000000  0  7 09 05 30 10 04 24 06
  24163382.627     6064948.659 8   4759465.23545  24163382.008    24163404.6324
  20182505.837   -27706900.700 9 -21568624.43548  20182504.863    20182514.6044
  21363143.554   -22446643.054 9 -17465587.25447  21363143.344    21363154.1084
  21939786.160   -18492506.793 8 -14383063.92947  21939784.873    21939799.4764
  23450973.721     4095039.877 8   3209063.86646  23450973.499    23450987.6384
  20727085.714   -23324836.350 9 -18164069.35347  20727085.138    20727095.7154
  23241993.231   -14158671.781 8 -11001602.67146  23241992.574    23242007.9634
 00  4 11 20 30  0.0000000  0  7 09 05 30 10 04 24 06
  24181293.212     6159067.653 8   4832804.24545  24181292.628    24181315.3764
  20183336.513   -27702535.166 9 -21565222.73148  20183335.577    20183345.3444
  21350328.764   -22513984.552 9 -17518061.06547  21350328.586    21350339.3694
  21926130.775   -18564265.181 8 -14438979.36547  21926129.527    21926144.1124
  23469702.710     4193460.569 8   3285755.14146  23469702.442    23469716.5864
  20736447.151   -23275641.840 9 -18125736.00747  20736446.577    20736457.0984
  23229279.547   -14225481.008 8 -11053661.63146  23229278.916    23229294.4294
 00  4 11 20 30 30.0000000  0  7 09 05 30 10 04 24 06
  24199197.820     6253155.032 8   4906118.61245  24199197.324    24199220.0384
  20184259.530   -27697685.135 9 -21561443.50548  20184258.569    20184268.2864
  21337585.401   -22580950.943 9 -17570242.59347  21337585.227    21337596.0104
  21912551.112   -18635625.463 8 -14494584.59947  21912549.898    21912564.4794
  23488442.937     4291940.276 8   3362492.41046  23488442.629    23488456.7634
  20745867.232   -23226139.446 9 -18087162.75147  20745866.635    20745877.1304
  23216571.218   -14292262.364 8 -11105698.88846  23216570.633    23216586.1804
 00  4 11 20 31  0.0000000  0  7 09 05 30 10 04 24 06
  24217097.728     6347217.345 8   4979413.44245  24217097.072    24217119.8754
  20185278.769   -27692329.198 9 -21557270.06348  20185277.803    20185287.5034
  21324915.874   -22647529.493 9 -17622121.90947  21324915.668    21324926.4094
  21899043.676   -18706606.876 8 -14549894.61047  21899042.439    21899056.9824
  23507190.323     4390457.581 8   3439258.96145  23507189.971    23507204.0804
  20755343.271   -23176342.729 9 -18048360.15047  20755342.665    20755353.1204
  23203869.607   -14359009.372 8 -11157709.35246  23203869.046    23203884.4624
 00  4 11 20 31 30.0000000  0  7 09 05 30 10 04 24 06
  24234992.807     6441254.277 8   5052688.49945  24234992.133    24235014.9234
  20186400.296   -27686435.791 9 -21552677.81248  20186399.317    20186409.0204
  21312319.817   -22713721.944 9 -17673700.35947  21312319.608    21312330.3514
  21885605.783   -18777222.745 8 -14604919.77947  21885604.502    21885618.9824
  23525947.637     4489027.477 8   3516066.50745  23525947.355    23525961.4444
  20764880.672   -23126223.323 9 -18009306.10647  20764880.082    20764890.5324
  23191177.180   -14425708.375 8 -11209682.40846  23191176.563    23191191.8464
 00  4 11 20 32  0.0000000  0  7 09 05 30 10 04 24 06
  24252885.629     6535279.547 8   5125954.45745  24252885.016    24252907.7714
  20187628.871   -27679979.310 9 -21547646.79948  20187627.896    20187637.6614
  21299800.455   -22779511.319 9 -17724964.72247  21299800.265    21299810.9644
  21872241.902   -18847449.654 8 -14659641.85947  21872240.643    21872255.0224
  23544717.667     4587664.588 8   3592926.41545  23544717.411    23544731.5784
  20774480.330   -23075777.133 9 -17969997.42547  20774479.707    20774490.1504
  23178497.757   -14492338.321 8 -11261601.66446  23178497.151    23178512.3604
 00  4 11 20 32 30.0000000  0  7 09 05 30 10 04 24 06
  24270776.469     6629294.234 8   5199212.16845  24270775.831    24270798.6624
  20188966.143   -27672951.759 9 -21542170.80248  20188965.200    20188974.9694
  21287362.144   -22844875.326 9 -17775897.64247  21287361.926    21287372.5514
  21858954.853   -18917273.025 8 -14714049.50047  21858953.611    21858967.8404
  23563498.420     4686357.910 8   3669830.12045  23563498.170    23563512.3554
  20784145.315   -23024987.431 9 -17930421.07647  20784144.716    20784155.1654
  23165832.613   -14558892.868 8 -11313462.15946  23165832.019    23165847.2154
 00  4 11 20 33  0.0000000  0  7 09 05 30 10 04 24 06
  24288666.090     6723303.160 8   5272465.40545  24288665.486    24288688.4854
  20190409.218   -27665368.605 9 -21536261.87248  20190408.261    20190417.9784
  21275003.740   -22909818.941 9 -17826502.98447  21275003.532    21275014.1004
  21845746.099   -18986685.227 9 -14768136.74547  21845744.866    21845758.9574
  23582293.688     4785127.128 8   3746792.96245  23582293.457    23582307.6544
  20793880.393   -22973829.286 9 -17890557.62847  20793879.807    20793890.3034
  23153184.618   -14625357.583 8 -11365252.67146  23153184.055    23153199.0944
 00  4 11 20 33 30.0000000  0  7 09 05 30 10 04 24 06
  24306552.911     6817297.537 8   5345707.30045  24306552.264    24306575.5404
  20191953.430   -27657253.947 9 -21529938.77348  20191952.472    20191962.1874
  21262720.268   -22974368.418 9 -17876801.20347  21262720.065    21262730.6654
  21832618.833   -19055669.098 9 -14821890.22347  21832617.564    21832631.5554
  23601103.704     4883973.671 8   3823816.06745  23601103.466    23601117.7844
  20803683.910   -22922311.325 9 -17850413.79947  20803683.320    20803693.8634
  23140551.915   -14691742.567 8 -11416981.04246  23140551.359    23140566.1854
 00  4 11 20 34  0.0000000  0  7 09 05 30 10 04 24 06
  24324434.405     6911264.101 8   5418927.51545  24324433.784    24324457.3204
  20193594.406   -27648630.604 9 -21523219.29948  20193593.456    20193603.2154
  21250511.591   -23038525.101 9 -17926793.35647  21250511.407    21250521.9974
  21819574.972   -19124214.688 9 -14875302.18747  21819573.694    21819587.5764
  23619923.710     4982872.299 8   3900879.74345  23619923.437    23619937.8044
  20813551.570   -22870456.600 9 -17810007.56047  20813550.998    20813561.5704
  23127931.379   -14758063.784 8 -11468659.73146  23127930.807    23127945.3904
 00  4 11 20 34 30.0000000  0  7 09 05 30 10 04 24 06
  24342308.022     7005189.076 8   5492115.30445  24342307.381    24342331.2634
  20195330.119   -27639509.508 9 -21516111.97048  20195329.174    20195338.9444
  21238374.445   -23102306.080 9 -17976492.75847  21238374.250    21238384.8094
  21806612.416   -19192332.673 9 -14928380.94947  21806611.128    21806624.9804
  23638749.264     5081799.579 8   3977965.74946  23638748.904    23638763.2854
  20823484.462   -22818259.218 9 -17769334.31847  20823483.892    20823494.4484
  23115321.142   -14824331.184 8 -11520296.49146  23115320.527    23115334.9444
 00  4 11 20 35  0.0000000  0  7 09 05 30 10 04 24 06
  24360173.227     7099069.713 8   5565268.53245  24360172.523    24360196.6654
  20197161.714   -27629884.690 9 -21508612.13248  20197160.727    20197170.5084
  21226308.268   -23165713.838 9 -18025901.33547  21226308.073    21226318.6244
  21793732.990   -19260013.550 9 -14981119.10747  21793731.724    21793745.5854
  23657582.105     5180765.362 8   4055081.76346  23657581.697    23657596.0644
  20833480.081   -22765732.205 9 -17728404.21847  20833479.492    20833490.0254
  23102717.918   -14890561.430 8 -11571904.28346  23102717.272    23102731.7484
 00  4 11 20 35 30.0000000  0  7 09 05 30 10 04 24 06
  24378028.489     7192898.288 8   5638381.19945  24378027.783    24378052.1564
  20199088.896   -27619757.154 9 -21500720.56948  20199087.922    20199097.7304
  21214317.769   -23228724.027 9 -18075000.11947  21214317.574    21214328.1314
  21780939.653   -19327242.268 8 -15033504.93547  21780938.370    21780952.2244
  23676421.049     5279763.619 8   4132223.08046  23676420.655    23676435.0454
  20843535.285   -22712891.970 9 -17687230.04747  20843534.701    20843545.1734
  23090118.329   -14956772.095 8 -11623496.82646  23090117.674    23090132.2974
 00  4 11 20 36  0.0000000  0  7 09 05 30 10 04 24 06
  24395873.747     7286674.248 7   5711452.84445  24395873.118    24395897.6164
  20201111.395   -27609128.651 9 -21492438.64648  20201110.422    20201120.2594
  21202406.782   -23291316.624 9 -18123773.51047  21202406.589    21202417.1104
  21768230.478   -19394029.266 9 -15085546.57347  21768229.188    21768242.9584
  23695266.179     5378794.442 8   4209389.76346  23695265.789    23695280.2044
  20853650.000   -22659738.937 9 -17645812.13547  20853649.419    20853659.8964
  23077523.835   -15022954.848 8 -11675067.64046  23077523.204    23077538.0594
 00  4 11 20 36 30.0000000  0  7 09 05 30 10 04 24 06
  24413710.341     7380404.519 8   5784488.91345  24413709.670    24413734.4144
  20203227.896   -27598006.475 9 -21483772.04148  20203226.947    20203236.8094
  21190574.016   -23353498.495 9 -18172226.85247  21190573.811    21190584.2484
  21755605.505   -19460373.363 8 -15137243.08347  21755604.189    21755617.9454
  23714118.051     5477860.872 8   4286584.20146  23714117.718    23714132.0924
  20863823.459   -22606277.326 9 -17604153.78047  20863822.876    20863833.3764
  23064932.648   -15089120.359 8 -11726625.01246  23064932.050    23064947.0064
 00  4 11 20 37  0.0000000  0  7 09 05 30 10 04 24 06
  24431539.169     7474093.995 8   5857493.17845  24431538.497    24431563.5504
  20205436.585   -27586399.832 9 -21474727.93148  20205435.628    20205445.5044
  21178819.647   -23415268.263 9 -18220359.07347  21178819.418    21178829.7694
  21743064.579   -19526275.147 8 -15188594.93847  21743063.311    21743077.1144
  23732976.999     5576964.770 8   4363807.83746  23732976.682    23732991.1364
  20874052.152   -22552525.413 9 -17562269.21647  20874051.565    20874062.0934
  23052343.463   -15155275.757 8 -11778174.51146  23052342.876    23052357.8554
 00  4 11 20 37 30.0000000  0  7 09 05 30 10 04 24 06
  24449359.626     7567739.446 8   5930463.12645  24449359.020    24449384.2164
  20207736.945   -27574311.554 9 -21465308.52048  20207735.995    20207745.8794
  21167142.558   -23476631.750 9 -18268174.71447  21167142.342    21167152.6124
  21730603.522   -19591757.294 8 -15239619.80947  21730602.277    21730616.0984
  23751839.291     5676085.815 8   4441044.82146  23751838.944    23751853.5034
  20884334.649   -22498490.814 9 -17520164.37247  20884334.046    20884344.5814
  23039756.583   -15221419.655 8 -11829715.05046  23039755.949    23039770.8644
 00  4 11 20 38  0.0000000  0  7 09 05 30 10 04 24 06
  24467171.458     7661339.521 8   6003397.71745  24467170.869    24467196.2444
  20210134.807   -27561710.865 9 -21455489.83248  20210133.845    20210143.7484
  21155542.186   -23537591.910 9 -18315676.06947  21155541.963    21155552.2134
  21718220.950   -19656827.269 8 -15290323.50947  21718219.690    21718233.5314
  23770704.740     5775223.616 8   4518294.86046  23770704.393    23770719.0154
  20894672.226   -22444166.626 9 -17477833.87847  20894671.630    20894682.1464
  23027173.724   -15287542.789 8 -11881239.41446  23027173.100    23027187.8774
 00  4 11 20 38 30.0000000  0  7 09 05 30 10 04 24 06
  24484974.796     7754894.652 8   6076297.28845  24484974.304    24484999.6854
  20212636.737   -27548563.124 9 -21445244.86948  20212635.783    20212645.6944
  21144019.827   -23598142.183 9 -18362858.03547  21144019.610    21144029.8044
  21705920.115   -19721467.209 8 -15340692.11047  21705918.906    21705932.7714
  23789575.383     5874388.901 8   4595566.31446  23789575.069    23789589.7374
  20905065.772   -22389548.464 9 -17435274.31447  20905065.174    20905075.7274
  23014596.888   -15353634.351 8 -11932739.17946  23014596.287    23014610.9364
 00  4 11 20 39  0.0000000  0  7 09 05 30 10 04 24 06
  24502768.742     7848400.412 8   6149158.38545  24502768.245    24502793.6364
  20215248.336   -27534839.208 9 -21434550.93748  20215247.385    20215257.2924
  21132578.364   -23658267.337 9 -18409708.74047  21132578.151    21132588.3264
  21693702.276   -19785671.361 8 -15390721.13647  21693701.074    21693714.9514
  23808452.289     5973586.620 8   4672863.03546  23808451.901    23808466.6604
  20915516.213   -22334630.958 9 -17392481.49647  20915515.620    20915526.2604
  23002032.450   -15419660.935 8 -11984188.31146  23002031.815    23002046.4344
 00  4 11 20 39 30.0000000  0  7 09 05 30 10 04 24 06
  24520554.057     7941859.921 8   6221983.42845  24520553.553    24520578.9774
  20217972.975   -27520521.583 9 -21423394.37648  20217972.009    20217981.9064
  21121219.756   -23717956.405 9 -18456219.63347  21121219.544    21121229.8064
  21681571.241   -19849420.006 8 -15440395.22247  21681569.992    21681583.7764
  23827338.177     6072831.594 8   4750196.59046  23827337.777    23827352.4964
  20926027.050   -22279396.089 9 -17349441.37947  20926026.473    20926037.1534
  22989482.539   -15485610.638 8 -12035577.54446  22989481.903    22989496.5004
 00  4 11 20 40  0.0000000  0  7 09 05 30 10 04 24 06
  24538329.538     8035267.676 8   6294768.13945  24538328.957    24538354.5814
  20220810.234   -27505611.898 9 -21411776.47348  20220809.275    20220819.1584
  21109944.096   -23777209.532 9 -18502390.84147  21109943.920    21109954.2174
  21669531.916   -19912687.092 9 -15489694.07247  21669530.616    21669544.2834
  23846235.631     6172137.381 8   4827577.52145  23846235.244    23846249.9144
  20936600.110   -22223834.717 9 -17306146.85047  20936599.504    20936610.1904
  22976949.295   -15551472.673 8 -12086898.45646  22976948.660    22976963.1954
